<?xml version="1.0" encoding="UTF-8" standalone="no" ?>
<gpx xmlns="http://www.topografix.com/GPX/1/1" xmlns:xsi="http://www.w3.org/2001/XMLSchema-instance" xsi:schemaLocation="http://www.topografix.com/GPX/1/1 http://www.topografix.com/GPX/1/1/gpx.xsd" version="1.1" creator="VisuGPX - https://www.visugpx.com">
  <metadata>
    <name>2009 LAGAHL</name>
    <desc><![CDATA[Lozère-Aveyron-Gard-Ardèche-Haute Loire]]></desc>
  </metadata>
  <trk>
    <name><![CDATA[E01]]></name>
    <trkseg>
      <trkpt lat="44.36346" lon="3.64829">
        <ele>745</ele>
        <time>2009-07-10T06:38:57Z</time>
      </trkpt>
      <trkpt lat="44.36346" lon="3.64829">
        <ele>745</ele>
        <time>2009-07-10T06:39:04Z</time>
      </trkpt>
      <trkpt lat="44.36346" lon="3.64829">
        <ele>744</ele>
        <time>2009-07-10T06:39:06Z</time>
      </trkpt>
      <trkpt lat="44.36346" lon="3.64829">
        <ele>745</ele>
        <time>2009-07-10T06:39:10Z</time>
      </trkpt>
      <trkpt lat="44.36346" lon="3.64829">
        <ele>744</ele>
        <time>2009-07-10T06:39:12Z</time>
      </trkpt>
      <trkpt lat="44.36346" lon="3.6483">
        <ele>748</ele>
        <time>2009-07-10T06:39:29Z</time>
      </trkpt>
      <trkpt lat="44.36346" lon="3.64831">
        <ele>748</ele>
        <time>2009-07-10T06:39:30Z</time>
      </trkpt>
      <trkpt lat="44.36345" lon="3.64833">
        <ele>751</ele>
        <time>2009-07-10T06:39:34Z</time>
      </trkpt>
      <trkpt lat="44.36345" lon="3.64836">
        <ele>755</ele>
        <time>2009-07-10T06:39:38Z</time>
      </trkpt>
      <trkpt lat="44.36344" lon="3.64838">
        <ele>758</ele>
        <time>2009-07-10T06:39:42Z</time>
      </trkpt>
      <trkpt lat="44.36344" lon="3.6484">
        <ele>761</ele>
        <time>2009-07-10T06:39:46Z</time>
      </trkpt>
      <trkpt lat="44.36344" lon="3.64841">
        <ele>765</ele>
        <time>2009-07-10T06:39:50Z</time>
      </trkpt>
      <trkpt lat="44.36344" lon="3.64841">
        <ele>768</ele>
        <time>2009-07-10T06:39:55Z</time>
      </trkpt>
      <trkpt lat="44.36344" lon="3.64841">
        <ele>769</ele>
        <time>2009-07-10T06:39:56Z</time>
      </trkpt>
      <trkpt lat="44.36344" lon="3.6484">
        <ele>772</ele>
        <time>2009-07-10T06:40:01Z</time>
      </trkpt>
      <trkpt lat="44.36344" lon="3.6484">
        <ele>774</ele>
        <time>2009-07-10T06:40:05Z</time>
      </trkpt>
      <trkpt lat="44.36345" lon="3.64838">
        <ele>778</ele>
        <time>2009-07-10T06:40:13Z</time>
      </trkpt>
      <trkpt lat="44.36349" lon="3.6484">
        <ele>778</ele>
        <time>2009-07-10T06:41:51Z</time>
      </trkpt>
      <trkpt lat="44.36349" lon="3.6484">
        <ele>778</ele>
        <time>2009-07-10T06:44:22Z</time>
      </trkpt>
      <trkpt lat="44.36348" lon="3.64841">
        <ele>778</ele>
        <time>2009-07-10T06:44:52Z</time>
      </trkpt>
      <trkpt lat="44.36348" lon="3.6484">
        <ele>779</ele>
        <time>2009-07-10T06:45:14Z</time>
      </trkpt>
      <trkpt lat="44.36348" lon="3.64838">
        <ele>779</ele>
        <time>2009-07-10T06:45:54Z</time>
      </trkpt>
      <trkpt lat="44.36346" lon="3.64837">
        <ele>779</ele>
        <time>2009-07-10T06:46:26Z</time>
      </trkpt>
      <trkpt lat="44.36347" lon="3.64837">
        <ele>778</ele>
        <time>2009-07-10T06:46:56Z</time>
      </trkpt>
      <trkpt lat="44.36346" lon="3.64836">
        <ele>778</ele>
        <time>2009-07-10T06:47:19Z</time>
      </trkpt>
      <trkpt lat="44.36332" lon="3.64817">
        <ele>781</ele>
        <time>2009-07-10T06:47:34Z</time>
      </trkpt>
      <trkpt lat="44.36331" lon="3.64814">
        <ele>781</ele>
        <time>2009-07-10T06:47:36Z</time>
      </trkpt>
      <trkpt lat="44.36336" lon="3.64805">
        <ele>783</ele>
        <time>2009-07-10T06:47:43Z</time>
      </trkpt>
      <trkpt lat="44.36343" lon="3.64804">
        <ele>784</ele>
        <time>2009-07-10T06:47:49Z</time>
      </trkpt>
      <trkpt lat="44.36347" lon="3.64804">
        <ele>785</ele>
        <time>2009-07-10T06:47:52Z</time>
      </trkpt>
      <trkpt lat="44.36351" lon="3.64796">
        <ele>786</ele>
        <time>2009-07-10T06:47:58Z</time>
      </trkpt>
      <trkpt lat="44.36371" lon="3.64772">
        <ele>789</ele>
        <time>2009-07-10T06:48:16Z</time>
      </trkpt>
      <trkpt lat="44.36393" lon="3.64768">
        <ele>791</ele>
        <time>2009-07-10T06:48:32Z</time>
      </trkpt>
      <trkpt lat="44.36421" lon="3.64753">
        <ele>793</ele>
        <time>2009-07-10T06:48:53Z</time>
      </trkpt>
      <trkpt lat="44.36438" lon="3.64723">
        <ele>796</ele>
        <time>2009-07-10T06:49:12Z</time>
      </trkpt>
      <trkpt lat="44.36455" lon="3.64705">
        <ele>799</ele>
        <time>2009-07-10T06:49:27Z</time>
      </trkpt>
      <trkpt lat="44.36462" lon="3.647">
        <ele>801</ele>
        <time>2009-07-10T06:49:33Z</time>
      </trkpt>
      <trkpt lat="44.36468" lon="3.64679">
        <ele>804</ele>
        <time>2009-07-10T06:49:48Z</time>
      </trkpt>
      <trkpt lat="44.36452" lon="3.64662">
        <ele>807</ele>
        <time>2009-07-10T06:50:04Z</time>
      </trkpt>
      <trkpt lat="44.3645" lon="3.6466">
        <ele>808</ele>
        <time>2009-07-10T06:50:07Z</time>
      </trkpt>
      <trkpt lat="44.36463" lon="3.64651">
        <ele>811</ele>
        <time>2009-07-10T06:50:20Z</time>
      </trkpt>
      <trkpt lat="44.36482" lon="3.64653">
        <ele>814</ele>
        <time>2009-07-10T06:50:36Z</time>
      </trkpt>
      <trkpt lat="44.36497" lon="3.64656">
        <ele>817</ele>
        <time>2009-07-10T06:50:49Z</time>
      </trkpt>
      <trkpt lat="44.36499" lon="3.64656">
        <ele>818</ele>
        <time>2009-07-10T06:50:51Z</time>
      </trkpt>
      <trkpt lat="44.36517" lon="3.64653">
        <ele>821</ele>
        <time>2009-07-10T06:51:05Z</time>
      </trkpt>
      <trkpt lat="44.36525" lon="3.6465">
        <ele>823</ele>
        <time>2009-07-10T06:51:12Z</time>
      </trkpt>
      <trkpt lat="44.36541" lon="3.64644">
        <ele>826</ele>
        <time>2009-07-10T06:51:27Z</time>
      </trkpt>
      <trkpt lat="44.36555" lon="3.64637">
        <ele>829</ele>
        <time>2009-07-10T06:51:40Z</time>
      </trkpt>
      <trkpt lat="44.3657" lon="3.6463">
        <ele>832</ele>
        <time>2009-07-10T06:51:53Z</time>
      </trkpt>
      <trkpt lat="44.36582" lon="3.6462">
        <ele>836</ele>
        <time>2009-07-10T06:52:07Z</time>
      </trkpt>
      <trkpt lat="44.36591" lon="3.64613">
        <ele>839</ele>
        <time>2009-07-10T06:52:17Z</time>
      </trkpt>
      <trkpt lat="44.36593" lon="3.64612">
        <ele>840</ele>
        <time>2009-07-10T06:52:19Z</time>
      </trkpt>
      <trkpt lat="44.36601" lon="3.64606">
        <ele>841</ele>
        <time>2009-07-10T06:52:27Z</time>
      </trkpt>
      <trkpt lat="44.36595" lon="3.64598">
        <ele>842</ele>
        <time>2009-07-10T06:52:37Z</time>
      </trkpt>
      <trkpt lat="44.36585" lon="3.646">
        <ele>843</ele>
        <time>2009-07-10T06:52:45Z</time>
      </trkpt>
      <trkpt lat="44.36564" lon="3.64592">
        <ele>846</ele>
        <time>2009-07-10T06:53:02Z</time>
      </trkpt>
      <trkpt lat="44.36543" lon="3.64582">
        <ele>849</ele>
        <time>2009-07-10T06:53:20Z</time>
      </trkpt>
      <trkpt lat="44.36522" lon="3.64569">
        <ele>851</ele>
        <time>2009-07-10T06:53:37Z</time>
      </trkpt>
      <trkpt lat="44.36522" lon="3.64569">
        <ele>851</ele>
        <time>2009-07-10T06:54:06Z</time>
      </trkpt>
      <trkpt lat="44.36519" lon="3.64541">
        <ele>854</ele>
        <time>2009-07-10T06:54:22Z</time>
      </trkpt>
      <trkpt lat="44.36514" lon="3.64517">
        <ele>857</ele>
        <time>2009-07-10T06:54:36Z</time>
      </trkpt>
      <trkpt lat="44.36513" lon="3.64493">
        <ele>860</ele>
        <time>2009-07-10T06:54:49Z</time>
      </trkpt>
      <trkpt lat="44.3651" lon="3.64481">
        <ele>863</ele>
        <time>2009-07-10T06:54:56Z</time>
      </trkpt>
      <trkpt lat="44.36503" lon="3.64455">
        <ele>866</ele>
        <time>2009-07-10T06:55:12Z</time>
      </trkpt>
      <trkpt lat="44.36502" lon="3.64454">
        <ele>866</ele>
        <time>2009-07-10T06:55:13Z</time>
      </trkpt>
      <trkpt lat="44.36501" lon="3.64448">
        <ele>868</ele>
        <time>2009-07-10T06:55:17Z</time>
      </trkpt>
      <trkpt lat="44.36488" lon="3.64427">
        <ele>871</ele>
        <time>2009-07-10T06:55:33Z</time>
      </trkpt>
      <trkpt lat="44.36487" lon="3.64426">
        <ele>871</ele>
        <time>2009-07-10T06:55:34Z</time>
      </trkpt>
      <trkpt lat="44.36497" lon="3.64426">
        <ele>873</ele>
        <time>2009-07-10T06:55:44Z</time>
      </trkpt>
      <trkpt lat="44.36499" lon="3.64427">
        <ele>874</ele>
        <time>2009-07-10T06:55:46Z</time>
      </trkpt>
      <trkpt lat="44.36521" lon="3.64441">
        <ele>877</ele>
        <time>2009-07-10T06:56:05Z</time>
      </trkpt>
      <trkpt lat="44.36537" lon="3.64454">
        <ele>879</ele>
        <time>2009-07-10T06:56:20Z</time>
      </trkpt>
      <trkpt lat="44.3655" lon="3.64466">
        <ele>882</ele>
        <time>2009-07-10T06:56:34Z</time>
      </trkpt>
      <trkpt lat="44.36567" lon="3.64476">
        <ele>886</ele>
        <time>2009-07-10T06:56:49Z</time>
      </trkpt>
      <trkpt lat="44.36585" lon="3.64477">
        <ele>888</ele>
        <time>2009-07-10T06:57:04Z</time>
      </trkpt>
      <trkpt lat="44.3659" lon="3.64476">
        <ele>890</ele>
        <time>2009-07-10T06:57:08Z</time>
      </trkpt>
      <trkpt lat="44.3661" lon="3.64472">
        <ele>893</ele>
        <time>2009-07-10T06:57:24Z</time>
      </trkpt>
      <trkpt lat="44.36612" lon="3.64471">
        <ele>894</ele>
        <time>2009-07-10T06:57:26Z</time>
      </trkpt>
      <trkpt lat="44.36628" lon="3.64466">
        <ele>897</ele>
        <time>2009-07-10T06:57:39Z</time>
      </trkpt>
      <trkpt lat="44.36629" lon="3.64466">
        <ele>898</ele>
        <time>2009-07-10T06:57:40Z</time>
      </trkpt>
      <trkpt lat="44.36636" lon="3.64464">
        <ele>900</ele>
        <time>2009-07-10T06:57:46Z</time>
      </trkpt>
      <trkpt lat="44.36657" lon="3.64462">
        <ele>903</ele>
        <time>2009-07-10T06:58:03Z</time>
      </trkpt>
      <trkpt lat="44.36679" lon="3.64461">
        <ele>906</ele>
        <time>2009-07-10T06:58:21Z</time>
      </trkpt>
      <trkpt lat="44.36682" lon="3.6446">
        <ele>908</ele>
        <time>2009-07-10T06:58:23Z</time>
      </trkpt>
      <trkpt lat="44.36689" lon="3.64458">
        <ele>910</ele>
        <time>2009-07-10T06:58:36Z</time>
      </trkpt>
      <trkpt lat="44.36691" lon="3.64455">
        <ele>911</ele>
        <time>2009-07-10T06:58:41Z</time>
      </trkpt>
      <trkpt lat="44.36692" lon="3.64451">
        <ele>911</ele>
        <time>2009-07-10T06:58:44Z</time>
      </trkpt>
      <trkpt lat="44.36682" lon="3.64448">
        <ele>912</ele>
        <time>2009-07-10T06:58:51Z</time>
      </trkpt>
      <trkpt lat="44.36665" lon="3.64435">
        <ele>915</ele>
        <time>2009-07-10T06:59:05Z</time>
      </trkpt>
      <trkpt lat="44.36656" lon="3.64423">
        <ele>918</ele>
        <time>2009-07-10T06:59:15Z</time>
      </trkpt>
      <trkpt lat="44.36649" lon="3.64414">
        <ele>921</ele>
        <time>2009-07-10T06:59:23Z</time>
      </trkpt>
      <trkpt lat="44.36644" lon="3.64407">
        <ele>923</ele>
        <time>2009-07-10T06:59:29Z</time>
      </trkpt>
      <trkpt lat="44.36623" lon="3.64384">
        <ele>926</ele>
        <time>2009-07-10T06:59:50Z</time>
      </trkpt>
      <trkpt lat="44.36611" lon="3.6437">
        <ele>930</ele>
        <time>2009-07-10T07:00:03Z</time>
      </trkpt>
      <trkpt lat="44.36604" lon="3.6436">
        <ele>933</ele>
        <time>2009-07-10T07:00:11Z</time>
      </trkpt>
      <trkpt lat="44.36603" lon="3.64359">
        <ele>933</ele>
        <time>2009-07-10T07:00:12Z</time>
      </trkpt>
      <trkpt lat="44.36596" lon="3.64349">
        <ele>935</ele>
        <time>2009-07-10T07:00:20Z</time>
      </trkpt>
      <trkpt lat="44.36589" lon="3.64338">
        <ele>938</ele>
        <time>2009-07-10T07:00:29Z</time>
      </trkpt>
      <trkpt lat="44.36576" lon="3.64312">
        <ele>941</ele>
        <time>2009-07-10T07:00:47Z</time>
      </trkpt>
      <trkpt lat="44.36563" lon="3.64289">
        <ele>943</ele>
        <time>2009-07-10T07:01:04Z</time>
      </trkpt>
      <trkpt lat="44.3655" lon="3.64271">
        <ele>946</ele>
        <time>2009-07-10T07:01:18Z</time>
      </trkpt>
      <trkpt lat="44.36541" lon="3.64252">
        <ele>950</ele>
        <time>2009-07-10T07:01:31Z</time>
      </trkpt>
      <trkpt lat="44.36539" lon="3.64246">
        <ele>951</ele>
        <time>2009-07-10T07:01:35Z</time>
      </trkpt>
      <trkpt lat="44.36542" lon="3.64234">
        <ele>954</ele>
        <time>2009-07-10T07:01:48Z</time>
      </trkpt>
      <trkpt lat="44.36543" lon="3.64235">
        <ele>954</ele>
        <time>2009-07-10T07:01:49Z</time>
      </trkpt>
      <trkpt lat="44.36565" lon="3.64253">
        <ele>956</ele>
        <time>2009-07-10T07:02:07Z</time>
      </trkpt>
      <trkpt lat="44.36586" lon="3.64256">
        <ele>960</ele>
        <time>2009-07-10T07:02:24Z</time>
      </trkpt>
      <trkpt lat="44.36588" lon="3.64257">
        <ele>961</ele>
        <time>2009-07-10T07:02:26Z</time>
      </trkpt>
      <trkpt lat="44.36608" lon="3.64266">
        <ele>965</ele>
        <time>2009-07-10T07:02:42Z</time>
      </trkpt>
      <trkpt lat="44.36617" lon="3.64272">
        <ele>967</ele>
        <time>2009-07-10T07:02:50Z</time>
      </trkpt>
      <trkpt lat="44.36634" lon="3.64282">
        <ele>970</ele>
        <time>2009-07-10T07:03:05Z</time>
      </trkpt>
      <trkpt lat="44.36642" lon="3.64285">
        <ele>972</ele>
        <time>2009-07-10T07:03:11Z</time>
      </trkpt>
      <trkpt lat="44.36668" lon="3.64289">
        <ele>974</ele>
        <time>2009-07-10T07:03:31Z</time>
      </trkpt>
      <trkpt lat="44.36675" lon="3.64291">
        <ele>976</ele>
        <time>2009-07-10T07:03:36Z</time>
      </trkpt>
      <trkpt lat="44.36683" lon="3.64294">
        <ele>979</ele>
        <time>2009-07-10T07:03:43Z</time>
      </trkpt>
      <trkpt lat="44.36699" lon="3.64295">
        <ele>981</ele>
        <time>2009-07-10T07:03:55Z</time>
      </trkpt>
      <trkpt lat="44.36714" lon="3.64295">
        <ele>984</ele>
        <time>2009-07-10T07:04:07Z</time>
      </trkpt>
      <trkpt lat="44.36734" lon="3.64294">
        <ele>987</ele>
        <time>2009-07-10T07:04:23Z</time>
      </trkpt>
      <trkpt lat="44.36756" lon="3.64295">
        <ele>991</ele>
        <time>2009-07-10T07:04:40Z</time>
      </trkpt>
      <trkpt lat="44.36777" lon="3.64293">
        <ele>994</ele>
        <time>2009-07-10T07:04:56Z</time>
      </trkpt>
      <trkpt lat="44.36794" lon="3.64296">
        <ele>997</ele>
        <time>2009-07-10T07:05:10Z</time>
      </trkpt>
      <trkpt lat="44.36795" lon="3.64296">
        <ele>997</ele>
        <time>2009-07-10T07:05:11Z</time>
      </trkpt>
      <trkpt lat="44.36799" lon="3.64274">
        <ele>1000</ele>
        <time>2009-07-10T07:05:25Z</time>
      </trkpt>
      <trkpt lat="44.36788" lon="3.64235">
        <ele>1002</ele>
        <time>2009-07-10T07:05:44Z</time>
      </trkpt>
      <trkpt lat="44.36789" lon="3.64194">
        <ele>1005</ele>
        <time>2009-07-10T07:06:04Z</time>
      </trkpt>
      <trkpt lat="44.368" lon="3.64169">
        <ele>1008</ele>
        <time>2009-07-10T07:06:19Z</time>
      </trkpt>
      <trkpt lat="44.36803" lon="3.64167">
        <ele>1009</ele>
        <time>2009-07-10T07:06:21Z</time>
      </trkpt>
      <trkpt lat="44.36823" lon="3.64158">
        <ele>1013</ele>
        <time>2009-07-10T07:06:37Z</time>
      </trkpt>
      <trkpt lat="44.36833" lon="3.64149">
        <ele>1016</ele>
        <time>2009-07-10T07:06:46Z</time>
      </trkpt>
      <trkpt lat="44.36835" lon="3.64146">
        <ele>1017</ele>
        <time>2009-07-10T07:06:48Z</time>
      </trkpt>
      <trkpt lat="44.36851" lon="3.64125">
        <ele>1020</ele>
        <time>2009-07-10T07:07:04Z</time>
      </trkpt>
      <trkpt lat="44.3686" lon="3.64113">
        <ele>1021</ele>
        <time>2009-07-10T07:07:13Z</time>
      </trkpt>
      <trkpt lat="44.36884" lon="3.64094">
        <ele>1023</ele>
        <time>2009-07-10T07:07:32Z</time>
      </trkpt>
      <trkpt lat="44.36887" lon="3.64093">
        <ele>1023</ele>
        <time>2009-07-10T07:07:34Z</time>
      </trkpt>
      <trkpt lat="44.3689" lon="3.64095">
        <ele>1023</ele>
        <time>2009-07-10T07:07:50Z</time>
      </trkpt>
      <trkpt lat="44.36893" lon="3.64096">
        <ele>1022</ele>
        <time>2009-07-10T07:08:11Z</time>
      </trkpt>
      <trkpt lat="44.36894" lon="3.64098">
        <ele>1025</ele>
        <time>2009-07-10T07:17:32Z</time>
      </trkpt>
      <trkpt lat="44.36893" lon="3.64095">
        <ele>1025</ele>
        <time>2009-07-10T07:19:00Z</time>
      </trkpt>
      <trkpt lat="44.36902" lon="3.64058">
        <ele>1023</ele>
        <time>2009-07-10T07:19:12Z</time>
      </trkpt>
      <trkpt lat="44.36904" lon="3.64046">
        <ele>1023</ele>
        <time>2009-07-10T07:19:15Z</time>
      </trkpt>
      <trkpt lat="44.369" lon="3.64018">
        <ele>1020</ele>
        <time>2009-07-10T07:19:19Z</time>
      </trkpt>
      <trkpt lat="44.36897" lon="3.64002">
        <ele>1018</ele>
        <time>2009-07-10T07:19:21Z</time>
      </trkpt>
      <trkpt lat="44.36905" lon="3.6398">
        <ele>1018</ele>
        <time>2009-07-10T07:19:29Z</time>
      </trkpt>
      <trkpt lat="44.36907" lon="3.63977">
        <ele>1018</ele>
        <time>2009-07-10T07:19:40Z</time>
      </trkpt>
      <trkpt lat="44.36909" lon="3.63974">
        <ele>1019</ele>
        <time>2009-07-10T07:19:51Z</time>
      </trkpt>
      <trkpt lat="44.3691" lon="3.63972">
        <ele>1018</ele>
        <time>2009-07-10T07:20:01Z</time>
      </trkpt>
      <trkpt lat="44.36911" lon="3.63972">
        <ele>1018</ele>
        <time>2009-07-10T07:20:16Z</time>
      </trkpt>
      <trkpt lat="44.36913" lon="3.63973">
        <ele>1017</ele>
        <time>2009-07-10T07:20:21Z</time>
      </trkpt>
      <trkpt lat="44.36918" lon="3.63984">
        <ele>1018</ele>
        <time>2009-07-10T07:20:32Z</time>
      </trkpt>
      <trkpt lat="44.36943" lon="3.64027">
        <ele>1020</ele>
        <time>2009-07-10T07:20:51Z</time>
      </trkpt>
      <trkpt lat="44.36957" lon="3.64051">
        <ele>1020</ele>
        <time>2009-07-10T07:21:07Z</time>
      </trkpt>
      <trkpt lat="44.36956" lon="3.64051">
        <ele>1021</ele>
        <time>2009-07-10T07:22:14Z</time>
      </trkpt>
      <trkpt lat="44.36956" lon="3.64051">
        <ele>1021</ele>
        <time>2009-07-10T07:22:34Z</time>
      </trkpt>
      <trkpt lat="44.36957" lon="3.64053">
        <ele>1023</ele>
        <time>2009-07-10T07:22:42Z</time>
      </trkpt>
      <trkpt lat="44.36992" lon="3.64073">
        <ele>1022</ele>
        <time>2009-07-10T07:22:58Z</time>
      </trkpt>
      <trkpt lat="44.37041" lon="3.64101">
        <ele>1026</ele>
        <time>2009-07-10T07:23:21Z</time>
      </trkpt>
      <trkpt lat="44.37075" lon="3.64121">
        <ele>1028</ele>
        <time>2009-07-10T07:23:39Z</time>
      </trkpt>
      <trkpt lat="44.3711" lon="3.64158">
        <ele>1032</ele>
        <time>2009-07-10T07:23:59Z</time>
      </trkpt>
      <trkpt lat="44.3714" lon="3.64192">
        <ele>1032</ele>
        <time>2009-07-10T07:24:15Z</time>
      </trkpt>
      <trkpt lat="44.37179" lon="3.64235">
        <ele>1034</ele>
        <time>2009-07-10T07:24:34Z</time>
      </trkpt>
      <trkpt lat="44.37222" lon="3.64256">
        <ele>1037</ele>
        <time>2009-07-10T07:24:52Z</time>
      </trkpt>
      <trkpt lat="44.37259" lon="3.64262">
        <ele>1037</ele>
        <time>2009-07-10T07:25:06Z</time>
      </trkpt>
      <trkpt lat="44.37303" lon="3.64266">
        <ele>1039</ele>
        <time>2009-07-10T07:25:24Z</time>
      </trkpt>
      <trkpt lat="44.3733" lon="3.64267">
        <ele>1042</ele>
        <time>2009-07-10T07:25:35Z</time>
      </trkpt>
      <trkpt lat="44.37359" lon="3.64274">
        <ele>1044</ele>
        <time>2009-07-10T07:25:46Z</time>
      </trkpt>
      <trkpt lat="44.37396" lon="3.64305">
        <ele>1043</ele>
        <time>2009-07-10T07:26:01Z</time>
      </trkpt>
      <trkpt lat="44.37428" lon="3.64331">
        <ele>1043</ele>
        <time>2009-07-10T07:26:13Z</time>
      </trkpt>
      <trkpt lat="44.37454" lon="3.64369">
        <ele>1043</ele>
        <time>2009-07-10T07:26:26Z</time>
      </trkpt>
      <trkpt lat="44.37466" lon="3.64402">
        <ele>1039</ele>
        <time>2009-07-10T07:26:31Z</time>
      </trkpt>
      <trkpt lat="44.375" lon="3.64432">
        <ele>1039</ele>
        <time>2009-07-10T07:26:38Z</time>
      </trkpt>
      <trkpt lat="44.37536" lon="3.64439">
        <ele>1038</ele>
        <time>2009-07-10T07:26:46Z</time>
      </trkpt>
      <trkpt lat="44.3755" lon="3.64437">
        <ele>1036</ele>
        <time>2009-07-10T07:26:49Z</time>
      </trkpt>
      <trkpt lat="44.37555" lon="3.64436">
        <ele>1037</ele>
        <time>2009-07-10T07:26:50Z</time>
      </trkpt>
      <trkpt lat="44.37613" lon="3.64433">
        <ele>1036</ele>
        <time>2009-07-10T07:27:06Z</time>
      </trkpt>
      <trkpt lat="44.37636" lon="3.64434">
        <ele>1033</ele>
        <time>2009-07-10T07:27:11Z</time>
      </trkpt>
      <trkpt lat="44.3768" lon="3.64459">
        <ele>1032</ele>
        <time>2009-07-10T07:27:24Z</time>
      </trkpt>
      <trkpt lat="44.37728" lon="3.64496">
        <ele>1031</ele>
        <time>2009-07-10T07:27:39Z</time>
      </trkpt>
      <trkpt lat="44.37752" lon="3.64505">
        <ele>1032</ele>
        <time>2009-07-10T07:27:50Z</time>
      </trkpt>
      <trkpt lat="44.37773" lon="3.64512">
        <ele>1035</ele>
        <time>2009-07-10T07:28:02Z</time>
      </trkpt>
      <trkpt lat="44.37783" lon="3.64516">
        <ele>1038</ele>
        <time>2009-07-10T07:28:09Z</time>
      </trkpt>
      <trkpt lat="44.37805" lon="3.64516">
        <ele>1042</ele>
        <time>2009-07-10T07:28:25Z</time>
      </trkpt>
      <trkpt lat="44.37822" lon="3.64512">
        <ele>1045</ele>
        <time>2009-07-10T07:28:38Z</time>
      </trkpt>
      <trkpt lat="44.37823" lon="3.64512">
        <ele>1045</ele>
        <time>2009-07-10T07:28:39Z</time>
      </trkpt>
      <trkpt lat="44.37843" lon="3.64508">
        <ele>1048</ele>
        <time>2009-07-10T07:28:54Z</time>
      </trkpt>
      <trkpt lat="44.37864" lon="3.64506">
        <ele>1051</ele>
        <time>2009-07-10T07:29:11Z</time>
      </trkpt>
      <trkpt lat="44.3788" lon="3.64518">
        <ele>1054</ele>
        <time>2009-07-10T07:29:26Z</time>
      </trkpt>
      <trkpt lat="44.379" lon="3.64555">
        <ele>1057</ele>
        <time>2009-07-10T07:29:49Z</time>
      </trkpt>
      <trkpt lat="44.37908" lon="3.64576">
        <ele>1060</ele>
        <time>2009-07-10T07:30:01Z</time>
      </trkpt>
      <trkpt lat="44.37924" lon="3.6461">
        <ele>1061</ele>
        <time>2009-07-10T07:30:21Z</time>
      </trkpt>
      <trkpt lat="44.37939" lon="3.6463">
        <ele>1064</ele>
        <time>2009-07-10T07:30:35Z</time>
      </trkpt>
      <trkpt lat="44.37951" lon="3.64644">
        <ele>1068</ele>
        <time>2009-07-10T07:30:45Z</time>
      </trkpt>
      <trkpt lat="44.37979" lon="3.64683">
        <ele>1070</ele>
        <time>2009-07-10T07:31:05Z</time>
      </trkpt>
      <trkpt lat="44.38015" lon="3.64718">
        <ele>1071</ele>
        <time>2009-07-10T07:31:26Z</time>
      </trkpt>
      <trkpt lat="44.38042" lon="3.6474">
        <ele>1074</ele>
        <time>2009-07-10T07:31:38Z</time>
      </trkpt>
      <trkpt lat="44.38044" lon="3.64742">
        <ele>1075</ele>
        <time>2009-07-10T07:31:39Z</time>
      </trkpt>
      <trkpt lat="44.38084" lon="3.64752">
        <ele>1076</ele>
        <time>2009-07-10T07:31:55Z</time>
      </trkpt>
      <trkpt lat="44.38124" lon="3.64765">
        <ele>1078</ele>
        <time>2009-07-10T07:32:14Z</time>
      </trkpt>
      <trkpt lat="44.38136" lon="3.64769">
        <ele>1080</ele>
        <time>2009-07-10T07:32:21Z</time>
      </trkpt>
      <trkpt lat="44.38149" lon="3.6477">
        <ele>1082</ele>
        <time>2009-07-10T07:32:27Z</time>
      </trkpt>
      <trkpt lat="44.38169" lon="3.64776">
        <ele>1084</ele>
        <time>2009-07-10T07:32:39Z</time>
      </trkpt>
      <trkpt lat="44.38197" lon="3.6479">
        <ele>1087</ele>
        <time>2009-07-10T07:32:56Z</time>
      </trkpt>
      <trkpt lat="44.38218" lon="3.64807">
        <ele>1087</ele>
        <time>2009-07-10T07:33:09Z</time>
      </trkpt>
      <trkpt lat="44.38237" lon="3.64831">
        <ele>1089</ele>
        <time>2009-07-10T07:33:22Z</time>
      </trkpt>
      <trkpt lat="44.38256" lon="3.64869">
        <ele>1093</ele>
        <time>2009-07-10T07:33:40Z</time>
      </trkpt>
      <trkpt lat="44.38262" lon="3.64895">
        <ele>1094</ele>
        <time>2009-07-10T07:33:53Z</time>
      </trkpt>
      <trkpt lat="44.38267" lon="3.64898">
        <ele>1094</ele>
        <time>2009-07-10T07:33:57Z</time>
      </trkpt>
      <trkpt lat="44.38288" lon="3.64911">
        <ele>1098</ele>
        <time>2009-07-10T07:34:14Z</time>
      </trkpt>
      <trkpt lat="44.383" lon="3.64917">
        <ele>1100</ele>
        <time>2009-07-10T07:34:23Z</time>
      </trkpt>
      <trkpt lat="44.38315" lon="3.64926">
        <ele>1103</ele>
        <time>2009-07-10T07:34:35Z</time>
      </trkpt>
      <trkpt lat="44.38339" lon="3.64943">
        <ele>1106</ele>
        <time>2009-07-10T07:34:56Z</time>
      </trkpt>
      <trkpt lat="44.38363" lon="3.64962">
        <ele>1108</ele>
        <time>2009-07-10T07:35:16Z</time>
      </trkpt>
      <trkpt lat="44.3837" lon="3.64966">
        <ele>1111</ele>
        <time>2009-07-10T07:35:20Z</time>
      </trkpt>
      <trkpt lat="44.3838" lon="3.64975">
        <ele>1113</ele>
        <time>2009-07-10T07:35:27Z</time>
      </trkpt>
      <trkpt lat="44.38409" lon="3.64992">
        <ele>1116</ele>
        <time>2009-07-10T07:35:47Z</time>
      </trkpt>
      <trkpt lat="44.38424" lon="3.65001">
        <ele>1119</ele>
        <time>2009-07-10T07:35:58Z</time>
      </trkpt>
      <trkpt lat="44.38449" lon="3.65016">
        <ele>1122</ele>
        <time>2009-07-10T07:36:16Z</time>
      </trkpt>
      <trkpt lat="44.38463" lon="3.65025">
        <ele>1127</ele>
        <time>2009-07-10T07:36:26Z</time>
      </trkpt>
      <trkpt lat="44.38464" lon="3.65025">
        <ele>1126</ele>
        <time>2009-07-10T07:36:27Z</time>
      </trkpt>
      <trkpt lat="44.38476" lon="3.65034">
        <ele>1129</ele>
        <time>2009-07-10T07:36:36Z</time>
      </trkpt>
      <trkpt lat="44.38493" lon="3.65046">
        <ele>1132</ele>
        <time>2009-07-10T07:36:49Z</time>
      </trkpt>
      <trkpt lat="44.38504" lon="3.65054">
        <ele>1134</ele>
        <time>2009-07-10T07:36:58Z</time>
      </trkpt>
      <trkpt lat="44.38509" lon="3.65058">
        <ele>1135</ele>
        <time>2009-07-10T07:37:02Z</time>
      </trkpt>
      <trkpt lat="44.38529" lon="3.65072">
        <ele>1138</ele>
        <time>2009-07-10T07:37:18Z</time>
      </trkpt>
      <trkpt lat="44.38547" lon="3.65083">
        <ele>1142</ele>
        <time>2009-07-10T07:37:32Z</time>
      </trkpt>
      <trkpt lat="44.38563" lon="3.65092">
        <ele>1145</ele>
        <time>2009-07-10T07:37:44Z</time>
      </trkpt>
      <trkpt lat="44.38584" lon="3.65103">
        <ele>1148</ele>
        <time>2009-07-10T07:37:59Z</time>
      </trkpt>
      <trkpt lat="44.38602" lon="3.65111">
        <ele>1151</ele>
        <time>2009-07-10T07:38:11Z</time>
      </trkpt>
      <trkpt lat="44.3862" lon="3.65119">
        <ele>1154</ele>
        <time>2009-07-10T07:38:24Z</time>
      </trkpt>
      <trkpt lat="44.38629" lon="3.65122">
        <ele>1157</ele>
        <time>2009-07-10T07:38:30Z</time>
      </trkpt>
      <trkpt lat="44.38631" lon="3.65123">
        <ele>1157</ele>
        <time>2009-07-10T07:38:31Z</time>
      </trkpt>
      <trkpt lat="44.38653" lon="3.65134">
        <ele>1160</ele>
        <time>2009-07-10T07:38:48Z</time>
      </trkpt>
      <trkpt lat="44.38667" lon="3.6514">
        <ele>1163</ele>
        <time>2009-07-10T07:38:58Z</time>
      </trkpt>
      <trkpt lat="44.38683" lon="3.65146">
        <ele>1166</ele>
        <time>2009-07-10T07:39:10Z</time>
      </trkpt>
      <trkpt lat="44.38704" lon="3.65151">
        <ele>1169</ele>
        <time>2009-07-10T07:39:25Z</time>
      </trkpt>
      <trkpt lat="44.38728" lon="3.65156">
        <ele>1171</ele>
        <time>2009-07-10T07:39:42Z</time>
      </trkpt>
      <trkpt lat="44.38741" lon="3.6516">
        <ele>1175</ele>
        <time>2009-07-10T07:39:53Z</time>
      </trkpt>
      <trkpt lat="44.3876" lon="3.65164">
        <ele>1178</ele>
        <time>2009-07-10T07:40:07Z</time>
      </trkpt>
      <trkpt lat="44.38776" lon="3.65167">
        <ele>1181</ele>
        <time>2009-07-10T07:40:19Z</time>
      </trkpt>
      <trkpt lat="44.38794" lon="3.65169">
        <ele>1185</ele>
        <time>2009-07-10T07:40:32Z</time>
      </trkpt>
      <trkpt lat="44.38824" lon="3.65166">
        <ele>1187</ele>
        <time>2009-07-10T07:40:52Z</time>
      </trkpt>
      <trkpt lat="44.38832" lon="3.65165">
        <ele>1188</ele>
        <time>2009-07-10T07:40:57Z</time>
      </trkpt>
      <trkpt lat="44.38866" lon="3.65163">
        <ele>1191</ele>
        <time>2009-07-10T07:41:17Z</time>
      </trkpt>
      <trkpt lat="44.38901" lon="3.65155">
        <ele>1192</ele>
        <time>2009-07-10T07:41:36Z</time>
      </trkpt>
      <trkpt lat="44.38937" lon="3.65144">
        <ele>1196</ele>
        <time>2009-07-10T07:41:55Z</time>
      </trkpt>
      <trkpt lat="44.38943" lon="3.65142">
        <ele>1197</ele>
        <time>2009-07-10T07:41:58Z</time>
      </trkpt>
      <trkpt lat="44.38986" lon="3.65128">
        <ele>1199</ele>
        <time>2009-07-10T07:42:18Z</time>
      </trkpt>
      <trkpt lat="44.39002" lon="3.65124">
        <ele>1201</ele>
        <time>2009-07-10T07:42:25Z</time>
      </trkpt>
      <trkpt lat="44.39038" lon="3.65115">
        <ele>1203</ele>
        <time>2009-07-10T07:42:41Z</time>
      </trkpt>
      <trkpt lat="44.39068" lon="3.65092">
        <ele>1205</ele>
        <time>2009-07-10T07:42:55Z</time>
      </trkpt>
      <trkpt lat="44.39109" lon="3.65076">
        <ele>1206</ele>
        <time>2009-07-10T07:43:13Z</time>
      </trkpt>
      <trkpt lat="44.39121" lon="3.6507">
        <ele>1207</ele>
        <time>2009-07-10T07:43:26Z</time>
      </trkpt>
      <trkpt lat="44.39124" lon="3.65066">
        <ele>1208</ele>
        <time>2009-07-10T07:51:41Z</time>
      </trkpt>
      <trkpt lat="44.3915" lon="3.6504">
        <ele>1209</ele>
        <time>2009-07-10T07:51:56Z</time>
      </trkpt>
      <trkpt lat="44.39177" lon="3.65018">
        <ele>1213</ele>
        <time>2009-07-10T07:52:10Z</time>
      </trkpt>
      <trkpt lat="44.39199" lon="3.64998">
        <ele>1216</ele>
        <time>2009-07-10T07:52:25Z</time>
      </trkpt>
      <trkpt lat="44.39228" lon="3.64964">
        <ele>1217</ele>
        <time>2009-07-10T07:52:45Z</time>
      </trkpt>
      <trkpt lat="44.39235" lon="3.64956">
        <ele>1216</ele>
        <time>2009-07-10T07:52:49Z</time>
      </trkpt>
      <trkpt lat="44.39265" lon="3.64935">
        <ele>1215</ele>
        <time>2009-07-10T07:53:02Z</time>
      </trkpt>
      <trkpt lat="44.39305" lon="3.64905">
        <ele>1212</ele>
        <time>2009-07-10T07:53:16Z</time>
      </trkpt>
      <trkpt lat="44.39367" lon="3.64858">
        <ele>1211</ele>
        <time>2009-07-10T07:53:34Z</time>
      </trkpt>
      <trkpt lat="44.3941" lon="3.64838">
        <ele>1207</ele>
        <time>2009-07-10T07:53:44Z</time>
      </trkpt>
      <trkpt lat="44.39431" lon="3.64833">
        <ele>1203</ele>
        <time>2009-07-10T07:53:47Z</time>
      </trkpt>
      <trkpt lat="44.39455" lon="3.64829">
        <ele>1200</ele>
        <time>2009-07-10T07:53:50Z</time>
      </trkpt>
      <trkpt lat="44.3948" lon="3.64824">
        <ele>1196</ele>
        <time>2009-07-10T07:53:53Z</time>
      </trkpt>
      <trkpt lat="44.39489" lon="3.64822">
        <ele>1196</ele>
        <time>2009-07-10T07:53:54Z</time>
      </trkpt>
      <trkpt lat="44.39544" lon="3.64807">
        <ele>1196</ele>
        <time>2009-07-10T07:54:01Z</time>
      </trkpt>
      <trkpt lat="44.39606" lon="3.64792">
        <ele>1197</ele>
        <time>2009-07-10T07:54:13Z</time>
      </trkpt>
      <trkpt lat="44.39626" lon="3.64793">
        <ele>1197</ele>
        <time>2009-07-10T07:54:17Z</time>
      </trkpt>
      <trkpt lat="44.39695" lon="3.64792">
        <ele>1198</ele>
        <time>2009-07-10T07:54:33Z</time>
      </trkpt>
      <trkpt lat="44.39736" lon="3.64785">
        <ele>1202</ele>
        <time>2009-07-10T07:54:46Z</time>
      </trkpt>
      <trkpt lat="44.3978" lon="3.64765">
        <ele>1202</ele>
        <time>2009-07-10T07:55:03Z</time>
      </trkpt>
      <trkpt lat="44.39813" lon="3.64743">
        <ele>1201</ele>
        <time>2009-07-10T07:55:17Z</time>
      </trkpt>
      <trkpt lat="44.39833" lon="3.6471">
        <ele>1201</ele>
        <time>2009-07-10T07:55:29Z</time>
      </trkpt>
      <trkpt lat="44.39835" lon="3.64705">
        <ele>1201</ele>
        <time>2009-07-10T07:55:40Z</time>
      </trkpt>
      <trkpt lat="44.39836" lon="3.64701">
        <ele>1199</ele>
        <time>2009-07-10T07:55:46Z</time>
      </trkpt>
      <trkpt lat="44.39835" lon="3.647">
        <ele>1199</ele>
        <time>2009-07-10T07:56:17Z</time>
      </trkpt>
      <trkpt lat="44.39835" lon="3.647">
        <ele>1202</ele>
        <time>2009-07-10T07:56:49Z</time>
      </trkpt>
      <trkpt lat="44.39838" lon="3.64698">
        <ele>1201</ele>
        <time>2009-07-10T07:56:57Z</time>
      </trkpt>
      <trkpt lat="44.39842" lon="3.64695">
        <ele>1198</ele>
        <time>2009-07-10T07:57:03Z</time>
      </trkpt>
      <trkpt lat="44.39847" lon="3.6469">
        <ele>1197</ele>
        <time>2009-07-10T07:57:05Z</time>
      </trkpt>
      <trkpt lat="44.39855" lon="3.64682">
        <ele>1194</ele>
        <time>2009-07-10T07:57:07Z</time>
      </trkpt>
      <trkpt lat="44.39859" lon="3.64677">
        <ele>1193</ele>
        <time>2009-07-10T07:57:08Z</time>
      </trkpt>
      <trkpt lat="44.39877" lon="3.64663">
        <ele>1188</ele>
        <time>2009-07-10T07:57:11Z</time>
      </trkpt>
      <trkpt lat="44.39914" lon="3.64638">
        <ele>1185</ele>
        <time>2009-07-10T07:57:16Z</time>
      </trkpt>
      <trkpt lat="44.39947" lon="3.64618">
        <ele>1188</ele>
        <time>2009-07-10T07:57:22Z</time>
      </trkpt>
      <trkpt lat="44.3995" lon="3.64617">
        <ele>1189</ele>
        <time>2009-07-10T07:57:30Z</time>
      </trkpt>
      <trkpt lat="44.39952" lon="3.64616">
        <ele>1189</ele>
        <time>2009-07-10T07:57:35Z</time>
      </trkpt>
      <trkpt lat="44.39955" lon="3.64619">
        <ele>1189</ele>
        <time>2009-07-10T07:57:42Z</time>
      </trkpt>
      <trkpt lat="44.39965" lon="3.64619">
        <ele>1190</ele>
        <time>2009-07-10T07:57:48Z</time>
      </trkpt>
      <trkpt lat="44.40021" lon="3.64621">
        <ele>1189</ele>
        <time>2009-07-10T07:58:06Z</time>
      </trkpt>
      <trkpt lat="44.40089" lon="3.6462">
        <ele>1189</ele>
        <time>2009-07-10T07:58:24Z</time>
      </trkpt>
      <trkpt lat="44.40136" lon="3.64607">
        <ele>1185</ele>
        <time>2009-07-10T07:58:35Z</time>
      </trkpt>
      <trkpt lat="44.40149" lon="3.646">
        <ele>1185</ele>
        <time>2009-07-10T07:58:38Z</time>
      </trkpt>
      <trkpt lat="44.4017" lon="3.64599">
        <ele>1183</ele>
        <time>2009-07-10T07:58:42Z</time>
      </trkpt>
      <trkpt lat="44.40188" lon="3.64603">
        <ele>1182</ele>
        <time>2009-07-10T07:58:45Z</time>
      </trkpt>
      <trkpt lat="44.40222" lon="3.64619">
        <ele>1182</ele>
        <time>2009-07-10T07:58:51Z</time>
      </trkpt>
      <trkpt lat="44.40254" lon="3.6461">
        <ele>1182</ele>
        <time>2009-07-10T07:59:00Z</time>
      </trkpt>
      <trkpt lat="44.40295" lon="3.64601">
        <ele>1185</ele>
        <time>2009-07-10T07:59:16Z</time>
      </trkpt>
      <trkpt lat="44.40316" lon="3.64614">
        <ele>1188</ele>
        <time>2009-07-10T07:59:29Z</time>
      </trkpt>
      <trkpt lat="44.40337" lon="3.64624">
        <ele>1191</ele>
        <time>2009-07-10T07:59:44Z</time>
      </trkpt>
      <trkpt lat="44.40355" lon="3.64629">
        <ele>1195</ele>
        <time>2009-07-10T07:59:57Z</time>
      </trkpt>
      <trkpt lat="44.40365" lon="3.64631">
        <ele>1197</ele>
        <time>2009-07-10T08:00:05Z</time>
      </trkpt>
      <trkpt lat="44.40381" lon="3.64635">
        <ele>1200</ele>
        <time>2009-07-10T08:00:17Z</time>
      </trkpt>
      <trkpt lat="44.40394" lon="3.64638">
        <ele>1202</ele>
        <time>2009-07-10T08:00:27Z</time>
      </trkpt>
      <trkpt lat="44.404" lon="3.6464">
        <ele>1203</ele>
        <time>2009-07-10T08:00:32Z</time>
      </trkpt>
      <trkpt lat="44.4041" lon="3.64644">
        <ele>1206</ele>
        <time>2009-07-10T08:00:40Z</time>
      </trkpt>
      <trkpt lat="44.4043" lon="3.64649">
        <ele>1208</ele>
        <time>2009-07-10T08:00:55Z</time>
      </trkpt>
      <trkpt lat="44.40446" lon="3.64655">
        <ele>1212</ele>
        <time>2009-07-10T08:01:09Z</time>
      </trkpt>
      <trkpt lat="44.4046" lon="3.6466">
        <ele>1215</ele>
        <time>2009-07-10T08:01:21Z</time>
      </trkpt>
      <trkpt lat="44.40484" lon="3.64674">
        <ele>1217</ele>
        <time>2009-07-10T08:01:39Z</time>
      </trkpt>
      <trkpt lat="44.40513" lon="3.64687">
        <ele>1220</ele>
        <time>2009-07-10T08:01:56Z</time>
      </trkpt>
      <trkpt lat="44.40514" lon="3.64687">
        <ele>1221</ele>
        <time>2009-07-10T08:01:57Z</time>
      </trkpt>
      <trkpt lat="44.40534" lon="3.6469">
        <ele>1224</ele>
        <time>2009-07-10T08:02:08Z</time>
      </trkpt>
      <trkpt lat="44.4057" lon="3.64699">
        <ele>1227</ele>
        <time>2009-07-10T08:02:27Z</time>
      </trkpt>
      <trkpt lat="44.40579" lon="3.64701">
        <ele>1229</ele>
        <time>2009-07-10T08:02:31Z</time>
      </trkpt>
      <trkpt lat="44.40619" lon="3.64713">
        <ele>1232</ele>
        <time>2009-07-10T08:02:50Z</time>
      </trkpt>
      <trkpt lat="44.40658" lon="3.64731">
        <ele>1233</ele>
        <time>2009-07-10T08:03:09Z</time>
      </trkpt>
      <trkpt lat="44.40697" lon="3.64755">
        <ele>1232</ele>
        <time>2009-07-10T08:03:24Z</time>
      </trkpt>
      <trkpt lat="44.40733" lon="3.64777">
        <ele>1232</ele>
        <time>2009-07-10T08:03:37Z</time>
      </trkpt>
      <trkpt lat="44.40755" lon="3.64791">
        <ele>1231</ele>
        <time>2009-07-10T08:03:49Z</time>
      </trkpt>
      <trkpt lat="44.40755" lon="3.64792">
        <ele>1231</ele>
        <time>2009-07-10T08:04:01Z</time>
      </trkpt>
      <trkpt lat="44.40758" lon="3.64789">
        <ele>1231</ele>
        <time>2009-07-10T08:04:37Z</time>
      </trkpt>
      <trkpt lat="44.40759" lon="3.64787">
        <ele>1230</ele>
        <time>2009-07-10T08:04:59Z</time>
      </trkpt>
      <trkpt lat="44.40759" lon="3.64785">
        <ele>1234</ele>
        <time>2009-07-10T08:06:04Z</time>
      </trkpt>
      <trkpt lat="44.40763" lon="3.64785">
        <ele>1232</ele>
        <time>2009-07-10T08:07:13Z</time>
      </trkpt>
      <trkpt lat="44.40765" lon="3.64782">
        <ele>1232</ele>
        <time>2009-07-10T08:07:16Z</time>
      </trkpt>
      <trkpt lat="44.40782" lon="3.6478">
        <ele>1232</ele>
        <time>2009-07-10T08:07:31Z</time>
      </trkpt>
      <trkpt lat="44.40814" lon="3.64788">
        <ele>1235</ele>
        <time>2009-07-10T08:07:47Z</time>
      </trkpt>
      <trkpt lat="44.40842" lon="3.64792">
        <ele>1237</ele>
        <time>2009-07-10T08:08:01Z</time>
      </trkpt>
      <trkpt lat="44.40867" lon="3.64787">
        <ele>1241</ele>
        <time>2009-07-10T08:08:16Z</time>
      </trkpt>
      <trkpt lat="44.40869" lon="3.64787">
        <ele>1241</ele>
        <time>2009-07-10T08:08:17Z</time>
      </trkpt>
      <trkpt lat="44.40889" lon="3.6478">
        <ele>1244</ele>
        <time>2009-07-10T08:08:31Z</time>
      </trkpt>
      <trkpt lat="44.40908" lon="3.64776">
        <ele>1245</ele>
        <time>2009-07-10T08:08:45Z</time>
      </trkpt>
      <trkpt lat="44.40917" lon="3.64767">
        <ele>1246</ele>
        <time>2009-07-10T08:08:52Z</time>
      </trkpt>
      <trkpt lat="44.4092" lon="3.64781">
        <ele>1247</ele>
        <time>2009-07-10T08:09:03Z</time>
      </trkpt>
      <trkpt lat="44.40895" lon="3.64802">
        <ele>1250</ele>
        <time>2009-07-10T08:09:17Z</time>
      </trkpt>
      <trkpt lat="44.40867" lon="3.64827">
        <ele>1251</ele>
        <time>2009-07-10T08:09:33Z</time>
      </trkpt>
      <trkpt lat="44.4085" lon="3.6486">
        <ele>1254</ele>
        <time>2009-07-10T08:09:47Z</time>
      </trkpt>
      <trkpt lat="44.40834" lon="3.64898">
        <ele>1257</ele>
        <time>2009-07-10T08:10:05Z</time>
      </trkpt>
      <trkpt lat="44.40825" lon="3.64922">
        <ele>1260</ele>
        <time>2009-07-10T08:10:17Z</time>
      </trkpt>
      <trkpt lat="44.40804" lon="3.6496">
        <ele>1262</ele>
        <time>2009-07-10T08:10:37Z</time>
      </trkpt>
      <trkpt lat="44.40777" lon="3.64999">
        <ele>1263</ele>
        <time>2009-07-10T08:10:56Z</time>
      </trkpt>
      <trkpt lat="44.40759" lon="3.65046">
        <ele>1265</ele>
        <time>2009-07-10T08:11:10Z</time>
      </trkpt>
      <trkpt lat="44.40742" lon="3.65082">
        <ele>1268</ele>
        <time>2009-07-10T08:11:22Z</time>
      </trkpt>
      <trkpt lat="44.4072" lon="3.65113">
        <ele>1268</ele>
        <time>2009-07-10T08:11:35Z</time>
      </trkpt>
      <trkpt lat="44.40727" lon="3.65126">
        <ele>1269</ele>
        <time>2009-07-10T08:11:42Z</time>
      </trkpt>
      <trkpt lat="44.40754" lon="3.65091">
        <ele>1270</ele>
        <time>2009-07-10T08:12:00Z</time>
      </trkpt>
      <trkpt lat="44.4078" lon="3.65063">
        <ele>1271</ele>
        <time>2009-07-10T08:12:16Z</time>
      </trkpt>
      <trkpt lat="44.40802" lon="3.65037">
        <ele>1271</ele>
        <time>2009-07-10T08:12:30Z</time>
      </trkpt>
      <trkpt lat="44.4081" lon="3.65032">
        <ele>1274</ele>
        <time>2009-07-10T08:12:34Z</time>
      </trkpt>
      <trkpt lat="44.40843" lon="3.65009">
        <ele>1277</ele>
        <time>2009-07-10T08:12:51Z</time>
      </trkpt>
      <trkpt lat="44.40884" lon="3.64983">
        <ele>1279</ele>
        <time>2009-07-10T08:13:10Z</time>
      </trkpt>
      <trkpt lat="44.40896" lon="3.64978">
        <ele>1279</ele>
        <time>2009-07-10T08:13:15Z</time>
      </trkpt>
      <trkpt lat="44.4094" lon="3.64947">
        <ele>1280</ele>
        <time>2009-07-10T08:13:35Z</time>
      </trkpt>
      <trkpt lat="44.40968" lon="3.64914">
        <ele>1283</ele>
        <time>2009-07-10T08:13:50Z</time>
      </trkpt>
      <trkpt lat="44.40996" lon="3.64889">
        <ele>1285</ele>
        <time>2009-07-10T08:14:06Z</time>
      </trkpt>
      <trkpt lat="44.41002" lon="3.64884">
        <ele>1287</ele>
        <time>2009-07-10T08:14:09Z</time>
      </trkpt>
      <trkpt lat="44.41023" lon="3.64866">
        <ele>1288</ele>
        <time>2009-07-10T08:14:24Z</time>
      </trkpt>
      <trkpt lat="44.41023" lon="3.64866">
        <ele>1288</ele>
        <time>2009-07-10T08:14:41Z</time>
      </trkpt>
      <trkpt lat="44.41032" lon="3.64862">
        <ele>1290</ele>
        <time>2009-07-10T08:15:08Z</time>
      </trkpt>
      <trkpt lat="44.41034" lon="3.64857">
        <ele>1289</ele>
        <time>2009-07-10T08:15:24Z</time>
      </trkpt>
      <trkpt lat="44.41033" lon="3.64852">
        <ele>1289</ele>
        <time>2009-07-10T08:18:50Z</time>
      </trkpt>
      <trkpt lat="44.41035" lon="3.64848">
        <ele>1290</ele>
        <time>2009-07-10T08:20:23Z</time>
      </trkpt>
      <trkpt lat="44.41043" lon="3.64844">
        <ele>1290</ele>
        <time>2009-07-10T08:20:36Z</time>
      </trkpt>
      <trkpt lat="44.41075" lon="3.64826">
        <ele>1292</ele>
        <time>2009-07-10T08:20:53Z</time>
      </trkpt>
      <trkpt lat="44.41099" lon="3.64818">
        <ele>1295</ele>
        <time>2009-07-10T08:21:06Z</time>
      </trkpt>
      <trkpt lat="44.41129" lon="3.64802">
        <ele>1298</ele>
        <time>2009-07-10T08:21:23Z</time>
      </trkpt>
      <trkpt lat="44.41163" lon="3.64785">
        <ele>1300</ele>
        <time>2009-07-10T08:21:40Z</time>
      </trkpt>
      <trkpt lat="44.41195" lon="3.64763">
        <ele>1301</ele>
        <time>2009-07-10T08:21:57Z</time>
      </trkpt>
      <trkpt lat="44.41227" lon="3.64737">
        <ele>1303</ele>
        <time>2009-07-10T08:22:15Z</time>
      </trkpt>
      <trkpt lat="44.41233" lon="3.64733">
        <ele>1304</ele>
        <time>2009-07-10T08:22:28Z</time>
      </trkpt>
      <trkpt lat="44.41231" lon="3.64732">
        <ele>1303</ele>
        <time>2009-07-10T08:22:50Z</time>
      </trkpt>
      <trkpt lat="44.41236" lon="3.6473">
        <ele>1304</ele>
        <time>2009-07-10T08:23:15Z</time>
      </trkpt>
      <trkpt lat="44.41243" lon="3.64727">
        <ele>1304</ele>
        <time>2009-07-10T08:23:30Z</time>
      </trkpt>
      <trkpt lat="44.41272" lon="3.64716">
        <ele>1306</ele>
        <time>2009-07-10T08:23:47Z</time>
      </trkpt>
      <trkpt lat="44.41297" lon="3.64706">
        <ele>1309</ele>
        <time>2009-07-10T08:24:02Z</time>
      </trkpt>
      <trkpt lat="44.41324" lon="3.64676">
        <ele>1309</ele>
        <time>2009-07-10T08:24:21Z</time>
      </trkpt>
      <trkpt lat="44.41354" lon="3.64639">
        <ele>1310</ele>
        <time>2009-07-10T08:24:40Z</time>
      </trkpt>
      <trkpt lat="44.41364" lon="3.6461">
        <ele>1313</ele>
        <time>2009-07-10T08:24:51Z</time>
      </trkpt>
      <trkpt lat="44.41365" lon="3.6456">
        <ele>1314</ele>
        <time>2009-07-10T08:25:08Z</time>
      </trkpt>
      <trkpt lat="44.41364" lon="3.64516">
        <ele>1317</ele>
        <time>2009-07-10T08:25:24Z</time>
      </trkpt>
      <trkpt lat="44.41364" lon="3.64475">
        <ele>1320</ele>
        <time>2009-07-10T08:25:41Z</time>
      </trkpt>
      <trkpt lat="44.41369" lon="3.64438">
        <ele>1322</ele>
        <time>2009-07-10T08:25:56Z</time>
      </trkpt>
      <trkpt lat="44.41386" lon="3.64398">
        <ele>1322</ele>
        <time>2009-07-10T08:26:16Z</time>
      </trkpt>
      <trkpt lat="44.41392" lon="3.64388">
        <ele>1325</ele>
        <time>2009-07-10T08:26:27Z</time>
      </trkpt>
      <trkpt lat="44.41393" lon="3.64387">
        <ele>1324</ele>
        <time>2009-07-10T08:27:02Z</time>
      </trkpt>
      <trkpt lat="44.41412" lon="3.64359">
        <ele>1324</ele>
        <time>2009-07-10T08:27:13Z</time>
      </trkpt>
      <trkpt lat="44.41455" lon="3.64312">
        <ele>1325</ele>
        <time>2009-07-10T08:27:31Z</time>
      </trkpt>
      <trkpt lat="44.41508" lon="3.64282">
        <ele>1326</ele>
        <time>2009-07-10T08:27:50Z</time>
      </trkpt>
      <trkpt lat="44.41555" lon="3.64253">
        <ele>1329</ele>
        <time>2009-07-10T08:28:07Z</time>
      </trkpt>
      <trkpt lat="44.41598" lon="3.64236">
        <ele>1331</ele>
        <time>2009-07-10T08:28:23Z</time>
      </trkpt>
      <trkpt lat="44.41628" lon="3.64224">
        <ele>1330</ele>
        <time>2009-07-10T08:28:35Z</time>
      </trkpt>
      <trkpt lat="44.41641" lon="3.6422">
        <ele>1331</ele>
        <time>2009-07-10T08:28:48Z</time>
      </trkpt>
      <trkpt lat="44.41651" lon="3.64214">
        <ele>1332</ele>
        <time>2009-07-10T08:29:24Z</time>
      </trkpt>
      <trkpt lat="44.41678" lon="3.64202">
        <ele>1334</ele>
        <time>2009-07-10T08:29:35Z</time>
      </trkpt>
      <trkpt lat="44.41707" lon="3.64189">
        <ele>1338</ele>
        <time>2009-07-10T08:29:48Z</time>
      </trkpt>
      <trkpt lat="44.41753" lon="3.64169">
        <ele>1339</ele>
        <time>2009-07-10T08:30:08Z</time>
      </trkpt>
      <trkpt lat="44.41786" lon="3.64154">
        <ele>1342</ele>
        <time>2009-07-10T08:30:24Z</time>
      </trkpt>
      <trkpt lat="44.41826" lon="3.64127">
        <ele>1344</ele>
        <time>2009-07-10T08:30:43Z</time>
      </trkpt>
      <trkpt lat="44.41852" lon="3.64113">
        <ele>1346</ele>
        <time>2009-07-10T08:30:57Z</time>
      </trkpt>
      <trkpt lat="44.41881" lon="3.64099">
        <ele>1349</ele>
        <time>2009-07-10T08:31:11Z</time>
      </trkpt>
      <trkpt lat="44.41914" lon="3.64079">
        <ele>1349</ele>
        <time>2009-07-10T08:31:25Z</time>
      </trkpt>
      <trkpt lat="44.41916" lon="3.64078">
        <ele>1349</ele>
        <time>2009-07-10T08:31:26Z</time>
      </trkpt>
      <trkpt lat="44.41961" lon="3.64053">
        <ele>1352</ele>
        <time>2009-07-10T08:31:44Z</time>
      </trkpt>
      <trkpt lat="44.41975" lon="3.64046">
        <ele>1355</ele>
        <time>2009-07-10T08:31:51Z</time>
      </trkpt>
      <trkpt lat="44.41977" lon="3.64045">
        <ele>1356</ele>
        <time>2009-07-10T08:31:52Z</time>
      </trkpt>
      <trkpt lat="44.4201" lon="3.64034">
        <ele>1357</ele>
        <time>2009-07-10T08:32:09Z</time>
      </trkpt>
      <trkpt lat="44.42021" lon="3.64032">
        <ele>1358</ele>
        <time>2009-07-10T08:32:16Z</time>
      </trkpt>
      <trkpt lat="44.42048" lon="3.64019">
        <ele>1358</ele>
        <time>2009-07-10T08:32:29Z</time>
      </trkpt>
      <trkpt lat="44.42081" lon="3.63998">
        <ele>1361</ele>
        <time>2009-07-10T08:32:46Z</time>
      </trkpt>
      <trkpt lat="44.42083" lon="3.63998">
        <ele>1361</ele>
        <time>2009-07-10T08:32:47Z</time>
      </trkpt>
      <trkpt lat="44.42114" lon="3.63992">
        <ele>1363</ele>
        <time>2009-07-10T08:33:02Z</time>
      </trkpt>
      <trkpt lat="44.42151" lon="3.63986">
        <ele>1365</ele>
        <time>2009-07-10T08:33:20Z</time>
      </trkpt>
      <trkpt lat="44.4219" lon="3.63984">
        <ele>1367</ele>
        <time>2009-07-10T08:33:38Z</time>
      </trkpt>
      <trkpt lat="44.42228" lon="3.63986">
        <ele>1368</ele>
        <time>2009-07-10T08:33:55Z</time>
      </trkpt>
      <trkpt lat="44.42275" lon="3.63998">
        <ele>1369</ele>
        <time>2009-07-10T08:34:15Z</time>
      </trkpt>
      <trkpt lat="44.42317" lon="3.6403">
        <ele>1371</ele>
        <time>2009-07-10T08:34:35Z</time>
      </trkpt>
      <trkpt lat="44.42349" lon="3.64063">
        <ele>1371</ele>
        <time>2009-07-10T08:34:50Z</time>
      </trkpt>
      <trkpt lat="44.42376" lon="3.64092">
        <ele>1371</ele>
        <time>2009-07-10T08:35:01Z</time>
      </trkpt>
      <trkpt lat="44.42411" lon="3.64141">
        <ele>1372</ele>
        <time>2009-07-10T08:35:17Z</time>
      </trkpt>
      <trkpt lat="44.42431" lon="3.64183">
        <ele>1373</ele>
        <time>2009-07-10T08:35:29Z</time>
      </trkpt>
      <trkpt lat="44.42442" lon="3.64211">
        <ele>1375</ele>
        <time>2009-07-10T08:35:37Z</time>
      </trkpt>
      <trkpt lat="44.42449" lon="3.64234">
        <ele>1375</ele>
        <time>2009-07-10T08:35:43Z</time>
      </trkpt>
      <trkpt lat="44.42463" lon="3.64293">
        <ele>1378</ele>
        <time>2009-07-10T08:35:59Z</time>
      </trkpt>
      <trkpt lat="44.4247" lon="3.64349">
        <ele>1378</ele>
        <time>2009-07-10T08:36:14Z</time>
      </trkpt>
      <trkpt lat="44.42469" lon="3.6441">
        <ele>1380</ele>
        <time>2009-07-10T08:36:31Z</time>
      </trkpt>
      <trkpt lat="44.42463" lon="3.64472">
        <ele>1383</ele>
        <time>2009-07-10T08:36:49Z</time>
      </trkpt>
      <trkpt lat="44.4246" lon="3.64527">
        <ele>1384</ele>
        <time>2009-07-10T08:37:05Z</time>
      </trkpt>
      <trkpt lat="44.42451" lon="3.64589">
        <ele>1387</ele>
        <time>2009-07-10T08:37:24Z</time>
      </trkpt>
      <trkpt lat="44.4244" lon="3.64637">
        <ele>1390</ele>
        <time>2009-07-10T08:37:39Z</time>
      </trkpt>
      <trkpt lat="44.4243" lon="3.64683">
        <ele>1393</ele>
        <time>2009-07-10T08:37:53Z</time>
      </trkpt>
      <trkpt lat="44.42417" lon="3.64729">
        <ele>1395</ele>
        <time>2009-07-10T08:38:08Z</time>
      </trkpt>
      <trkpt lat="44.424" lon="3.64773">
        <ele>1398</ele>
        <time>2009-07-10T08:38:22Z</time>
      </trkpt>
      <trkpt lat="44.42381" lon="3.64834">
        <ele>1400</ele>
        <time>2009-07-10T08:38:39Z</time>
      </trkpt>
      <trkpt lat="44.42367" lon="3.64876">
        <ele>1398</ele>
        <time>2009-07-10T08:38:51Z</time>
      </trkpt>
      <trkpt lat="44.42348" lon="3.64937">
        <ele>1399</ele>
        <time>2009-07-10T08:39:06Z</time>
      </trkpt>
      <trkpt lat="44.42328" lon="3.65015">
        <ele>1397</ele>
        <time>2009-07-10T08:39:25Z</time>
      </trkpt>
      <trkpt lat="44.423" lon="3.65098">
        <ele>1395</ele>
        <time>2009-07-10T08:39:42Z</time>
      </trkpt>
      <trkpt lat="44.42283" lon="3.65186">
        <ele>1397</ele>
        <time>2009-07-10T08:40:00Z</time>
      </trkpt>
      <trkpt lat="44.4228" lon="3.65209">
        <ele>1398</ele>
        <time>2009-07-10T08:40:05Z</time>
      </trkpt>
      <trkpt lat="44.4228" lon="3.65248">
        <ele>1399</ele>
        <time>2009-07-10T08:40:15Z</time>
      </trkpt>
      <trkpt lat="44.42285" lon="3.65256">
        <ele>1398</ele>
        <time>2009-07-10T08:40:27Z</time>
      </trkpt>
      <trkpt lat="44.42283" lon="3.65255">
        <ele>1401</ele>
        <time>2009-07-10T08:40:46Z</time>
      </trkpt>
      <trkpt lat="44.42283" lon="3.65255">
        <ele>1399</ele>
        <time>2009-07-10T08:40:47Z</time>
      </trkpt>
      <trkpt lat="44.42284" lon="3.65253">
        <ele>1399</ele>
        <time>2009-07-10T08:41:19Z</time>
      </trkpt>
      <trkpt lat="44.42284" lon="3.6526">
        <ele>1399</ele>
        <time>2009-07-10T08:42:05Z</time>
      </trkpt>
      <trkpt lat="44.423" lon="3.65294">
        <ele>1397</ele>
        <time>2009-07-10T08:42:16Z</time>
      </trkpt>
      <trkpt lat="44.42302" lon="3.65298">
        <ele>1396</ele>
        <time>2009-07-10T08:42:17Z</time>
      </trkpt>
      <trkpt lat="44.4231" lon="3.65316">
        <ele>1394</ele>
        <time>2009-07-10T08:42:21Z</time>
      </trkpt>
      <trkpt lat="44.42323" lon="3.65341">
        <ele>1393</ele>
        <time>2009-07-10T08:42:27Z</time>
      </trkpt>
      <trkpt lat="44.42334" lon="3.65343">
        <ele>1392</ele>
        <time>2009-07-10T08:42:31Z</time>
      </trkpt>
      <trkpt lat="44.42345" lon="3.65336">
        <ele>1390</ele>
        <time>2009-07-10T08:42:34Z</time>
      </trkpt>
      <trkpt lat="44.42351" lon="3.65328">
        <ele>1389</ele>
        <time>2009-07-10T08:42:36Z</time>
      </trkpt>
      <trkpt lat="44.42368" lon="3.65275">
        <ele>1386</ele>
        <time>2009-07-10T08:42:43Z</time>
      </trkpt>
      <trkpt lat="44.42371" lon="3.65267">
        <ele>1386</ele>
        <time>2009-07-10T08:42:44Z</time>
      </trkpt>
      <trkpt lat="44.42401" lon="3.65184">
        <ele>1382</ele>
        <time>2009-07-10T08:42:54Z</time>
      </trkpt>
      <trkpt lat="44.42404" lon="3.65176">
        <ele>1382</ele>
        <time>2009-07-10T08:42:55Z</time>
      </trkpt>
      <trkpt lat="44.42427" lon="3.65109">
        <ele>1378</ele>
        <time>2009-07-10T08:43:03Z</time>
      </trkpt>
      <trkpt lat="44.4243" lon="3.65102">
        <ele>1378</ele>
        <time>2009-07-10T08:43:04Z</time>
      </trkpt>
      <trkpt lat="44.42446" lon="3.65056">
        <ele>1381</ele>
        <time>2009-07-10T08:43:12Z</time>
      </trkpt>
      <trkpt lat="44.42446" lon="3.65055">
        <ele>1383</ele>
        <time>2009-07-10T08:43:45Z</time>
      </trkpt>
      <trkpt lat="44.42446" lon="3.65056">
        <ele>1379</ele>
        <time>2009-07-10T08:44:15Z</time>
      </trkpt>
      <trkpt lat="44.42445" lon="3.65056">
        <ele>1382</ele>
        <time>2009-07-10T08:44:17Z</time>
      </trkpt>
      <trkpt lat="44.42445" lon="3.65056">
        <ele>1384</ele>
        <time>2009-07-10T08:44:20Z</time>
      </trkpt>
      <trkpt lat="44.42445" lon="3.65057">
        <ele>1380</ele>
        <time>2009-07-10T08:44:23Z</time>
      </trkpt>
      <trkpt lat="44.42445" lon="3.65057">
        <ele>1380</ele>
        <time>2009-07-10T08:44:24Z</time>
      </trkpt>
      <trkpt lat="44.42446" lon="3.65054">
        <ele>1381</ele>
        <time>2009-07-10T08:44:58Z</time>
      </trkpt>
      <trkpt lat="44.42454" lon="3.65033">
        <ele>1379</ele>
        <time>2009-07-10T08:45:14Z</time>
      </trkpt>
      <trkpt lat="44.42474" lon="3.64987">
        <ele>1376</ele>
        <time>2009-07-10T08:45:26Z</time>
      </trkpt>
      <trkpt lat="44.42476" lon="3.64983">
        <ele>1376</ele>
        <time>2009-07-10T08:45:27Z</time>
      </trkpt>
      <trkpt lat="44.42503" lon="3.64942">
        <ele>1373</ele>
        <time>2009-07-10T08:45:37Z</time>
      </trkpt>
      <trkpt lat="44.42528" lon="3.64895">
        <ele>1369</ele>
        <time>2009-07-10T08:45:46Z</time>
      </trkpt>
      <trkpt lat="44.42531" lon="3.64888">
        <ele>1369</ele>
        <time>2009-07-10T08:45:47Z</time>
      </trkpt>
      <trkpt lat="44.42556" lon="3.6483">
        <ele>1366</ele>
        <time>2009-07-10T08:45:55Z</time>
      </trkpt>
      <trkpt lat="44.42573" lon="3.6479">
        <ele>1363</ele>
        <time>2009-07-10T08:46:00Z</time>
      </trkpt>
      <trkpt lat="44.42584" lon="3.64765">
        <ele>1360</ele>
        <time>2009-07-10T08:46:03Z</time>
      </trkpt>
      <trkpt lat="44.42603" lon="3.64722">
        <ele>1357</ele>
        <time>2009-07-10T08:46:08Z</time>
      </trkpt>
      <trkpt lat="44.42613" lon="3.64692">
        <ele>1352</ele>
        <time>2009-07-10T08:46:11Z</time>
      </trkpt>
      <trkpt lat="44.42617" lon="3.64683">
        <ele>1354</ele>
        <time>2009-07-10T08:46:12Z</time>
      </trkpt>
      <trkpt lat="44.42635" lon="3.6464">
        <ele>1350</ele>
        <time>2009-07-10T08:46:16Z</time>
      </trkpt>
      <trkpt lat="44.42658" lon="3.64586">
        <ele>1346</ele>
        <time>2009-07-10T08:46:21Z</time>
      </trkpt>
      <trkpt lat="44.42668" lon="3.64564">
        <ele>1345</ele>
        <time>2009-07-10T08:46:23Z</time>
      </trkpt>
      <trkpt lat="44.42684" lon="3.64521">
        <ele>1343</ele>
        <time>2009-07-10T08:46:27Z</time>
      </trkpt>
      <trkpt lat="44.42697" lon="3.64482">
        <ele>1340</ele>
        <time>2009-07-10T08:46:31Z</time>
      </trkpt>
      <trkpt lat="44.42712" lon="3.64434">
        <ele>1336</ele>
        <time>2009-07-10T08:46:36Z</time>
      </trkpt>
      <trkpt lat="44.42726" lon="3.64397">
        <ele>1333</ele>
        <time>2009-07-10T08:46:40Z</time>
      </trkpt>
      <trkpt lat="44.42729" lon="3.64387">
        <ele>1334</ele>
        <time>2009-07-10T08:46:41Z</time>
      </trkpt>
      <trkpt lat="44.42739" lon="3.64349">
        <ele>1333</ele>
        <time>2009-07-10T08:46:49Z</time>
      </trkpt>
      <trkpt lat="44.42742" lon="3.64337">
        <ele>1332</ele>
        <time>2009-07-10T08:46:58Z</time>
      </trkpt>
      <trkpt lat="44.42745" lon="3.64322">
        <ele>1331</ele>
        <time>2009-07-10T08:47:39Z</time>
      </trkpt>
      <trkpt lat="44.42748" lon="3.64306">
        <ele>1329</ele>
        <time>2009-07-10T08:47:42Z</time>
      </trkpt>
      <trkpt lat="44.42755" lon="3.6426">
        <ele>1325</ele>
        <time>2009-07-10T08:47:49Z</time>
      </trkpt>
      <trkpt lat="44.42765" lon="3.64232">
        <ele>1323</ele>
        <time>2009-07-10T08:47:53Z</time>
      </trkpt>
      <trkpt lat="44.42769" lon="3.64204">
        <ele>1321</ele>
        <time>2009-07-10T08:47:57Z</time>
      </trkpt>
      <trkpt lat="44.42768" lon="3.64173">
        <ele>1318</ele>
        <time>2009-07-10T08:48:01Z</time>
      </trkpt>
      <trkpt lat="44.42767" lon="3.64165">
        <ele>1317</ele>
        <time>2009-07-10T08:48:02Z</time>
      </trkpt>
      <trkpt lat="44.42761" lon="3.64109">
        <ele>1315</ele>
        <time>2009-07-10T08:48:08Z</time>
      </trkpt>
      <trkpt lat="44.42749" lon="3.64057">
        <ele>1312</ele>
        <time>2009-07-10T08:48:13Z</time>
      </trkpt>
      <trkpt lat="44.42731" lon="3.64022">
        <ele>1311</ele>
        <time>2009-07-10T08:48:18Z</time>
      </trkpt>
      <trkpt lat="44.42672" lon="3.63958">
        <ele>1311</ele>
        <time>2009-07-10T08:48:32Z</time>
      </trkpt>
      <trkpt lat="44.42658" lon="3.6394">
        <ele>1311</ele>
        <time>2009-07-10T08:48:37Z</time>
      </trkpt>
      <trkpt lat="44.4265" lon="3.63925">
        <ele>1310</ele>
        <time>2009-07-10T08:48:40Z</time>
      </trkpt>
      <trkpt lat="44.42642" lon="3.63903">
        <ele>1306</ele>
        <time>2009-07-10T08:48:43Z</time>
      </trkpt>
      <trkpt lat="44.4264" lon="3.63894">
        <ele>1305</ele>
        <time>2009-07-10T08:48:44Z</time>
      </trkpt>
      <trkpt lat="44.42636" lon="3.63843">
        <ele>1303</ele>
        <time>2009-07-10T08:48:49Z</time>
      </trkpt>
      <trkpt lat="44.42629" lon="3.63813">
        <ele>1298</ele>
        <time>2009-07-10T08:48:53Z</time>
      </trkpt>
      <trkpt lat="44.42615" lon="3.6378">
        <ele>1295</ele>
        <time>2009-07-10T08:48:57Z</time>
      </trkpt>
      <trkpt lat="44.42611" lon="3.63758">
        <ele>1293</ele>
        <time>2009-07-10T08:49:00Z</time>
      </trkpt>
      <trkpt lat="44.42606" lon="3.63723">
        <ele>1287</ele>
        <time>2009-07-10T08:49:04Z</time>
      </trkpt>
      <trkpt lat="44.426" lon="3.63694">
        <ele>1284</ele>
        <time>2009-07-10T08:49:07Z</time>
      </trkpt>
      <trkpt lat="44.42598" lon="3.63685">
        <ele>1284</ele>
        <time>2009-07-10T08:49:08Z</time>
      </trkpt>
      <trkpt lat="44.42596" lon="3.6366">
        <ele>1280</ele>
        <time>2009-07-10T08:49:11Z</time>
      </trkpt>
      <trkpt lat="44.42595" lon="3.63651">
        <ele>1280</ele>
        <time>2009-07-10T08:49:12Z</time>
      </trkpt>
      <trkpt lat="44.426" lon="3.63619">
        <ele>1279</ele>
        <time>2009-07-10T08:49:16Z</time>
      </trkpt>
      <trkpt lat="44.42614" lon="3.63571">
        <ele>1283</ele>
        <time>2009-07-10T08:49:26Z</time>
      </trkpt>
      <trkpt lat="44.42615" lon="3.63568">
        <ele>1282</ele>
        <time>2009-07-10T08:49:27Z</time>
      </trkpt>
      <trkpt lat="44.42621" lon="3.63541">
        <ele>1284</ele>
        <time>2009-07-10T08:49:39Z</time>
      </trkpt>
      <trkpt lat="44.42629" lon="3.63537">
        <ele>1286</ele>
        <time>2009-07-10T08:49:44Z</time>
      </trkpt>
      <trkpt lat="44.42649" lon="3.63549">
        <ele>1289</ele>
        <time>2009-07-10T08:49:59Z</time>
      </trkpt>
      <trkpt lat="44.4265" lon="3.63551">
        <ele>1293</ele>
        <time>2009-07-10T08:50:33Z</time>
      </trkpt>
      <trkpt lat="44.4265" lon="3.63551">
        <ele>1290</ele>
        <time>2009-07-10T08:50:34Z</time>
      </trkpt>
      <trkpt lat="44.4265" lon="3.63551">
        <ele>1290</ele>
        <time>2009-07-10T08:50:41Z</time>
      </trkpt>
      <trkpt lat="44.42651" lon="3.63549">
        <ele>1289</ele>
        <time>2009-07-10T08:51:39Z</time>
      </trkpt>
      <trkpt lat="44.42651" lon="3.63549">
        <ele>1291</ele>
        <time>2009-07-10T08:51:49Z</time>
      </trkpt>
      <trkpt lat="44.42651" lon="3.63549">
        <ele>1288</ele>
        <time>2009-07-10T08:52:40Z</time>
      </trkpt>
      <trkpt lat="44.42651" lon="3.63548">
        <ele>1290</ele>
        <time>2009-07-10T08:52:42Z</time>
      </trkpt>
      <trkpt lat="44.42652" lon="3.63548">
        <ele>1291</ele>
        <time>2009-07-10T08:52:57Z</time>
      </trkpt>
      <trkpt lat="44.4267" lon="3.63549">
        <ele>1292</ele>
        <time>2009-07-10T08:53:13Z</time>
      </trkpt>
      <trkpt lat="44.42676" lon="3.63557">
        <ele>1295</ele>
        <time>2009-07-10T08:53:19Z</time>
      </trkpt>
      <trkpt lat="44.42676" lon="3.63559">
        <ele>1295</ele>
        <time>2009-07-10T08:53:20Z</time>
      </trkpt>
      <trkpt lat="44.42676" lon="3.63563">
        <ele>1295</ele>
        <time>2009-07-10T08:53:23Z</time>
      </trkpt>
      <trkpt lat="44.42682" lon="3.63566">
        <ele>1296</ele>
        <time>2009-07-10T08:53:37Z</time>
      </trkpt>
      <trkpt lat="44.42682" lon="3.63566">
        <ele>1293</ele>
        <time>2009-07-10T08:53:57Z</time>
      </trkpt>
      <trkpt lat="44.42682" lon="3.63565">
        <ele>1293</ele>
        <time>2009-07-10T08:53:58Z</time>
      </trkpt>
      <trkpt lat="44.42682" lon="3.63565">
        <ele>1296</ele>
        <time>2009-07-10T08:53:59Z</time>
      </trkpt>
      <trkpt lat="44.42682" lon="3.63565">
        <ele>1296</ele>
        <time>2009-07-10T08:54:00Z</time>
      </trkpt>
      <trkpt lat="44.42681" lon="3.63566">
        <ele>1295</ele>
        <time>2009-07-10T08:54:17Z</time>
      </trkpt>
      <trkpt lat="44.4269" lon="3.63589">
        <ele>1298</ele>
        <time>2009-07-10T08:54:31Z</time>
      </trkpt>
      <trkpt lat="44.42695" lon="3.63612">
        <ele>1301</ele>
        <time>2009-07-10T08:54:42Z</time>
      </trkpt>
      <trkpt lat="44.42697" lon="3.63643">
        <ele>1302</ele>
        <time>2009-07-10T08:54:56Z</time>
      </trkpt>
      <trkpt lat="44.42694" lon="3.63682">
        <ele>1305</ele>
        <time>2009-07-10T08:55:14Z</time>
      </trkpt>
      <trkpt lat="44.4269" lon="3.63698">
        <ele>1307</ele>
        <time>2009-07-10T08:55:22Z</time>
      </trkpt>
      <trkpt lat="44.42686" lon="3.63732">
        <ele>1309</ele>
        <time>2009-07-10T08:55:39Z</time>
      </trkpt>
      <trkpt lat="44.42686" lon="3.63733">
        <ele>1312</ele>
        <time>2009-07-10T08:55:48Z</time>
      </trkpt>
      <trkpt lat="44.42686" lon="3.63733">
        <ele>1305</ele>
        <time>2009-07-10T08:55:49Z</time>
      </trkpt>
      <trkpt lat="44.42686" lon="3.63733">
        <ele>1312</ele>
        <time>2009-07-10T08:55:50Z</time>
      </trkpt>
      <trkpt lat="44.42686" lon="3.63733">
        <ele>1307</ele>
        <time>2009-07-10T08:55:53Z</time>
      </trkpt>
      <trkpt lat="44.42686" lon="3.63733">
        <ele>1310</ele>
        <time>2009-07-10T08:55:54Z</time>
      </trkpt>
      <trkpt lat="44.42686" lon="3.63733">
        <ele>1307</ele>
        <time>2009-07-10T08:55:56Z</time>
      </trkpt>
      <trkpt lat="44.42686" lon="3.63733">
        <ele>1310</ele>
        <time>2009-07-10T08:55:57Z</time>
      </trkpt>
      <trkpt lat="44.42686" lon="3.63733">
        <ele>1307</ele>
        <time>2009-07-10T08:55:58Z</time>
      </trkpt>
      <trkpt lat="44.42686" lon="3.63733">
        <ele>1312</ele>
        <time>2009-07-10T08:55:59Z</time>
      </trkpt>
      <trkpt lat="44.42686" lon="3.63733">
        <ele>1309</ele>
        <time>2009-07-10T08:56:01Z</time>
      </trkpt>
      <trkpt lat="44.42687" lon="3.63749">
        <ele>1310</ele>
        <time>2009-07-10T08:56:16Z</time>
      </trkpt>
      <trkpt lat="44.42691" lon="3.63783">
        <ele>1310</ele>
        <time>2009-07-10T08:56:29Z</time>
      </trkpt>
      <trkpt lat="44.42711" lon="3.63857">
        <ele>1313</ele>
        <time>2009-07-10T08:56:49Z</time>
      </trkpt>
      <trkpt lat="44.42729" lon="3.63904">
        <ele>1316</ele>
        <time>2009-07-10T08:57:07Z</time>
      </trkpt>
      <trkpt lat="44.42749" lon="3.63936">
        <ele>1318</ele>
        <time>2009-07-10T08:57:21Z</time>
      </trkpt>
      <trkpt lat="44.4278" lon="3.63967">
        <ele>1319</ele>
        <time>2009-07-10T08:57:37Z</time>
      </trkpt>
      <trkpt lat="44.42818" lon="3.63998">
        <ele>1320</ele>
        <time>2009-07-10T08:57:53Z</time>
      </trkpt>
      <trkpt lat="44.42842" lon="3.64019">
        <ele>1323</ele>
        <time>2009-07-10T08:58:05Z</time>
      </trkpt>
      <trkpt lat="44.42871" lon="3.64045">
        <ele>1325</ele>
        <time>2009-07-10T08:58:20Z</time>
      </trkpt>
      <trkpt lat="44.42906" lon="3.64078">
        <ele>1328</ele>
        <time>2009-07-10T08:58:40Z</time>
      </trkpt>
      <trkpt lat="44.4291" lon="3.64085">
        <ele>1328</ele>
        <time>2009-07-10T08:58:55Z</time>
      </trkpt>
      <trkpt lat="44.42913" lon="3.64091">
        <ele>1327</ele>
        <time>2009-07-10T08:59:07Z</time>
      </trkpt>
      <trkpt lat="44.42916" lon="3.6409">
        <ele>1328</ele>
        <time>2009-07-10T08:59:13Z</time>
      </trkpt>
      <trkpt lat="44.42934" lon="3.64098">
        <ele>1330</ele>
        <time>2009-07-10T08:59:23Z</time>
      </trkpt>
      <trkpt lat="44.42966" lon="3.6411">
        <ele>1333</ele>
        <time>2009-07-10T08:59:40Z</time>
      </trkpt>
      <trkpt lat="44.42991" lon="3.641">
        <ele>1336</ele>
        <time>2009-07-10T08:59:55Z</time>
      </trkpt>
      <trkpt lat="44.42997" lon="3.64097">
        <ele>1335</ele>
        <time>2009-07-10T09:00:08Z</time>
      </trkpt>
      <trkpt lat="44.42996" lon="3.64098">
        <ele>1335</ele>
        <time>2009-07-10T09:00:29Z</time>
      </trkpt>
      <trkpt lat="44.42996" lon="3.64098">
        <ele>1336</ele>
        <time>2009-07-10T09:00:30Z</time>
      </trkpt>
      <trkpt lat="44.43001" lon="3.64111">
        <ele>1334</ele>
        <time>2009-07-10T09:00:45Z</time>
      </trkpt>
      <trkpt lat="44.43002" lon="3.64115">
        <ele>1335</ele>
        <time>2009-07-10T09:00:49Z</time>
      </trkpt>
      <trkpt lat="44.43008" lon="3.64118">
        <ele>1337</ele>
        <time>2009-07-10T09:01:01Z</time>
      </trkpt>
      <trkpt lat="44.43024" lon="3.6412">
        <ele>1338</ele>
        <time>2009-07-10T09:01:13Z</time>
      </trkpt>
      <trkpt lat="44.43036" lon="3.64118">
        <ele>1339</ele>
        <time>2009-07-10T09:01:24Z</time>
      </trkpt>
      <trkpt lat="44.43039" lon="3.64122">
        <ele>1341</ele>
        <time>2009-07-10T09:01:28Z</time>
      </trkpt>
      <trkpt lat="44.43041" lon="3.64128">
        <ele>1340</ele>
        <time>2009-07-10T09:01:32Z</time>
      </trkpt>
      <trkpt lat="44.43049" lon="3.64128">
        <ele>1341</ele>
        <time>2009-07-10T09:01:39Z</time>
      </trkpt>
      <trkpt lat="44.43053" lon="3.6413">
        <ele>1341</ele>
        <time>2009-07-10T09:01:42Z</time>
      </trkpt>
      <trkpt lat="44.43058" lon="3.64136">
        <ele>1342</ele>
        <time>2009-07-10T09:01:49Z</time>
      </trkpt>
      <trkpt lat="44.43061" lon="3.64142">
        <ele>1343</ele>
        <time>2009-07-10T09:01:54Z</time>
      </trkpt>
      <trkpt lat="44.43063" lon="3.64146">
        <ele>1345</ele>
        <time>2009-07-10T09:01:57Z</time>
      </trkpt>
      <trkpt lat="44.43064" lon="3.64171">
        <ele>1345</ele>
        <time>2009-07-10T09:02:14Z</time>
      </trkpt>
      <trkpt lat="44.43064" lon="3.64173">
        <ele>1345</ele>
        <time>2009-07-10T09:02:15Z</time>
      </trkpt>
      <trkpt lat="44.43065" lon="3.64187">
        <ele>1346</ele>
        <time>2009-07-10T09:02:29Z</time>
      </trkpt>
      <trkpt lat="44.43068" lon="3.64208">
        <ele>1350</ele>
        <time>2009-07-10T09:02:42Z</time>
      </trkpt>
      <trkpt lat="44.43073" lon="3.64216">
        <ele>1350</ele>
        <time>2009-07-10T09:02:48Z</time>
      </trkpt>
      <trkpt lat="44.43083" lon="3.64224">
        <ele>1352</ele>
        <time>2009-07-10T09:02:57Z</time>
      </trkpt>
      <trkpt lat="44.43099" lon="3.64237">
        <ele>1355</ele>
        <time>2009-07-10T09:03:12Z</time>
      </trkpt>
      <trkpt lat="44.43107" lon="3.64247">
        <ele>1356</ele>
        <time>2009-07-10T09:03:20Z</time>
      </trkpt>
      <trkpt lat="44.43124" lon="3.64262">
        <ele>1358</ele>
        <time>2009-07-10T09:03:37Z</time>
      </trkpt>
      <trkpt lat="44.43129" lon="3.64264">
        <ele>1360</ele>
        <time>2009-07-10T09:03:41Z</time>
      </trkpt>
      <trkpt lat="44.43135" lon="3.64275">
        <ele>1362</ele>
        <time>2009-07-10T09:03:49Z</time>
      </trkpt>
      <trkpt lat="44.43137" lon="3.6428">
        <ele>1362</ele>
        <time>2009-07-10T09:03:59Z</time>
      </trkpt>
      <trkpt lat="44.43142" lon="3.64278">
        <ele>1363</ele>
        <time>2009-07-10T09:04:06Z</time>
      </trkpt>
      <trkpt lat="44.43154" lon="3.64278">
        <ele>1366</ele>
        <time>2009-07-10T09:04:23Z</time>
      </trkpt>
      <trkpt lat="44.43156" lon="3.64281">
        <ele>1365</ele>
        <time>2009-07-10T09:04:30Z</time>
      </trkpt>
      <trkpt lat="44.43165" lon="3.64292">
        <ele>1367</ele>
        <time>2009-07-10T09:04:44Z</time>
      </trkpt>
      <trkpt lat="44.43173" lon="3.64295">
        <ele>1369</ele>
        <time>2009-07-10T09:04:56Z</time>
      </trkpt>
      <trkpt lat="44.43175" lon="3.64294">
        <ele>1368</ele>
        <time>2009-07-10T09:05:15Z</time>
      </trkpt>
      <trkpt lat="44.43174" lon="3.64296">
        <ele>1372</ele>
        <time>2009-07-10T09:05:57Z</time>
      </trkpt>
      <trkpt lat="44.43174" lon="3.64295">
        <ele>1372</ele>
        <time>2009-07-10T09:05:58Z</time>
      </trkpt>
      <trkpt lat="44.43179" lon="3.64296">
        <ele>1370</ele>
        <time>2009-07-10T09:06:04Z</time>
      </trkpt>
      <trkpt lat="44.43181" lon="3.64295">
        <ele>1371</ele>
        <time>2009-07-10T09:07:23Z</time>
      </trkpt>
      <trkpt lat="44.43186" lon="3.64302">
        <ele>1372</ele>
        <time>2009-07-10T09:07:37Z</time>
      </trkpt>
      <trkpt lat="44.43192" lon="3.64311">
        <ele>1374</ele>
        <time>2009-07-10T09:07:49Z</time>
      </trkpt>
      <trkpt lat="44.43199" lon="3.64314">
        <ele>1377</ele>
        <time>2009-07-10T09:08:01Z</time>
      </trkpt>
      <trkpt lat="44.43205" lon="3.64324">
        <ele>1378</ele>
        <time>2009-07-10T09:08:16Z</time>
      </trkpt>
      <trkpt lat="44.43208" lon="3.64329">
        <ele>1379</ele>
        <time>2009-07-10T09:08:29Z</time>
      </trkpt>
      <trkpt lat="44.4321" lon="3.6433">
        <ele>1379</ele>
        <time>2009-07-10T09:08:46Z</time>
      </trkpt>
      <trkpt lat="44.43214" lon="3.64336">
        <ele>1382</ele>
        <time>2009-07-10T09:08:59Z</time>
      </trkpt>
      <trkpt lat="44.43223" lon="3.64345">
        <ele>1384</ele>
        <time>2009-07-10T09:09:15Z</time>
      </trkpt>
      <trkpt lat="44.43225" lon="3.64347">
        <ele>1384</ele>
        <time>2009-07-10T09:09:18Z</time>
      </trkpt>
      <trkpt lat="44.4323" lon="3.64348">
        <ele>1384</ele>
        <time>2009-07-10T09:09:28Z</time>
      </trkpt>
      <trkpt lat="44.43235" lon="3.64355">
        <ele>1386</ele>
        <time>2009-07-10T09:09:42Z</time>
      </trkpt>
      <trkpt lat="44.43241" lon="3.64366">
        <ele>1389</ele>
        <time>2009-07-10T09:09:57Z</time>
      </trkpt>
      <trkpt lat="44.43242" lon="3.64367">
        <ele>1389</ele>
        <time>2009-07-10T09:09:58Z</time>
      </trkpt>
      <trkpt lat="44.43244" lon="3.64368">
        <ele>1391</ele>
        <time>2009-07-10T09:10:01Z</time>
      </trkpt>
      <trkpt lat="44.43248" lon="3.64376">
        <ele>1391</ele>
        <time>2009-07-10T09:10:19Z</time>
      </trkpt>
      <trkpt lat="44.43249" lon="3.64375">
        <ele>1393</ele>
        <time>2009-07-10T09:10:35Z</time>
      </trkpt>
      <trkpt lat="44.43251" lon="3.64376">
        <ele>1392</ele>
        <time>2009-07-10T09:10:36Z</time>
      </trkpt>
      <trkpt lat="44.43254" lon="3.64369">
        <ele>1393</ele>
        <time>2009-07-10T09:10:53Z</time>
      </trkpt>
      <trkpt lat="44.43255" lon="3.64363">
        <ele>1393</ele>
        <time>2009-07-10T09:11:23Z</time>
      </trkpt>
      <trkpt lat="44.43255" lon="3.64363">
        <ele>1394</ele>
        <time>2009-07-10T09:12:13Z</time>
      </trkpt>
      <trkpt lat="44.43255" lon="3.64364">
        <ele>1394</ele>
        <time>2009-07-10T09:12:40Z</time>
      </trkpt>
      <trkpt lat="44.43254" lon="3.64361">
        <ele>1393</ele>
        <time>2009-07-10T09:13:21Z</time>
      </trkpt>
      <trkpt lat="44.43257" lon="3.64358">
        <ele>1393</ele>
        <time>2009-07-10T09:13:25Z</time>
      </trkpt>
      <trkpt lat="44.43269" lon="3.64336">
        <ele>1394</ele>
        <time>2009-07-10T09:13:40Z</time>
      </trkpt>
      <trkpt lat="44.43286" lon="3.64306">
        <ele>1392</ele>
        <time>2009-07-10T09:13:54Z</time>
      </trkpt>
      <trkpt lat="44.43302" lon="3.64265">
        <ele>1391</ele>
        <time>2009-07-10T09:14:10Z</time>
      </trkpt>
      <trkpt lat="44.4332" lon="3.64219">
        <ele>1390</ele>
        <time>2009-07-10T09:14:25Z</time>
      </trkpt>
      <trkpt lat="44.43337" lon="3.64176">
        <ele>1388</ele>
        <time>2009-07-10T09:14:38Z</time>
      </trkpt>
      <trkpt lat="44.43365" lon="3.64137">
        <ele>1387</ele>
        <time>2009-07-10T09:14:52Z</time>
      </trkpt>
      <trkpt lat="44.43389" lon="3.64099">
        <ele>1386</ele>
        <time>2009-07-10T09:15:06Z</time>
      </trkpt>
      <trkpt lat="44.43403" lon="3.6408">
        <ele>1384</ele>
        <time>2009-07-10T09:15:13Z</time>
      </trkpt>
      <trkpt lat="44.4341" lon="3.64084">
        <ele>1385</ele>
        <time>2009-07-10T09:15:18Z</time>
      </trkpt>
      <trkpt lat="44.43421" lon="3.64101">
        <ele>1388</ele>
        <time>2009-07-10T09:15:30Z</time>
      </trkpt>
      <trkpt lat="44.4343" lon="3.64121">
        <ele>1392</ele>
        <time>2009-07-10T09:15:44Z</time>
      </trkpt>
      <trkpt lat="44.43442" lon="3.64139">
        <ele>1395</ele>
        <time>2009-07-10T09:15:59Z</time>
      </trkpt>
      <trkpt lat="44.43453" lon="3.64159">
        <ele>1398</ele>
        <time>2009-07-10T09:16:14Z</time>
      </trkpt>
      <trkpt lat="44.43464" lon="3.64181">
        <ele>1400</ele>
        <time>2009-07-10T09:16:29Z</time>
      </trkpt>
      <trkpt lat="44.43477" lon="3.64196">
        <ele>1404</ele>
        <time>2009-07-10T09:16:43Z</time>
      </trkpt>
      <trkpt lat="44.43478" lon="3.64197">
        <ele>1404</ele>
        <time>2009-07-10T09:16:44Z</time>
      </trkpt>
      <trkpt lat="44.43482" lon="3.64204">
        <ele>1404</ele>
        <time>2009-07-10T09:16:50Z</time>
      </trkpt>
      <trkpt lat="44.43487" lon="3.64219">
        <ele>1408</ele>
        <time>2009-07-10T09:17:00Z</time>
      </trkpt>
      <trkpt lat="44.435" lon="3.64241">
        <ele>1411</ele>
        <time>2009-07-10T09:17:17Z</time>
      </trkpt>
      <trkpt lat="44.43506" lon="3.64253">
        <ele>1414</ele>
        <time>2009-07-10T09:17:26Z</time>
      </trkpt>
      <trkpt lat="44.43516" lon="3.64273">
        <ele>1418</ele>
        <time>2009-07-10T09:17:41Z</time>
      </trkpt>
      <trkpt lat="44.43521" lon="3.64281">
        <ele>1420</ele>
        <time>2009-07-10T09:17:48Z</time>
      </trkpt>
      <trkpt lat="44.43534" lon="3.64302">
        <ele>1424</ele>
        <time>2009-07-10T09:18:05Z</time>
      </trkpt>
      <trkpt lat="44.43544" lon="3.64323">
        <ele>1427</ele>
        <time>2009-07-10T09:18:20Z</time>
      </trkpt>
      <trkpt lat="44.43552" lon="3.64339">
        <ele>1428</ele>
        <time>2009-07-10T09:18:33Z</time>
      </trkpt>
      <trkpt lat="44.43557" lon="3.64346">
        <ele>1430</ele>
        <time>2009-07-10T09:18:38Z</time>
      </trkpt>
      <trkpt lat="44.43562" lon="3.64353">
        <ele>1433</ele>
        <time>2009-07-10T09:18:44Z</time>
      </trkpt>
      <trkpt lat="44.43566" lon="3.64359">
        <ele>1434</ele>
        <time>2009-07-10T09:18:49Z</time>
      </trkpt>
      <trkpt lat="44.43578" lon="3.64385">
        <ele>1437</ele>
        <time>2009-07-10T09:19:06Z</time>
      </trkpt>
      <trkpt lat="44.43575" lon="3.64412">
        <ele>1439</ele>
        <time>2009-07-10T09:19:20Z</time>
      </trkpt>
      <trkpt lat="44.43566" lon="3.64448">
        <ele>1440</ele>
        <time>2009-07-10T09:19:37Z</time>
      </trkpt>
      <trkpt lat="44.4356" lon="3.64475">
        <ele>1442</ele>
        <time>2009-07-10T09:19:50Z</time>
      </trkpt>
      <trkpt lat="44.43556" lon="3.6449">
        <ele>1444</ele>
        <time>2009-07-10T09:19:57Z</time>
      </trkpt>
      <trkpt lat="44.43546" lon="3.64531">
        <ele>1446</ele>
        <time>2009-07-10T09:20:16Z</time>
      </trkpt>
      <trkpt lat="44.43535" lon="3.64564">
        <ele>1447</ele>
        <time>2009-07-10T09:20:33Z</time>
      </trkpt>
      <trkpt lat="44.43536" lon="3.64565">
        <ele>1447</ele>
        <time>2009-07-10T09:21:00Z</time>
      </trkpt>
      <trkpt lat="44.43536" lon="3.64564">
        <ele>1447</ele>
        <time>2009-07-10T09:22:04Z</time>
      </trkpt>
      <trkpt lat="44.43536" lon="3.64563">
        <ele>1446</ele>
        <time>2009-07-10T09:22:31Z</time>
      </trkpt>
      <trkpt lat="44.43533" lon="3.64562">
        <ele>1447</ele>
        <time>2009-07-10T09:23:14Z</time>
      </trkpt>
      <trkpt lat="44.43531" lon="3.64566">
        <ele>1448</ele>
        <time>2009-07-10T09:24:22Z</time>
      </trkpt>
      <trkpt lat="44.43527" lon="3.64583">
        <ele>1450</ele>
        <time>2009-07-10T09:24:36Z</time>
      </trkpt>
      <trkpt lat="44.43517" lon="3.64627">
        <ele>1452</ele>
        <time>2009-07-10T09:24:51Z</time>
      </trkpt>
      <trkpt lat="44.43505" lon="3.64679">
        <ele>1454</ele>
        <time>2009-07-10T09:25:09Z</time>
      </trkpt>
      <trkpt lat="44.43493" lon="3.64729">
        <ele>1454</ele>
        <time>2009-07-10T09:25:27Z</time>
      </trkpt>
      <trkpt lat="44.43484" lon="3.64773">
        <ele>1457</ele>
        <time>2009-07-10T09:25:42Z</time>
      </trkpt>
      <trkpt lat="44.43476" lon="3.64824">
        <ele>1459</ele>
        <time>2009-07-10T09:25:59Z</time>
      </trkpt>
      <trkpt lat="44.4347" lon="3.64861">
        <ele>1463</ele>
        <time>2009-07-10T09:26:12Z</time>
      </trkpt>
      <trkpt lat="44.43466" lon="3.64888">
        <ele>1465</ele>
        <time>2009-07-10T09:26:23Z</time>
      </trkpt>
      <trkpt lat="44.43463" lon="3.64912">
        <ele>1468</ele>
        <time>2009-07-10T09:26:33Z</time>
      </trkpt>
      <trkpt lat="44.43456" lon="3.64961">
        <ele>1470</ele>
        <time>2009-07-10T09:26:53Z</time>
      </trkpt>
      <trkpt lat="44.43451" lon="3.64999">
        <ele>1473</ele>
        <time>2009-07-10T09:27:08Z</time>
      </trkpt>
      <trkpt lat="44.43444" lon="3.65042">
        <ele>1475</ele>
        <time>2009-07-10T09:27:24Z</time>
      </trkpt>
      <trkpt lat="44.43443" lon="3.65086">
        <ele>1477</ele>
        <time>2009-07-10T09:27:40Z</time>
      </trkpt>
      <trkpt lat="44.43442" lon="3.65112">
        <ele>1480</ele>
        <time>2009-07-10T09:27:50Z</time>
      </trkpt>
      <trkpt lat="44.43442" lon="3.65146">
        <ele>1483</ele>
        <time>2009-07-10T09:28:04Z</time>
      </trkpt>
      <trkpt lat="44.43441" lon="3.65181">
        <ele>1485</ele>
        <time>2009-07-10T09:28:19Z</time>
      </trkpt>
      <trkpt lat="44.4344" lon="3.65228">
        <ele>1488</ele>
        <time>2009-07-10T09:28:37Z</time>
      </trkpt>
      <trkpt lat="44.4344" lon="3.65236">
        <ele>1489</ele>
        <time>2009-07-10T09:28:40Z</time>
      </trkpt>
      <trkpt lat="44.4344" lon="3.65241">
        <ele>1490</ele>
        <time>2009-07-10T09:28:42Z</time>
      </trkpt>
      <trkpt lat="44.4344" lon="3.65283">
        <ele>1491</ele>
        <time>2009-07-10T09:28:59Z</time>
      </trkpt>
      <trkpt lat="44.4344" lon="3.65314">
        <ele>1494</ele>
        <time>2009-07-10T09:29:12Z</time>
      </trkpt>
      <trkpt lat="44.43438" lon="3.65349">
        <ele>1496</ele>
        <time>2009-07-10T09:29:27Z</time>
      </trkpt>
      <trkpt lat="44.43441" lon="3.65377">
        <ele>1500</ele>
        <time>2009-07-10T09:29:39Z</time>
      </trkpt>
      <trkpt lat="44.43441" lon="3.65379">
        <ele>1500</ele>
        <time>2009-07-10T09:29:40Z</time>
      </trkpt>
      <trkpt lat="44.43441" lon="3.65403">
        <ele>1503</ele>
        <time>2009-07-10T09:29:50Z</time>
      </trkpt>
      <trkpt lat="44.43441" lon="3.65439">
        <ele>1506</ele>
        <time>2009-07-10T09:30:05Z</time>
      </trkpt>
      <trkpt lat="44.43443" lon="3.65475">
        <ele>1508</ele>
        <time>2009-07-10T09:30:20Z</time>
      </trkpt>
      <trkpt lat="44.43451" lon="3.65504">
        <ele>1509</ele>
        <time>2009-07-10T09:30:36Z</time>
      </trkpt>
      <trkpt lat="44.43449" lon="3.65506">
        <ele>1508</ele>
        <time>2009-07-10T09:30:58Z</time>
      </trkpt>
      <trkpt lat="44.43449" lon="3.65507">
        <ele>1513</ele>
        <time>2009-07-10T09:30:59Z</time>
      </trkpt>
      <trkpt lat="44.43449" lon="3.65507">
        <ele>1510</ele>
        <time>2009-07-10T09:31:00Z</time>
      </trkpt>
      <trkpt lat="44.43449" lon="3.65507">
        <ele>1506</ele>
        <time>2009-07-10T09:31:02Z</time>
      </trkpt>
      <trkpt lat="44.43449" lon="3.65507">
        <ele>1512</ele>
        <time>2009-07-10T09:31:03Z</time>
      </trkpt>
      <trkpt lat="44.43449" lon="3.65507">
        <ele>1507</ele>
        <time>2009-07-10T09:31:07Z</time>
      </trkpt>
      <trkpt lat="44.43449" lon="3.65507">
        <ele>1513</ele>
        <time>2009-07-10T09:31:09Z</time>
      </trkpt>
      <trkpt lat="44.43449" lon="3.65507">
        <ele>1507</ele>
        <time>2009-07-10T09:31:10Z</time>
      </trkpt>
      <trkpt lat="44.43449" lon="3.65507">
        <ele>1511</ele>
        <time>2009-07-10T09:31:11Z</time>
      </trkpt>
      <trkpt lat="44.43451" lon="3.65514">
        <ele>1509</ele>
        <time>2009-07-10T09:31:29Z</time>
      </trkpt>
      <trkpt lat="44.43457" lon="3.6555">
        <ele>1511</ele>
        <time>2009-07-10T09:31:45Z</time>
      </trkpt>
      <trkpt lat="44.43462" lon="3.65572">
        <ele>1514</ele>
        <time>2009-07-10T09:31:55Z</time>
      </trkpt>
      <trkpt lat="44.43471" lon="3.65609">
        <ele>1514</ele>
        <time>2009-07-10T09:32:10Z</time>
      </trkpt>
      <trkpt lat="44.43481" lon="3.65654">
        <ele>1515</ele>
        <time>2009-07-10T09:32:29Z</time>
      </trkpt>
      <trkpt lat="44.4349" lon="3.65686">
        <ele>1515</ele>
        <time>2009-07-10T09:32:43Z</time>
      </trkpt>
      <trkpt lat="44.435" lon="3.6573">
        <ele>1516</ele>
        <time>2009-07-10T09:33:01Z</time>
      </trkpt>
      <trkpt lat="44.43508" lon="3.6576">
        <ele>1518</ele>
        <time>2009-07-10T09:33:15Z</time>
      </trkpt>
      <trkpt lat="44.43515" lon="3.65789">
        <ele>1520</ele>
        <time>2009-07-10T09:33:28Z</time>
      </trkpt>
      <trkpt lat="44.43517" lon="3.658">
        <ele>1520</ele>
        <time>2009-07-10T09:33:33Z</time>
      </trkpt>
      <trkpt lat="44.4352" lon="3.65809">
        <ele>1521</ele>
        <time>2009-07-10T09:33:37Z</time>
      </trkpt>
      <trkpt lat="44.43521" lon="3.65819">
        <ele>1521</ele>
        <time>2009-07-10T09:33:49Z</time>
      </trkpt>
      <trkpt lat="44.43526" lon="3.65833">
        <ele>1523</ele>
        <time>2009-07-10T09:33:56Z</time>
      </trkpt>
      <trkpt lat="44.43533" lon="3.65863">
        <ele>1525</ele>
        <time>2009-07-10T09:34:12Z</time>
      </trkpt>
      <trkpt lat="44.43536" lon="3.65871">
        <ele>1526</ele>
        <time>2009-07-10T09:34:24Z</time>
      </trkpt>
      <trkpt lat="44.43536" lon="3.65872">
        <ele>1526</ele>
        <time>2009-07-10T09:34:28Z</time>
      </trkpt>
      <trkpt lat="44.43539" lon="3.65877">
        <ele>1526</ele>
        <time>2009-07-10T09:34:32Z</time>
      </trkpt>
      <trkpt lat="44.43543" lon="3.65885">
        <ele>1528</ele>
        <time>2009-07-10T09:34:37Z</time>
      </trkpt>
      <trkpt lat="44.43546" lon="3.65893">
        <ele>1531</ele>
        <time>2009-07-10T09:34:41Z</time>
      </trkpt>
      <trkpt lat="44.43549" lon="3.65897">
        <ele>1532</ele>
        <time>2009-07-10T09:34:43Z</time>
      </trkpt>
      <trkpt lat="44.43555" lon="3.6591">
        <ele>1533</ele>
        <time>2009-07-10T09:34:54Z</time>
      </trkpt>
      <trkpt lat="44.43561" lon="3.65921">
        <ele>1532</ele>
        <time>2009-07-10T09:35:07Z</time>
      </trkpt>
      <trkpt lat="44.43574" lon="3.65938">
        <ele>1534</ele>
        <time>2009-07-10T09:35:20Z</time>
      </trkpt>
      <trkpt lat="44.43582" lon="3.65957">
        <ele>1536</ele>
        <time>2009-07-10T09:35:28Z</time>
      </trkpt>
      <trkpt lat="44.43588" lon="3.65965">
        <ele>1537</ele>
        <time>2009-07-10T09:35:39Z</time>
      </trkpt>
      <trkpt lat="44.43591" lon="3.65972">
        <ele>1537</ele>
        <time>2009-07-10T09:35:45Z</time>
      </trkpt>
      <trkpt lat="44.436" lon="3.65979">
        <ele>1537</ele>
        <time>2009-07-10T09:35:59Z</time>
      </trkpt>
      <trkpt lat="44.43623" lon="3.66003">
        <ele>1539</ele>
        <time>2009-07-10T09:36:13Z</time>
      </trkpt>
      <trkpt lat="44.43642" lon="3.66024">
        <ele>1538</ele>
        <time>2009-07-10T09:36:24Z</time>
      </trkpt>
      <trkpt lat="44.43654" lon="3.66037">
        <ele>1538</ele>
        <time>2009-07-10T09:36:31Z</time>
      </trkpt>
      <trkpt lat="44.43675" lon="3.66065">
        <ele>1539</ele>
        <time>2009-07-10T09:36:44Z</time>
      </trkpt>
      <trkpt lat="44.43717" lon="3.66107">
        <ele>1537</ele>
        <time>2009-07-10T09:37:03Z</time>
      </trkpt>
      <trkpt lat="44.43744" lon="3.6614">
        <ele>1537</ele>
        <time>2009-07-10T09:37:18Z</time>
      </trkpt>
      <trkpt lat="44.43747" lon="3.66147">
        <ele>1536</ele>
        <time>2009-07-10T09:37:30Z</time>
      </trkpt>
      <trkpt lat="44.43747" lon="3.66147">
        <ele>1538</ele>
        <time>2009-07-10T09:37:32Z</time>
      </trkpt>
      <trkpt lat="44.43747" lon="3.66148">
        <ele>1534</ele>
        <time>2009-07-10T09:37:44Z</time>
      </trkpt>
      <trkpt lat="44.43747" lon="3.66148">
        <ele>1538</ele>
        <time>2009-07-10T09:37:45Z</time>
      </trkpt>
      <trkpt lat="44.43747" lon="3.66148">
        <ele>1535</ele>
        <time>2009-07-10T09:37:46Z</time>
      </trkpt>
      <trkpt lat="44.43747" lon="3.66148">
        <ele>1538</ele>
        <time>2009-07-10T09:37:47Z</time>
      </trkpt>
      <trkpt lat="44.43747" lon="3.66148">
        <ele>1537</ele>
        <time>2009-07-10T09:37:56Z</time>
      </trkpt>
      <trkpt lat="44.43747" lon="3.66148">
        <ele>1536</ele>
        <time>2009-07-10T09:37:58Z</time>
      </trkpt>
      <trkpt lat="44.43746" lon="3.66149">
        <ele>1537</ele>
        <time>2009-07-10T09:38:33Z</time>
      </trkpt>
      <trkpt lat="44.43747" lon="3.6615">
        <ele>1536</ele>
        <time>2009-07-10T09:38:53Z</time>
      </trkpt>
      <trkpt lat="44.43747" lon="3.66163">
        <ele>1535</ele>
        <time>2009-07-10T09:40:58Z</time>
      </trkpt>
      <trkpt lat="44.43752" lon="3.66179">
        <ele>1537</ele>
        <time>2009-07-10T09:41:03Z</time>
      </trkpt>
      <trkpt lat="44.43754" lon="3.66186">
        <ele>1535</ele>
        <time>2009-07-10T09:41:05Z</time>
      </trkpt>
      <trkpt lat="44.43761" lon="3.6621">
        <ele>1535</ele>
        <time>2009-07-10T09:41:11Z</time>
      </trkpt>
      <trkpt lat="44.43769" lon="3.66263">
        <ele>1537</ele>
        <time>2009-07-10T09:41:22Z</time>
      </trkpt>
      <trkpt lat="44.43766" lon="3.66355">
        <ele>1539</ele>
        <time>2009-07-10T09:41:41Z</time>
      </trkpt>
      <trkpt lat="44.43755" lon="3.66451">
        <ele>1542</ele>
        <time>2009-07-10T09:42:02Z</time>
      </trkpt>
      <trkpt lat="44.43739" lon="3.66533">
        <ele>1542</ele>
        <time>2009-07-10T09:42:20Z</time>
      </trkpt>
      <trkpt lat="44.437" lon="3.66625">
        <ele>1544</ele>
        <time>2009-07-10T09:42:42Z</time>
      </trkpt>
      <trkpt lat="44.43647" lon="3.66689">
        <ele>1546</ele>
        <time>2009-07-10T09:43:01Z</time>
      </trkpt>
      <trkpt lat="44.43574" lon="3.66747">
        <ele>1548</ele>
        <time>2009-07-10T09:43:24Z</time>
      </trkpt>
      <trkpt lat="44.43506" lon="3.66782">
        <ele>1551</ele>
        <time>2009-07-10T09:43:43Z</time>
      </trkpt>
      <trkpt lat="44.43432" lon="3.66822">
        <ele>1555</ele>
        <time>2009-07-10T09:44:04Z</time>
      </trkpt>
      <trkpt lat="44.43407" lon="3.66882">
        <ele>1556</ele>
        <time>2009-07-10T09:44:18Z</time>
      </trkpt>
      <trkpt lat="44.43412" lon="3.66992">
        <ele>1557</ele>
        <time>2009-07-10T09:44:39Z</time>
      </trkpt>
      <trkpt lat="44.43425" lon="3.671">
        <ele>1559</ele>
        <time>2009-07-10T09:45:01Z</time>
      </trkpt>
      <trkpt lat="44.43441" lon="3.6719">
        <ele>1561</ele>
        <time>2009-07-10T09:45:20Z</time>
      </trkpt>
      <trkpt lat="44.43481" lon="3.67247">
        <ele>1561</ele>
        <time>2009-07-10T09:45:36Z</time>
      </trkpt>
      <trkpt lat="44.43546" lon="3.67316">
        <ele>1563</ele>
        <time>2009-07-10T09:45:58Z</time>
      </trkpt>
      <trkpt lat="44.43593" lon="3.67368">
        <ele>1563</ele>
        <time>2009-07-10T09:46:13Z</time>
      </trkpt>
      <trkpt lat="44.43617" lon="3.6746">
        <ele>1564</ele>
        <time>2009-07-10T09:46:30Z</time>
      </trkpt>
      <trkpt lat="44.43618" lon="3.67472">
        <ele>1564</ele>
        <time>2009-07-10T09:46:32Z</time>
      </trkpt>
      <trkpt lat="44.43618" lon="3.67496">
        <ele>1564</ele>
        <time>2009-07-10T09:46:36Z</time>
      </trkpt>
      <trkpt lat="44.43619" lon="3.67607">
        <ele>1563</ele>
        <time>2009-07-10T09:46:54Z</time>
      </trkpt>
      <trkpt lat="44.4362" lon="3.67702">
        <ele>1563</ele>
        <time>2009-07-10T09:47:10Z</time>
      </trkpt>
      <trkpt lat="44.43616" lon="3.67809">
        <ele>1563</ele>
        <time>2009-07-10T09:47:29Z</time>
      </trkpt>
      <trkpt lat="44.43582" lon="3.67926">
        <ele>1561</ele>
        <time>2009-07-10T09:47:48Z</time>
      </trkpt>
      <trkpt lat="44.43551" lon="3.68">
        <ele>1558</ele>
        <time>2009-07-10T09:47:58Z</time>
      </trkpt>
      <trkpt lat="44.43524" lon="3.6804">
        <ele>1557</ele>
        <time>2009-07-10T09:48:04Z</time>
      </trkpt>
      <trkpt lat="44.43508" lon="3.68112">
        <ele>1557</ele>
        <time>2009-07-10T09:48:13Z</time>
      </trkpt>
      <trkpt lat="44.4351" lon="3.68119">
        <ele>1556</ele>
        <time>2009-07-10T09:48:14Z</time>
      </trkpt>
      <trkpt lat="44.43536" lon="3.68165">
        <ele>1556</ele>
        <time>2009-07-10T09:48:24Z</time>
      </trkpt>
      <trkpt lat="44.43548" lon="3.68182">
        <ele>1555</ele>
        <time>2009-07-10T09:48:28Z</time>
      </trkpt>
      <trkpt lat="44.43595" lon="3.68245">
        <ele>1556</ele>
        <time>2009-07-10T09:48:44Z</time>
      </trkpt>
      <trkpt lat="44.436" lon="3.68254">
        <ele>1555</ele>
        <time>2009-07-10T09:48:46Z</time>
      </trkpt>
      <trkpt lat="44.43605" lon="3.68265">
        <ele>1555</ele>
        <time>2009-07-10T09:48:48Z</time>
      </trkpt>
      <trkpt lat="44.43623" lon="3.6834">
        <ele>1555</ele>
        <time>2009-07-10T09:49:01Z</time>
      </trkpt>
      <trkpt lat="44.43631" lon="3.68368">
        <ele>1554</ele>
        <time>2009-07-10T09:49:06Z</time>
      </trkpt>
      <trkpt lat="44.4364" lon="3.6843">
        <ele>1553</ele>
        <time>2009-07-10T09:49:16Z</time>
      </trkpt>
      <trkpt lat="44.43639" lon="3.68455">
        <ele>1552</ele>
        <time>2009-07-10T09:49:20Z</time>
      </trkpt>
      <trkpt lat="44.43626" lon="3.6858">
        <ele>1550</ele>
        <time>2009-07-10T09:49:38Z</time>
      </trkpt>
      <trkpt lat="44.43614" lon="3.68711">
        <ele>1549</ele>
        <time>2009-07-10T09:49:55Z</time>
      </trkpt>
      <trkpt lat="44.43622" lon="3.68789">
        <ele>1547</ele>
        <time>2009-07-10T09:50:06Z</time>
      </trkpt>
      <trkpt lat="44.43624" lon="3.68816">
        <ele>1548</ele>
        <time>2009-07-10T09:50:16Z</time>
      </trkpt>
      <trkpt lat="44.43623" lon="3.68819">
        <ele>1546</ele>
        <time>2009-07-10T09:50:30Z</time>
      </trkpt>
      <trkpt lat="44.43623" lon="3.6882">
        <ele>1548</ele>
        <time>2009-07-10T09:56:48Z</time>
      </trkpt>
      <trkpt lat="44.43618" lon="3.68822">
        <ele>1549</ele>
        <time>2009-07-10T09:57:08Z</time>
      </trkpt>
      <trkpt lat="44.43617" lon="3.68821">
        <ele>1549</ele>
        <time>2009-07-10T09:57:24Z</time>
      </trkpt>
      <trkpt lat="44.43617" lon="3.68822">
        <ele>1549</ele>
        <time>2009-07-10T09:57:28Z</time>
      </trkpt>
      <trkpt lat="44.43613" lon="3.68825">
        <ele>1548</ele>
        <time>2009-07-10T09:57:31Z</time>
      </trkpt>
      <trkpt lat="44.43612" lon="3.68827">
        <ele>1548</ele>
        <time>2009-07-10T09:57:32Z</time>
      </trkpt>
      <trkpt lat="44.43594" lon="3.68861">
        <ele>1549</ele>
        <time>2009-07-10T09:57:46Z</time>
      </trkpt>
      <trkpt lat="44.43579" lon="3.68897">
        <ele>1552</ele>
        <time>2009-07-10T09:58:00Z</time>
      </trkpt>
      <trkpt lat="44.43569" lon="3.68922">
        <ele>1552</ele>
        <time>2009-07-10T09:58:20Z</time>
      </trkpt>
      <trkpt lat="44.43555" lon="3.68963">
        <ele>1555</ele>
        <time>2009-07-10T09:58:33Z</time>
      </trkpt>
      <trkpt lat="44.43538" lon="3.69003">
        <ele>1555</ele>
        <time>2009-07-10T09:58:47Z</time>
      </trkpt>
      <trkpt lat="44.43523" lon="3.69035">
        <ele>1557</ele>
        <time>2009-07-10T09:58:58Z</time>
      </trkpt>
      <trkpt lat="44.43509" lon="3.69073">
        <ele>1558</ele>
        <time>2009-07-10T09:59:14Z</time>
      </trkpt>
      <trkpt lat="44.43492" lon="3.69107">
        <ele>1560</ele>
        <time>2009-07-10T09:59:27Z</time>
      </trkpt>
      <trkpt lat="44.43475" lon="3.69145">
        <ele>1562</ele>
        <time>2009-07-10T09:59:40Z</time>
      </trkpt>
      <trkpt lat="44.4344" lon="3.69197">
        <ele>1564</ele>
        <time>2009-07-10T10:00:01Z</time>
      </trkpt>
      <trkpt lat="44.43415" lon="3.69228">
        <ele>1567</ele>
        <time>2009-07-10T10:00:15Z</time>
      </trkpt>
      <trkpt lat="44.43391" lon="3.69253">
        <ele>1569</ele>
        <time>2009-07-10T10:00:30Z</time>
      </trkpt>
      <trkpt lat="44.43368" lon="3.69281">
        <ele>1571</ele>
        <time>2009-07-10T10:00:46Z</time>
      </trkpt>
      <trkpt lat="44.43336" lon="3.69311">
        <ele>1571</ele>
        <time>2009-07-10T10:01:04Z</time>
      </trkpt>
      <trkpt lat="44.43295" lon="3.69337">
        <ele>1572</ele>
        <time>2009-07-10T10:01:21Z</time>
      </trkpt>
      <trkpt lat="44.43254" lon="3.69364">
        <ele>1573</ele>
        <time>2009-07-10T10:01:38Z</time>
      </trkpt>
      <trkpt lat="44.43209" lon="3.69382">
        <ele>1574</ele>
        <time>2009-07-10T10:01:56Z</time>
      </trkpt>
      <trkpt lat="44.43168" lon="3.69398">
        <ele>1575</ele>
        <time>2009-07-10T10:02:11Z</time>
      </trkpt>
      <trkpt lat="44.43111" lon="3.69409">
        <ele>1576</ele>
        <time>2009-07-10T10:02:29Z</time>
      </trkpt>
      <trkpt lat="44.43061" lon="3.69417">
        <ele>1577</ele>
        <time>2009-07-10T10:02:45Z</time>
      </trkpt>
      <trkpt lat="44.43004" lon="3.69438">
        <ele>1579</ele>
        <time>2009-07-10T10:03:03Z</time>
      </trkpt>
      <trkpt lat="44.42971" lon="3.69464">
        <ele>1580</ele>
        <time>2009-07-10T10:03:16Z</time>
      </trkpt>
      <trkpt lat="44.42946" lon="3.69499">
        <ele>1582</ele>
        <time>2009-07-10T10:03:29Z</time>
      </trkpt>
      <trkpt lat="44.42935" lon="3.6951">
        <ele>1583</ele>
        <time>2009-07-10T10:03:35Z</time>
      </trkpt>
      <trkpt lat="44.42924" lon="3.69529">
        <ele>1583</ele>
        <time>2009-07-10T10:03:42Z</time>
      </trkpt>
      <trkpt lat="44.42892" lon="3.69585">
        <ele>1586</ele>
        <time>2009-07-10T10:04:01Z</time>
      </trkpt>
      <trkpt lat="44.42882" lon="3.69607">
        <ele>1587</ele>
        <time>2009-07-10T10:04:08Z</time>
      </trkpt>
      <trkpt lat="44.4285" lon="3.69679">
        <ele>1589</ele>
        <time>2009-07-10T10:04:30Z</time>
      </trkpt>
      <trkpt lat="44.42822" lon="3.69734">
        <ele>1591</ele>
        <time>2009-07-10T10:04:49Z</time>
      </trkpt>
      <trkpt lat="44.42806" lon="3.6977">
        <ele>1594</ele>
        <time>2009-07-10T10:05:01Z</time>
      </trkpt>
      <trkpt lat="44.42778" lon="3.69826">
        <ele>1595</ele>
        <time>2009-07-10T10:05:17Z</time>
      </trkpt>
      <trkpt lat="44.42762" lon="3.69868">
        <ele>1596</ele>
        <time>2009-07-10T10:05:30Z</time>
      </trkpt>
      <trkpt lat="44.42752" lon="3.69914">
        <ele>1597</ele>
        <time>2009-07-10T10:05:43Z</time>
      </trkpt>
      <trkpt lat="44.42744" lon="3.69954">
        <ele>1600</ele>
        <time>2009-07-10T10:05:54Z</time>
      </trkpt>
      <trkpt lat="44.42753" lon="3.70007">
        <ele>1600</ele>
        <time>2009-07-10T10:06:09Z</time>
      </trkpt>
      <trkpt lat="44.42775" lon="3.70068">
        <ele>1603</ele>
        <time>2009-07-10T10:06:27Z</time>
      </trkpt>
      <trkpt lat="44.42793" lon="3.70125">
        <ele>1606</ele>
        <time>2009-07-10T10:06:44Z</time>
      </trkpt>
      <trkpt lat="44.42807" lon="3.70199">
        <ele>1605</ele>
        <time>2009-07-10T10:07:02Z</time>
      </trkpt>
      <trkpt lat="44.42817" lon="3.70275">
        <ele>1606</ele>
        <time>2009-07-10T10:07:20Z</time>
      </trkpt>
      <trkpt lat="44.42824" lon="3.70356">
        <ele>1608</ele>
        <time>2009-07-10T10:07:39Z</time>
      </trkpt>
      <trkpt lat="44.42826" lon="3.70397">
        <ele>1612</ele>
        <time>2009-07-10T10:07:49Z</time>
      </trkpt>
      <trkpt lat="44.42824" lon="3.70487">
        <ele>1614</ele>
        <time>2009-07-10T10:08:10Z</time>
      </trkpt>
      <trkpt lat="44.42804" lon="3.70564">
        <ele>1613</ele>
        <time>2009-07-10T10:08:29Z</time>
      </trkpt>
      <trkpt lat="44.42787" lon="3.70611">
        <ele>1613</ele>
        <time>2009-07-10T10:08:41Z</time>
      </trkpt>
      <trkpt lat="44.4278" lon="3.70632">
        <ele>1613</ele>
        <time>2009-07-10T10:08:46Z</time>
      </trkpt>
      <trkpt lat="44.42768" lon="3.70653">
        <ele>1612</ele>
        <time>2009-07-10T10:08:52Z</time>
      </trkpt>
      <trkpt lat="44.42744" lon="3.70716">
        <ele>1612</ele>
        <time>2009-07-10T10:09:07Z</time>
      </trkpt>
      <trkpt lat="44.42734" lon="3.70772">
        <ele>1612</ele>
        <time>2009-07-10T10:09:19Z</time>
      </trkpt>
      <trkpt lat="44.42751" lon="3.70833">
        <ele>1612</ele>
        <time>2009-07-10T10:09:33Z</time>
      </trkpt>
      <trkpt lat="44.42779" lon="3.70881">
        <ele>1611</ele>
        <time>2009-07-10T10:09:46Z</time>
      </trkpt>
      <trkpt lat="44.42834" lon="3.70953">
        <ele>1610</ele>
        <time>2009-07-10T10:10:07Z</time>
      </trkpt>
      <trkpt lat="44.42883" lon="3.70995">
        <ele>1610</ele>
        <time>2009-07-10T10:10:23Z</time>
      </trkpt>
      <trkpt lat="44.4292" lon="3.71037">
        <ele>1609</ele>
        <time>2009-07-10T10:10:36Z</time>
      </trkpt>
      <trkpt lat="44.42924" lon="3.71041">
        <ele>1609</ele>
        <time>2009-07-10T10:10:37Z</time>
      </trkpt>
      <trkpt lat="44.42948" lon="3.71108">
        <ele>1608</ele>
        <time>2009-07-10T10:10:52Z</time>
      </trkpt>
      <trkpt lat="44.42968" lon="3.71221">
        <ele>1610</ele>
        <time>2009-07-10T10:11:16Z</time>
      </trkpt>
      <trkpt lat="44.42962" lon="3.71297">
        <ele>1612</ele>
        <time>2009-07-10T10:11:31Z</time>
      </trkpt>
      <trkpt lat="44.42936" lon="3.71379">
        <ele>1612</ele>
        <time>2009-07-10T10:11:49Z</time>
      </trkpt>
      <trkpt lat="44.42908" lon="3.71425">
        <ele>1613</ele>
        <time>2009-07-10T10:12:01Z</time>
      </trkpt>
      <trkpt lat="44.42874" lon="3.71482">
        <ele>1617</ele>
        <time>2009-07-10T10:12:17Z</time>
      </trkpt>
      <trkpt lat="44.42846" lon="3.7153">
        <ele>1620</ele>
        <time>2009-07-10T10:12:32Z</time>
      </trkpt>
      <trkpt lat="44.42816" lon="3.71577">
        <ele>1621</ele>
        <time>2009-07-10T10:12:47Z</time>
      </trkpt>
      <trkpt lat="44.42784" lon="3.71632">
        <ele>1622</ele>
        <time>2009-07-10T10:13:03Z</time>
      </trkpt>
      <trkpt lat="44.42753" lon="3.71682">
        <ele>1623</ele>
        <time>2009-07-10T10:13:18Z</time>
      </trkpt>
      <trkpt lat="44.42725" lon="3.71738">
        <ele>1623</ele>
        <time>2009-07-10T10:13:33Z</time>
      </trkpt>
      <trkpt lat="44.4269" lon="3.71809">
        <ele>1625</ele>
        <time>2009-07-10T10:13:52Z</time>
      </trkpt>
      <trkpt lat="44.42663" lon="3.71865">
        <ele>1627</ele>
        <time>2009-07-10T10:14:08Z</time>
      </trkpt>
      <trkpt lat="44.42635" lon="3.71925">
        <ele>1628</ele>
        <time>2009-07-10T10:14:25Z</time>
      </trkpt>
      <trkpt lat="44.42613" lon="3.71973">
        <ele>1631</ele>
        <time>2009-07-10T10:14:39Z</time>
      </trkpt>
      <trkpt lat="44.42592" lon="3.72019">
        <ele>1632</ele>
        <time>2009-07-10T10:14:53Z</time>
      </trkpt>
      <trkpt lat="44.42568" lon="3.72078">
        <ele>1635</ele>
        <time>2009-07-10T10:15:09Z</time>
      </trkpt>
      <trkpt lat="44.42547" lon="3.72138">
        <ele>1637</ele>
        <time>2009-07-10T10:15:25Z</time>
      </trkpt>
      <trkpt lat="44.42536" lon="3.72184">
        <ele>1638</ele>
        <time>2009-07-10T10:15:39Z</time>
      </trkpt>
      <trkpt lat="44.42535" lon="3.72186">
        <ele>1639</ele>
        <time>2009-07-10T10:15:52Z</time>
      </trkpt>
      <trkpt lat="44.42534" lon="3.72196">
        <ele>1639</ele>
        <time>2009-07-10T10:16:13Z</time>
      </trkpt>
      <trkpt lat="44.42534" lon="3.72195">
        <ele>1641</ele>
        <time>2009-07-10T10:16:25Z</time>
      </trkpt>
      <trkpt lat="44.42534" lon="3.72195">
        <ele>1637</ele>
        <time>2009-07-10T10:16:26Z</time>
      </trkpt>
      <trkpt lat="44.42534" lon="3.72195">
        <ele>1642</ele>
        <time>2009-07-10T10:16:30Z</time>
      </trkpt>
      <trkpt lat="44.42534" lon="3.72195">
        <ele>1638</ele>
        <time>2009-07-10T10:16:31Z</time>
      </trkpt>
      <trkpt lat="44.42534" lon="3.72195">
        <ele>1642</ele>
        <time>2009-07-10T10:16:45Z</time>
      </trkpt>
      <trkpt lat="44.42534" lon="3.72195">
        <ele>1638</ele>
        <time>2009-07-10T10:16:46Z</time>
      </trkpt>
      <trkpt lat="44.42534" lon="3.72195">
        <ele>1642</ele>
        <time>2009-07-10T10:16:48Z</time>
      </trkpt>
      <trkpt lat="44.42534" lon="3.72195">
        <ele>1640</ele>
        <time>2009-07-10T10:16:49Z</time>
      </trkpt>
      <trkpt lat="44.42532" lon="3.72202">
        <ele>1640</ele>
        <time>2009-07-10T10:17:37Z</time>
      </trkpt>
      <trkpt lat="44.42531" lon="3.72207">
        <ele>1640</ele>
        <time>2009-07-10T10:17:54Z</time>
      </trkpt>
      <trkpt lat="44.42527" lon="3.72232">
        <ele>1641</ele>
        <time>2009-07-10T10:18:09Z</time>
      </trkpt>
      <trkpt lat="44.42516" lon="3.72283">
        <ele>1642</ele>
        <time>2009-07-10T10:18:25Z</time>
      </trkpt>
      <trkpt lat="44.42516" lon="3.72324">
        <ele>1644</ele>
        <time>2009-07-10T10:18:37Z</time>
      </trkpt>
      <trkpt lat="44.42525" lon="3.72361">
        <ele>1645</ele>
        <time>2009-07-10T10:18:48Z</time>
      </trkpt>
      <trkpt lat="44.42544" lon="3.72411">
        <ele>1646</ele>
        <time>2009-07-10T10:19:03Z</time>
      </trkpt>
      <trkpt lat="44.42564" lon="3.72455">
        <ele>1648</ele>
        <time>2009-07-10T10:19:17Z</time>
      </trkpt>
      <trkpt lat="44.42587" lon="3.72507">
        <ele>1650</ele>
        <time>2009-07-10T10:19:33Z</time>
      </trkpt>
      <trkpt lat="44.42619" lon="3.72581">
        <ele>1651</ele>
        <time>2009-07-10T10:19:53Z</time>
      </trkpt>
      <trkpt lat="44.42646" lon="3.72652">
        <ele>1652</ele>
        <time>2009-07-10T10:20:11Z</time>
      </trkpt>
      <trkpt lat="44.4267" lon="3.72729">
        <ele>1654</ele>
        <time>2009-07-10T10:20:29Z</time>
      </trkpt>
      <trkpt lat="44.42671" lon="3.72742">
        <ele>1655</ele>
        <time>2009-07-10T10:20:32Z</time>
      </trkpt>
      <trkpt lat="44.42673" lon="3.72818">
        <ele>1656</ele>
        <time>2009-07-10T10:20:50Z</time>
      </trkpt>
      <trkpt lat="44.42665" lon="3.72882">
        <ele>1656</ele>
        <time>2009-07-10T10:21:05Z</time>
      </trkpt>
      <trkpt lat="44.42648" lon="3.72946">
        <ele>1657</ele>
        <time>2009-07-10T10:21:22Z</time>
      </trkpt>
      <trkpt lat="44.4262" lon="3.7301">
        <ele>1658</ele>
        <time>2009-07-10T10:21:39Z</time>
      </trkpt>
      <trkpt lat="44.42583" lon="3.73072">
        <ele>1662</ele>
        <time>2009-07-10T10:21:57Z</time>
      </trkpt>
      <trkpt lat="44.42529" lon="3.73145">
        <ele>1662</ele>
        <time>2009-07-10T10:22:18Z</time>
      </trkpt>
      <trkpt lat="44.42477" lon="3.73203">
        <ele>1663</ele>
        <time>2009-07-10T10:22:36Z</time>
      </trkpt>
      <trkpt lat="44.42435" lon="3.7328">
        <ele>1663</ele>
        <time>2009-07-10T10:22:54Z</time>
      </trkpt>
      <trkpt lat="44.42397" lon="3.73346">
        <ele>1664</ele>
        <time>2009-07-10T10:23:10Z</time>
      </trkpt>
      <trkpt lat="44.42355" lon="3.73403">
        <ele>1666</ele>
        <time>2009-07-10T10:23:27Z</time>
      </trkpt>
      <trkpt lat="44.42337" lon="3.73431">
        <ele>1670</ele>
        <time>2009-07-10T10:23:36Z</time>
      </trkpt>
      <trkpt lat="44.42334" lon="3.73438">
        <ele>1670</ele>
        <time>2009-07-10T10:23:38Z</time>
      </trkpt>
      <trkpt lat="44.42311" lon="3.73468">
        <ele>1673</ele>
        <time>2009-07-10T10:23:49Z</time>
      </trkpt>
      <trkpt lat="44.42279" lon="3.73506">
        <ele>1676</ele>
        <time>2009-07-10T10:24:04Z</time>
      </trkpt>
      <trkpt lat="44.42244" lon="3.7355">
        <ele>1677</ele>
        <time>2009-07-10T10:24:20Z</time>
      </trkpt>
      <trkpt lat="44.4223" lon="3.73595">
        <ele>1677</ele>
        <time>2009-07-10T10:24:32Z</time>
      </trkpt>
      <trkpt lat="44.42234" lon="3.73647">
        <ele>1676</ele>
        <time>2009-07-10T10:24:43Z</time>
      </trkpt>
      <trkpt lat="44.42238" lon="3.73687">
        <ele>1674</ele>
        <time>2009-07-10T10:24:49Z</time>
      </trkpt>
      <trkpt lat="44.42242" lon="3.73709">
        <ele>1672</ele>
        <time>2009-07-10T10:24:52Z</time>
      </trkpt>
      <trkpt lat="44.4226" lon="3.73797">
        <ele>1671</ele>
        <time>2009-07-10T10:25:07Z</time>
      </trkpt>
      <trkpt lat="44.42265" lon="3.73843">
        <ele>1668</ele>
        <time>2009-07-10T10:25:16Z</time>
      </trkpt>
      <trkpt lat="44.42269" lon="3.73896">
        <ele>1669</ele>
        <time>2009-07-10T10:25:31Z</time>
      </trkpt>
      <trkpt lat="44.42269" lon="3.73895">
        <ele>1672</ele>
        <time>2009-07-10T10:25:45Z</time>
      </trkpt>
      <trkpt lat="44.42269" lon="3.73895">
        <ele>1669</ele>
        <time>2009-07-10T10:25:56Z</time>
      </trkpt>
      <trkpt lat="44.4227" lon="3.73895">
        <ele>1670</ele>
        <time>2009-07-10T10:26:33Z</time>
      </trkpt>
      <trkpt lat="44.4227" lon="3.73895">
        <ele>1669</ele>
        <time>2009-07-10T10:26:57Z</time>
      </trkpt>
      <trkpt lat="44.4227" lon="3.73895">
        <ele>1671</ele>
        <time>2009-07-10T10:27:42Z</time>
      </trkpt>
      <trkpt lat="44.42271" lon="3.73895">
        <ele>1670</ele>
        <time>2009-07-10T10:27:58Z</time>
      </trkpt>
      <trkpt lat="44.42271" lon="3.73894">
        <ele>1669</ele>
        <time>2009-07-10T10:28:02Z</time>
      </trkpt>
      <trkpt lat="44.42276" lon="3.73893">
        <ele>1670</ele>
        <time>2009-07-10T10:28:05Z</time>
      </trkpt>
      <trkpt lat="44.42289" lon="3.73889">
        <ele>1671</ele>
        <time>2009-07-10T10:28:12Z</time>
      </trkpt>
      <trkpt lat="44.42296" lon="3.73886">
        <ele>1672</ele>
        <time>2009-07-10T10:28:16Z</time>
      </trkpt>
      <trkpt lat="44.42319" lon="3.73883">
        <ele>1676</ele>
        <time>2009-07-10T10:28:31Z</time>
      </trkpt>
      <trkpt lat="44.42325" lon="3.73884">
        <ele>1677</ele>
        <time>2009-07-10T10:28:35Z</time>
      </trkpt>
      <trkpt lat="44.42335" lon="3.73883">
        <ele>1679</ele>
        <time>2009-07-10T10:28:42Z</time>
      </trkpt>
      <trkpt lat="44.4235" lon="3.7388">
        <ele>1681</ele>
        <time>2009-07-10T10:28:52Z</time>
      </trkpt>
      <trkpt lat="44.4236" lon="3.73879">
        <ele>1683</ele>
        <time>2009-07-10T10:28:59Z</time>
      </trkpt>
      <trkpt lat="44.42383" lon="3.73878">
        <ele>1686</ele>
        <time>2009-07-10T10:29:15Z</time>
      </trkpt>
      <trkpt lat="44.42407" lon="3.73878">
        <ele>1689</ele>
        <time>2009-07-10T10:29:31Z</time>
      </trkpt>
      <trkpt lat="44.4242" lon="3.73877">
        <ele>1692</ele>
        <time>2009-07-10T10:29:40Z</time>
      </trkpt>
      <trkpt lat="44.4245" lon="3.73879">
        <ele>1696</ele>
        <time>2009-07-10T10:30:00Z</time>
      </trkpt>
      <trkpt lat="44.4247" lon="3.73881">
        <ele>1694</ele>
        <time>2009-07-10T10:30:12Z</time>
      </trkpt>
      <trkpt lat="44.42483" lon="3.73885">
        <ele>1698</ele>
        <time>2009-07-10T10:30:20Z</time>
      </trkpt>
      <trkpt lat="44.42491" lon="3.73887">
        <ele>1699</ele>
        <time>2009-07-10T10:30:25Z</time>
      </trkpt>
      <trkpt lat="44.42521" lon="3.73896">
        <ele>1702</ele>
        <time>2009-07-10T10:30:42Z</time>
      </trkpt>
      <trkpt lat="44.42527" lon="3.73897">
        <ele>1700</ele>
        <time>2009-07-10T10:30:45Z</time>
      </trkpt>
      <trkpt lat="44.4253" lon="3.73898">
        <ele>1702</ele>
        <time>2009-07-10T10:30:47Z</time>
      </trkpt>
      <trkpt lat="44.42535" lon="3.739">
        <ele>1704</ele>
        <time>2009-07-10T10:30:50Z</time>
      </trkpt>
      <trkpt lat="44.42568" lon="3.73909">
        <ele>1703</ele>
        <time>2009-07-10T10:31:07Z</time>
      </trkpt>
      <trkpt lat="44.426" lon="3.73918">
        <ele>1705</ele>
        <time>2009-07-10T10:31:21Z</time>
      </trkpt>
      <trkpt lat="44.42602" lon="3.73918">
        <ele>1706</ele>
        <time>2009-07-10T10:31:31Z</time>
      </trkpt>
      <trkpt lat="44.42603" lon="3.73921">
        <ele>1708</ele>
        <time>2009-07-10T10:33:01Z</time>
      </trkpt>
      <trkpt lat="44.42601" lon="3.73925">
        <ele>1706</ele>
        <time>2009-07-10T10:33:13Z</time>
      </trkpt>
      <trkpt lat="44.42585" lon="3.73957">
        <ele>1706</ele>
        <time>2009-07-10T10:33:25Z</time>
      </trkpt>
      <trkpt lat="44.42554" lon="3.74011">
        <ele>1705</ele>
        <time>2009-07-10T10:33:39Z</time>
      </trkpt>
      <trkpt lat="44.42547" lon="3.74046">
        <ele>1702</ele>
        <time>2009-07-10T10:33:48Z</time>
      </trkpt>
      <trkpt lat="44.4254" lon="3.74083">
        <ele>1699</ele>
        <time>2009-07-10T10:33:55Z</time>
      </trkpt>
      <trkpt lat="44.42537" lon="3.74097">
        <ele>1698</ele>
        <time>2009-07-10T10:33:57Z</time>
      </trkpt>
      <trkpt lat="44.42532" lon="3.74121">
        <ele>1694</ele>
        <time>2009-07-10T10:34:00Z</time>
      </trkpt>
      <trkpt lat="44.42528" lon="3.7414">
        <ele>1692</ele>
        <time>2009-07-10T10:34:02Z</time>
      </trkpt>
      <trkpt lat="44.42525" lon="3.7415">
        <ele>1691</ele>
        <time>2009-07-10T10:34:03Z</time>
      </trkpt>
      <trkpt lat="44.42518" lon="3.74183">
        <ele>1688</ele>
        <time>2009-07-10T10:34:06Z</time>
      </trkpt>
      <trkpt lat="44.42512" lon="3.74218">
        <ele>1683</ele>
        <time>2009-07-10T10:34:09Z</time>
      </trkpt>
      <trkpt lat="44.42507" lon="3.74255">
        <ele>1678</ele>
        <time>2009-07-10T10:34:12Z</time>
      </trkpt>
      <trkpt lat="44.42503" lon="3.74283">
        <ele>1674</ele>
        <time>2009-07-10T10:34:14Z</time>
      </trkpt>
      <trkpt lat="44.42501" lon="3.74314">
        <ele>1670</ele>
        <time>2009-07-10T10:34:16Z</time>
      </trkpt>
      <trkpt lat="44.42499" lon="3.74345">
        <ele>1669</ele>
        <time>2009-07-10T10:34:18Z</time>
      </trkpt>
      <trkpt lat="44.42495" lon="3.74382">
        <ele>1670</ele>
        <time>2009-07-10T10:34:21Z</time>
      </trkpt>
      <trkpt lat="44.42489" lon="3.74408">
        <ele>1668</ele>
        <time>2009-07-10T10:34:26Z</time>
      </trkpt>
      <trkpt lat="44.42489" lon="3.7441">
        <ele>1667</ele>
        <time>2009-07-10T10:34:28Z</time>
      </trkpt>
      <trkpt lat="44.4249" lon="3.74411">
        <ele>1667</ele>
        <time>2009-07-10T10:34:44Z</time>
      </trkpt>
      <trkpt lat="44.42493" lon="3.74423">
        <ele>1667</ele>
        <time>2009-07-10T10:35:20Z</time>
      </trkpt>
      <trkpt lat="44.42489" lon="3.74465">
        <ele>1667</ele>
        <time>2009-07-10T10:35:28Z</time>
      </trkpt>
      <trkpt lat="44.42476" lon="3.74511">
        <ele>1664</ele>
        <time>2009-07-10T10:35:35Z</time>
      </trkpt>
      <trkpt lat="44.42467" lon="3.74545">
        <ele>1662</ele>
        <time>2009-07-10T10:35:39Z</time>
      </trkpt>
      <trkpt lat="44.42439" lon="3.74662">
        <ele>1660</ele>
        <time>2009-07-10T10:35:53Z</time>
      </trkpt>
      <trkpt lat="44.42428" lon="3.74702">
        <ele>1659</ele>
        <time>2009-07-10T10:35:58Z</time>
      </trkpt>
      <trkpt lat="44.42414" lon="3.74803">
        <ele>1653</ele>
        <time>2009-07-10T10:36:09Z</time>
      </trkpt>
      <trkpt lat="44.42413" lon="3.74813">
        <ele>1653</ele>
        <time>2009-07-10T10:36:10Z</time>
      </trkpt>
      <trkpt lat="44.42412" lon="3.74835">
        <ele>1653</ele>
        <time>2009-07-10T10:36:12Z</time>
      </trkpt>
      <trkpt lat="44.42414" lon="3.74857">
        <ele>1651</ele>
        <time>2009-07-10T10:36:14Z</time>
      </trkpt>
      <trkpt lat="44.42421" lon="3.74899">
        <ele>1649</ele>
        <time>2009-07-10T10:36:18Z</time>
      </trkpt>
      <trkpt lat="44.4245" lon="3.74989">
        <ele>1646</ele>
        <time>2009-07-10T10:36:27Z</time>
      </trkpt>
      <trkpt lat="44.42474" lon="3.7505">
        <ele>1642</ele>
        <time>2009-07-10T10:36:33Z</time>
      </trkpt>
      <trkpt lat="44.42485" lon="3.75078">
        <ele>1642</ele>
        <time>2009-07-10T10:36:36Z</time>
      </trkpt>
      <trkpt lat="44.42498" lon="3.75131">
        <ele>1641</ele>
        <time>2009-07-10T10:36:42Z</time>
      </trkpt>
      <trkpt lat="44.42497" lon="3.75153">
        <ele>1644</ele>
        <time>2009-07-10T10:36:47Z</time>
      </trkpt>
      <trkpt lat="44.42496" lon="3.75152">
        <ele>1643</ele>
        <time>2009-07-10T10:37:05Z</time>
      </trkpt>
      <trkpt lat="44.42496" lon="3.7515">
        <ele>1642</ele>
        <time>2009-07-10T10:37:50Z</time>
      </trkpt>
      <trkpt lat="44.42492" lon="3.75152">
        <ele>1643</ele>
        <time>2009-07-10T10:39:30Z</time>
      </trkpt>
      <trkpt lat="44.42479" lon="3.75151">
        <ele>1642</ele>
        <time>2009-07-10T10:39:35Z</time>
      </trkpt>
      <trkpt lat="44.4246" lon="3.75153">
        <ele>1640</ele>
        <time>2009-07-10T10:39:41Z</time>
      </trkpt>
      <trkpt lat="44.4244" lon="3.75156">
        <ele>1637</ele>
        <time>2009-07-10T10:39:46Z</time>
      </trkpt>
      <trkpt lat="44.4242" lon="3.75152">
        <ele>1631</ele>
        <time>2009-07-10T10:39:50Z</time>
      </trkpt>
      <trkpt lat="44.42394" lon="3.75144">
        <ele>1627</ele>
        <time>2009-07-10T10:39:54Z</time>
      </trkpt>
      <trkpt lat="44.42371" lon="3.75142">
        <ele>1622</ele>
        <time>2009-07-10T10:39:58Z</time>
      </trkpt>
      <trkpt lat="44.42367" lon="3.75141">
        <ele>1622</ele>
        <time>2009-07-10T10:39:59Z</time>
      </trkpt>
      <trkpt lat="44.42345" lon="3.7514">
        <ele>1620</ele>
        <time>2009-07-10T10:40:05Z</time>
      </trkpt>
      <trkpt lat="44.42328" lon="3.75142">
        <ele>1617</ele>
        <time>2009-07-10T10:40:12Z</time>
      </trkpt>
      <trkpt lat="44.42325" lon="3.75141">
        <ele>1617</ele>
        <time>2009-07-10T10:40:13Z</time>
      </trkpt>
      <trkpt lat="44.42315" lon="3.75139">
        <ele>1614</ele>
        <time>2009-07-10T10:40:18Z</time>
      </trkpt>
      <trkpt lat="44.42306" lon="3.75134">
        <ele>1613</ele>
        <time>2009-07-10T10:40:26Z</time>
      </trkpt>
      <trkpt lat="44.423" lon="3.7513">
        <ele>1610</ele>
        <time>2009-07-10T10:40:31Z</time>
      </trkpt>
      <trkpt lat="44.42296" lon="3.75131">
        <ele>1610</ele>
        <time>2009-07-10T10:40:33Z</time>
      </trkpt>
      <trkpt lat="44.42284" lon="3.75127">
        <ele>1609</ele>
        <time>2009-07-10T10:40:38Z</time>
      </trkpt>
      <trkpt lat="44.42275" lon="3.75114">
        <ele>1605</ele>
        <time>2009-07-10T10:40:44Z</time>
      </trkpt>
      <trkpt lat="44.4226" lon="3.7511">
        <ele>1603</ele>
        <time>2009-07-10T10:40:50Z</time>
      </trkpt>
      <trkpt lat="44.42253" lon="3.75106">
        <ele>1601</ele>
        <time>2009-07-10T10:40:52Z</time>
      </trkpt>
      <trkpt lat="44.42223" lon="3.75099">
        <ele>1597</ele>
        <time>2009-07-10T10:40:59Z</time>
      </trkpt>
      <trkpt lat="44.42219" lon="3.75099">
        <ele>1597</ele>
        <time>2009-07-10T10:41:00Z</time>
      </trkpt>
      <trkpt lat="44.42201" lon="3.75093">
        <ele>1590</ele>
        <time>2009-07-10T10:41:06Z</time>
      </trkpt>
      <trkpt lat="44.42197" lon="3.75093">
        <ele>1590</ele>
        <time>2009-07-10T10:41:07Z</time>
      </trkpt>
      <trkpt lat="44.42176" lon="3.75088">
        <ele>1586</ele>
        <time>2009-07-10T10:41:13Z</time>
      </trkpt>
      <trkpt lat="44.42173" lon="3.75087">
        <ele>1586</ele>
        <time>2009-07-10T10:41:14Z</time>
      </trkpt>
      <trkpt lat="44.42159" lon="3.75088">
        <ele>1584</ele>
        <time>2009-07-10T10:41:19Z</time>
      </trkpt>
      <trkpt lat="44.42141" lon="3.75088">
        <ele>1581</ele>
        <time>2009-07-10T10:41:25Z</time>
      </trkpt>
      <trkpt lat="44.42139" lon="3.75087">
        <ele>1580</ele>
        <time>2009-07-10T10:41:26Z</time>
      </trkpt>
      <trkpt lat="44.42133" lon="3.75084">
        <ele>1578</ele>
        <time>2009-07-10T10:41:31Z</time>
      </trkpt>
      <trkpt lat="44.42129" lon="3.75084">
        <ele>1577</ele>
        <time>2009-07-10T10:41:42Z</time>
      </trkpt>
      <trkpt lat="44.42124" lon="3.75084">
        <ele>1575</ele>
        <time>2009-07-10T10:41:55Z</time>
      </trkpt>
      <trkpt lat="44.4212" lon="3.75078">
        <ele>1574</ele>
        <time>2009-07-10T10:42:06Z</time>
      </trkpt>
      <trkpt lat="44.4212" lon="3.75079">
        <ele>1574</ele>
        <time>2009-07-10T10:42:29Z</time>
      </trkpt>
      <trkpt lat="44.4212" lon="3.75077">
        <ele>1573</ele>
        <time>2009-07-10T10:42:37Z</time>
      </trkpt>
      <trkpt lat="44.42118" lon="3.75068">
        <ele>1572</ele>
        <time>2009-07-10T10:42:41Z</time>
      </trkpt>
      <trkpt lat="44.42116" lon="3.75059">
        <ele>1569</ele>
        <time>2009-07-10T10:42:44Z</time>
      </trkpt>
      <trkpt lat="44.42101" lon="3.75052">
        <ele>1566</ele>
        <time>2009-07-10T10:42:49Z</time>
      </trkpt>
      <trkpt lat="44.42081" lon="3.75056">
        <ele>1562</ele>
        <time>2009-07-10T10:42:55Z</time>
      </trkpt>
      <trkpt lat="44.42069" lon="3.7506">
        <ele>1560</ele>
        <time>2009-07-10T10:42:58Z</time>
      </trkpt>
      <trkpt lat="44.42062" lon="3.75061">
        <ele>1557</ele>
        <time>2009-07-10T10:43:00Z</time>
      </trkpt>
      <trkpt lat="44.42052" lon="3.75064">
        <ele>1556</ele>
        <time>2009-07-10T10:43:02Z</time>
      </trkpt>
      <trkpt lat="44.42044" lon="3.75065">
        <ele>1555</ele>
        <time>2009-07-10T10:43:04Z</time>
      </trkpt>
      <trkpt lat="44.42034" lon="3.75073">
        <ele>1555</ele>
        <time>2009-07-10T10:43:08Z</time>
      </trkpt>
      <trkpt lat="44.42028" lon="3.75061">
        <ele>1550</ele>
        <time>2009-07-10T10:43:13Z</time>
      </trkpt>
      <trkpt lat="44.4203" lon="3.75054">
        <ele>1548</ele>
        <time>2009-07-10T10:43:14Z</time>
      </trkpt>
      <trkpt lat="44.42036" lon="3.75042">
        <ele>1547</ele>
        <time>2009-07-10T10:43:16Z</time>
      </trkpt>
      <trkpt lat="44.42043" lon="3.75026">
        <ele>1545</ele>
        <time>2009-07-10T10:43:20Z</time>
      </trkpt>
      <trkpt lat="44.42033" lon="3.75022">
        <ele>1543</ele>
        <time>2009-07-10T10:43:25Z</time>
      </trkpt>
      <trkpt lat="44.4201" lon="3.75031">
        <ele>1539</ele>
        <time>2009-07-10T10:43:30Z</time>
      </trkpt>
      <trkpt lat="44.41999" lon="3.75037">
        <ele>1537</ele>
        <time>2009-07-10T10:43:33Z</time>
      </trkpt>
      <trkpt lat="44.42" lon="3.75025">
        <ele>1535</ele>
        <time>2009-07-10T10:43:38Z</time>
      </trkpt>
      <trkpt lat="44.42003" lon="3.75015">
        <ele>1532</ele>
        <time>2009-07-10T10:43:42Z</time>
      </trkpt>
      <trkpt lat="44.41998" lon="3.7501">
        <ele>1531</ele>
        <time>2009-07-10T10:43:46Z</time>
      </trkpt>
      <trkpt lat="44.41982" lon="3.75017">
        <ele>1527</ele>
        <time>2009-07-10T10:43:52Z</time>
      </trkpt>
      <trkpt lat="44.41974" lon="3.75022">
        <ele>1526</ele>
        <time>2009-07-10T10:43:54Z</time>
      </trkpt>
      <trkpt lat="44.41968" lon="3.75026">
        <ele>1525</ele>
        <time>2009-07-10T10:43:56Z</time>
      </trkpt>
      <trkpt lat="44.41956" lon="3.7503">
        <ele>1523</ele>
        <time>2009-07-10T10:44:00Z</time>
      </trkpt>
      <trkpt lat="44.41937" lon="3.75043">
        <ele>1519</ele>
        <time>2009-07-10T10:44:06Z</time>
      </trkpt>
      <trkpt lat="44.41934" lon="3.75045">
        <ele>1519</ele>
        <time>2009-07-10T10:44:07Z</time>
      </trkpt>
      <trkpt lat="44.41929" lon="3.75047">
        <ele>1518</ele>
        <time>2009-07-10T10:44:09Z</time>
      </trkpt>
      <trkpt lat="44.41929" lon="3.75039">
        <ele>1515</ele>
        <time>2009-07-10T10:44:14Z</time>
      </trkpt>
      <trkpt lat="44.4193" lon="3.75035">
        <ele>1513</ele>
        <time>2009-07-10T10:44:17Z</time>
      </trkpt>
      <trkpt lat="44.41921" lon="3.75036">
        <ele>1511</ele>
        <time>2009-07-10T10:44:22Z</time>
      </trkpt>
      <trkpt lat="44.41916" lon="3.75031">
        <ele>1510</ele>
        <time>2009-07-10T10:44:29Z</time>
      </trkpt>
      <trkpt lat="44.41918" lon="3.75014">
        <ele>1507</ele>
        <time>2009-07-10T10:44:36Z</time>
      </trkpt>
      <trkpt lat="44.41906" lon="3.75017">
        <ele>1504</ele>
        <time>2009-07-10T10:44:41Z</time>
      </trkpt>
      <trkpt lat="44.41904" lon="3.75016">
        <ele>1503</ele>
        <time>2009-07-10T10:44:43Z</time>
      </trkpt>
      <trkpt lat="44.4191" lon="3.75002">
        <ele>1500</ele>
        <time>2009-07-10T10:44:47Z</time>
      </trkpt>
      <trkpt lat="44.41923" lon="3.74974">
        <ele>1495</ele>
        <time>2009-07-10T10:44:53Z</time>
      </trkpt>
      <trkpt lat="44.41922" lon="3.74967">
        <ele>1496</ele>
        <time>2009-07-10T10:44:55Z</time>
      </trkpt>
      <trkpt lat="44.41913" lon="3.7497">
        <ele>1494</ele>
        <time>2009-07-10T10:44:59Z</time>
      </trkpt>
      <trkpt lat="44.41902" lon="3.74976">
        <ele>1491</ele>
        <time>2009-07-10T10:45:03Z</time>
      </trkpt>
      <trkpt lat="44.41905" lon="3.74965">
        <ele>1490</ele>
        <time>2009-07-10T10:45:06Z</time>
      </trkpt>
      <trkpt lat="44.41902" lon="3.74935">
        <ele>1488</ele>
        <time>2009-07-10T10:45:15Z</time>
      </trkpt>
      <trkpt lat="44.41891" lon="3.74944">
        <ele>1488</ele>
        <time>2009-07-10T10:46:23Z</time>
      </trkpt>
      <trkpt lat="44.41883" lon="3.74945">
        <ele>1487</ele>
        <time>2009-07-10T10:46:29Z</time>
      </trkpt>
      <trkpt lat="44.41875" lon="3.74946">
        <ele>1484</ele>
        <time>2009-07-10T10:46:33Z</time>
      </trkpt>
      <trkpt lat="44.41867" lon="3.74945">
        <ele>1481</ele>
        <time>2009-07-10T10:46:36Z</time>
      </trkpt>
      <trkpt lat="44.41863" lon="3.74943">
        <ele>1479</ele>
        <time>2009-07-10T10:46:37Z</time>
      </trkpt>
      <trkpt lat="44.41848" lon="3.74944">
        <ele>1477</ele>
        <time>2009-07-10T10:46:41Z</time>
      </trkpt>
      <trkpt lat="44.41837" lon="3.7495">
        <ele>1476</ele>
        <time>2009-07-10T10:46:45Z</time>
      </trkpt>
      <trkpt lat="44.41822" lon="3.74964">
        <ele>1472</ele>
        <time>2009-07-10T10:46:50Z</time>
      </trkpt>
      <trkpt lat="44.41815" lon="3.74966">
        <ele>1472</ele>
        <time>2009-07-10T10:46:51Z</time>
      </trkpt>
      <trkpt lat="44.41789" lon="3.74986">
        <ele>1469</ele>
        <time>2009-07-10T10:46:58Z</time>
      </trkpt>
      <trkpt lat="44.41776" lon="3.74988">
        <ele>1465</ele>
        <time>2009-07-10T10:47:02Z</time>
      </trkpt>
      <trkpt lat="44.41763" lon="3.74993">
        <ele>1462</ele>
        <time>2009-07-10T10:47:06Z</time>
      </trkpt>
      <trkpt lat="44.4176" lon="3.74995">
        <ele>1462</ele>
        <time>2009-07-10T10:47:07Z</time>
      </trkpt>
      <trkpt lat="44.41753" lon="3.74998">
        <ele>1461</ele>
        <time>2009-07-10T10:47:09Z</time>
      </trkpt>
      <trkpt lat="44.41745" lon="3.74986">
        <ele>1458</ele>
        <time>2009-07-10T10:47:14Z</time>
      </trkpt>
      <trkpt lat="44.41743" lon="3.74967">
        <ele>1455</ele>
        <time>2009-07-10T10:47:18Z</time>
      </trkpt>
      <trkpt lat="44.41726" lon="3.74969">
        <ele>1454</ele>
        <time>2009-07-10T10:47:26Z</time>
      </trkpt>
      <trkpt lat="44.41698" lon="3.74987">
        <ele>1454</ele>
        <time>2009-07-10T10:47:38Z</time>
      </trkpt>
      <trkpt lat="44.4168" lon="3.74987">
        <ele>1451</ele>
        <time>2009-07-10T10:47:45Z</time>
      </trkpt>
      <trkpt lat="44.41671" lon="3.74985">
        <ele>1448</ele>
        <time>2009-07-10T10:47:48Z</time>
      </trkpt>
      <trkpt lat="44.41651" lon="3.74993">
        <ele>1445</ele>
        <time>2009-07-10T10:47:54Z</time>
      </trkpt>
      <trkpt lat="44.41634" lon="3.74996">
        <ele>1442</ele>
        <time>2009-07-10T10:47:59Z</time>
      </trkpt>
      <trkpt lat="44.41631" lon="3.74995">
        <ele>1442</ele>
        <time>2009-07-10T10:48:00Z</time>
      </trkpt>
      <trkpt lat="44.41623" lon="3.74994">
        <ele>1440</ele>
        <time>2009-07-10T10:48:02Z</time>
      </trkpt>
      <trkpt lat="44.416" lon="3.74998">
        <ele>1437</ele>
        <time>2009-07-10T10:48:08Z</time>
      </trkpt>
      <trkpt lat="44.41592" lon="3.75">
        <ele>1436</ele>
        <time>2009-07-10T10:48:11Z</time>
      </trkpt>
      <trkpt lat="44.41582" lon="3.75002">
        <ele>1432</ele>
        <time>2009-07-10T10:48:14Z</time>
      </trkpt>
      <trkpt lat="44.41578" lon="3.75002">
        <ele>1432</ele>
        <time>2009-07-10T10:48:15Z</time>
      </trkpt>
      <trkpt lat="44.41573" lon="3.74998">
        <ele>1431</ele>
        <time>2009-07-10T10:48:17Z</time>
      </trkpt>
      <trkpt lat="44.4157" lon="3.74996">
        <ele>1430</ele>
        <time>2009-07-10T10:48:18Z</time>
      </trkpt>
      <trkpt lat="44.41556" lon="3.74991">
        <ele>1429</ele>
        <time>2009-07-10T10:48:24Z</time>
      </trkpt>
      <trkpt lat="44.41549" lon="3.74994">
        <ele>1428</ele>
        <time>2009-07-10T10:48:39Z</time>
      </trkpt>
      <trkpt lat="44.41542" lon="3.74994">
        <ele>1427</ele>
        <time>2009-07-10T10:48:56Z</time>
      </trkpt>
      <trkpt lat="44.41541" lon="3.74994">
        <ele>1426</ele>
        <time>2009-07-10T10:48:59Z</time>
      </trkpt>
      <trkpt lat="44.41535" lon="3.74993">
        <ele>1424</ele>
        <time>2009-07-10T10:49:03Z</time>
      </trkpt>
      <trkpt lat="44.41519" lon="3.7499">
        <ele>1420</ele>
        <time>2009-07-10T10:49:11Z</time>
      </trkpt>
      <trkpt lat="44.4151" lon="3.7499">
        <ele>1416</ele>
        <time>2009-07-10T10:49:14Z</time>
      </trkpt>
      <trkpt lat="44.41507" lon="3.74991">
        <ele>1415</ele>
        <time>2009-07-10T10:49:15Z</time>
      </trkpt>
      <trkpt lat="44.41494" lon="3.74998">
        <ele>1412</ele>
        <time>2009-07-10T10:49:19Z</time>
      </trkpt>
      <trkpt lat="44.41486" lon="3.75002">
        <ele>1411</ele>
        <time>2009-07-10T10:49:22Z</time>
      </trkpt>
      <trkpt lat="44.4148" lon="3.75007">
        <ele>1410</ele>
        <time>2009-07-10T10:49:25Z</time>
      </trkpt>
      <trkpt lat="44.41453" lon="3.75003">
        <ele>1407</ele>
        <time>2009-07-10T10:49:33Z</time>
      </trkpt>
      <trkpt lat="44.4145" lon="3.75002">
        <ele>1406</ele>
        <time>2009-07-10T10:49:34Z</time>
      </trkpt>
      <trkpt lat="44.41447" lon="3.75003">
        <ele>1406</ele>
        <time>2009-07-10T10:49:35Z</time>
      </trkpt>
      <trkpt lat="44.41433" lon="3.7501">
        <ele>1404</ele>
        <time>2009-07-10T10:49:41Z</time>
      </trkpt>
      <trkpt lat="44.41428" lon="3.75012">
        <ele>1402</ele>
        <time>2009-07-10T10:49:43Z</time>
      </trkpt>
      <trkpt lat="44.41402" lon="3.75021">
        <ele>1398</ele>
        <time>2009-07-10T10:49:52Z</time>
      </trkpt>
      <trkpt lat="44.41389" lon="3.75031">
        <ele>1395</ele>
        <time>2009-07-10T10:49:57Z</time>
      </trkpt>
      <trkpt lat="44.41386" lon="3.75033">
        <ele>1395</ele>
        <time>2009-07-10T10:49:58Z</time>
      </trkpt>
      <trkpt lat="44.41382" lon="3.75035">
        <ele>1394</ele>
        <time>2009-07-10T10:50:01Z</time>
      </trkpt>
      <trkpt lat="44.41369" lon="3.75036">
        <ele>1393</ele>
        <time>2009-07-10T10:50:07Z</time>
      </trkpt>
      <trkpt lat="44.41358" lon="3.75038">
        <ele>1391</ele>
        <time>2009-07-10T10:50:10Z</time>
      </trkpt>
      <trkpt lat="44.41323" lon="3.75027">
        <ele>1387</ele>
        <time>2009-07-10T10:50:19Z</time>
      </trkpt>
      <trkpt lat="44.41303" lon="3.75026">
        <ele>1383</ele>
        <time>2009-07-10T10:50:25Z</time>
      </trkpt>
      <trkpt lat="44.41301" lon="3.75027">
        <ele>1384</ele>
        <time>2009-07-10T10:50:26Z</time>
      </trkpt>
      <trkpt lat="44.4127" lon="3.75025">
        <ele>1381</ele>
        <time>2009-07-10T10:50:36Z</time>
      </trkpt>
      <trkpt lat="44.41262" lon="3.75027">
        <ele>1379</ele>
        <time>2009-07-10T10:50:38Z</time>
      </trkpt>
      <trkpt lat="44.41257" lon="3.75031">
        <ele>1379</ele>
        <time>2009-07-10T10:50:47Z</time>
      </trkpt>
      <trkpt lat="44.41257" lon="3.75031">
        <ele>1378</ele>
        <time>2009-07-10T10:53:03Z</time>
      </trkpt>
      <trkpt lat="44.41242" lon="3.75052">
        <ele>1377</ele>
        <time>2009-07-10T10:54:31Z</time>
      </trkpt>
      <trkpt lat="44.41249" lon="3.75042">
        <ele>1375</ele>
        <time>2009-07-10T10:55:40Z</time>
      </trkpt>
      <trkpt lat="44.41245" lon="3.75061">
        <ele>1373</ele>
        <time>2009-07-10T10:56:35Z</time>
      </trkpt>
      <trkpt lat="44.41249" lon="3.75042">
        <ele>1373</ele>
        <time>2009-07-10T10:56:58Z</time>
      </trkpt>
      <trkpt lat="44.41254" lon="3.75032">
        <ele>1373</ele>
        <time>2009-07-10T10:59:03Z</time>
      </trkpt>
      <trkpt lat="44.41253" lon="3.75033">
        <ele>1373</ele>
        <time>2009-07-10T10:59:46Z</time>
      </trkpt>
      <trkpt lat="44.41245" lon="3.75033">
        <ele>1372</ele>
        <time>2009-07-10T11:01:25Z</time>
      </trkpt>
      <trkpt lat="44.4125" lon="3.75027">
        <ele>1373</ele>
        <time>2009-07-10T11:03:20Z</time>
      </trkpt>
      <trkpt lat="44.4125" lon="3.75027">
        <ele>1373</ele>
        <time>2009-07-10T11:03:23Z</time>
      </trkpt>
      <trkpt lat="44.41227" lon="3.75026">
        <ele>1371</ele>
        <time>2009-07-10T11:03:32Z</time>
      </trkpt>
      <trkpt lat="44.41218" lon="3.75031">
        <ele>1367</ele>
        <time>2009-07-10T11:03:35Z</time>
      </trkpt>
      <trkpt lat="44.41202" lon="3.75039">
        <ele>1365</ele>
        <time>2009-07-10T11:03:40Z</time>
      </trkpt>
      <trkpt lat="44.41188" lon="3.75042">
        <ele>1363</ele>
        <time>2009-07-10T11:03:43Z</time>
      </trkpt>
      <trkpt lat="44.4117" lon="3.75034">
        <ele>1361</ele>
        <time>2009-07-10T11:03:48Z</time>
      </trkpt>
      <trkpt lat="44.41164" lon="3.75033">
        <ele>1360</ele>
        <time>2009-07-10T11:03:50Z</time>
      </trkpt>
      <trkpt lat="44.41159" lon="3.75034">
        <ele>1358</ele>
        <time>2009-07-10T11:03:52Z</time>
      </trkpt>
      <trkpt lat="44.41146" lon="3.75036">
        <ele>1358</ele>
        <time>2009-07-10T11:03:55Z</time>
      </trkpt>
      <trkpt lat="44.4113" lon="3.75037">
        <ele>1356</ele>
        <time>2009-07-10T11:03:59Z</time>
      </trkpt>
      <trkpt lat="44.4112" lon="3.75043">
        <ele>1354</ele>
        <time>2009-07-10T11:04:02Z</time>
      </trkpt>
      <trkpt lat="44.41112" lon="3.75045">
        <ele>1352</ele>
        <time>2009-07-10T11:04:04Z</time>
      </trkpt>
      <trkpt lat="44.41105" lon="3.75049">
        <ele>1351</ele>
        <time>2009-07-10T11:04:06Z</time>
      </trkpt>
      <trkpt lat="44.41088" lon="3.75046">
        <ele>1347</ele>
        <time>2009-07-10T11:04:11Z</time>
      </trkpt>
      <trkpt lat="44.41066" lon="3.75048">
        <ele>1345</ele>
        <time>2009-07-10T11:04:15Z</time>
      </trkpt>
      <trkpt lat="44.41056" lon="3.7505">
        <ele>1345</ele>
        <time>2009-07-10T11:04:17Z</time>
      </trkpt>
      <trkpt lat="44.41047" lon="3.75052">
        <ele>1343</ele>
        <time>2009-07-10T11:04:19Z</time>
      </trkpt>
      <trkpt lat="44.41018" lon="3.75055">
        <ele>1339</ele>
        <time>2009-07-10T11:04:25Z</time>
      </trkpt>
      <trkpt lat="44.41011" lon="3.75052">
        <ele>1338</ele>
        <time>2009-07-10T11:04:28Z</time>
      </trkpt>
      <trkpt lat="44.41" lon="3.75051">
        <ele>1337</ele>
        <time>2009-07-10T11:04:31Z</time>
      </trkpt>
      <trkpt lat="44.40982" lon="3.75059">
        <ele>1334</ele>
        <time>2009-07-10T11:04:37Z</time>
      </trkpt>
      <trkpt lat="44.40971" lon="3.75048">
        <ele>1331</ele>
        <time>2009-07-10T11:04:41Z</time>
      </trkpt>
      <trkpt lat="44.40969" lon="3.75045">
        <ele>1331</ele>
        <time>2009-07-10T11:04:42Z</time>
      </trkpt>
      <trkpt lat="44.40964" lon="3.75043">
        <ele>1330</ele>
        <time>2009-07-10T11:04:44Z</time>
      </trkpt>
      <trkpt lat="44.40949" lon="3.75054">
        <ele>1328</ele>
        <time>2009-07-10T11:04:49Z</time>
      </trkpt>
      <trkpt lat="44.40931" lon="3.75059">
        <ele>1326</ele>
        <time>2009-07-10T11:04:54Z</time>
      </trkpt>
      <trkpt lat="44.4092" lon="3.75074">
        <ele>1324</ele>
        <time>2009-07-10T11:05:04Z</time>
      </trkpt>
      <trkpt lat="44.4091" lon="3.75087">
        <ele>1322</ele>
        <time>2009-07-10T11:05:37Z</time>
      </trkpt>
      <trkpt lat="44.40898" lon="3.75088">
        <ele>1319</ele>
        <time>2009-07-10T11:05:41Z</time>
      </trkpt>
      <trkpt lat="44.40885" lon="3.7508">
        <ele>1317</ele>
        <time>2009-07-10T11:05:44Z</time>
      </trkpt>
      <trkpt lat="44.40869" lon="3.75073">
        <ele>1316</ele>
        <time>2009-07-10T11:05:47Z</time>
      </trkpt>
      <trkpt lat="44.4084" lon="3.75061">
        <ele>1315</ele>
        <time>2009-07-10T11:05:52Z</time>
      </trkpt>
      <trkpt lat="44.40826" lon="3.75055">
        <ele>1312</ele>
        <time>2009-07-10T11:05:54Z</time>
      </trkpt>
      <trkpt lat="44.40811" lon="3.75052">
        <ele>1311</ele>
        <time>2009-07-10T11:05:56Z</time>
      </trkpt>
      <trkpt lat="44.40784" lon="3.75053">
        <ele>1308</ele>
        <time>2009-07-10T11:05:59Z</time>
      </trkpt>
      <trkpt lat="44.40767" lon="3.75055">
        <ele>1307</ele>
        <time>2009-07-10T11:06:01Z</time>
      </trkpt>
      <trkpt lat="44.40733" lon="3.75051">
        <ele>1301</ele>
        <time>2009-07-10T11:06:05Z</time>
      </trkpt>
      <trkpt lat="44.40715" lon="3.75042">
        <ele>1299</ele>
        <time>2009-07-10T11:06:07Z</time>
      </trkpt>
      <trkpt lat="44.40684" lon="3.75017">
        <ele>1297</ele>
        <time>2009-07-10T11:06:11Z</time>
      </trkpt>
      <trkpt lat="44.40663" lon="3.74998">
        <ele>1295</ele>
        <time>2009-07-10T11:06:14Z</time>
      </trkpt>
      <trkpt lat="44.4064" lon="3.74956">
        <ele>1291</ele>
        <time>2009-07-10T11:06:18Z</time>
      </trkpt>
      <trkpt lat="44.40637" lon="3.74943">
        <ele>1290</ele>
        <time>2009-07-10T11:06:19Z</time>
      </trkpt>
      <trkpt lat="44.40631" lon="3.74917">
        <ele>1290</ele>
        <time>2009-07-10T11:06:21Z</time>
      </trkpt>
      <trkpt lat="44.40611" lon="3.74875">
        <ele>1286</ele>
        <time>2009-07-10T11:06:25Z</time>
      </trkpt>
      <trkpt lat="44.40598" lon="3.74839">
        <ele>1281</ele>
        <time>2009-07-10T11:06:28Z</time>
      </trkpt>
      <trkpt lat="44.40592" lon="3.74811">
        <ele>1280</ele>
        <time>2009-07-10T11:06:30Z</time>
      </trkpt>
      <trkpt lat="44.40573" lon="3.7476">
        <ele>1278</ele>
        <time>2009-07-10T11:06:34Z</time>
      </trkpt>
      <trkpt lat="44.40564" lon="3.7471">
        <ele>1274</ele>
        <time>2009-07-10T11:06:38Z</time>
      </trkpt>
      <trkpt lat="44.40565" lon="3.74699">
        <ele>1273</ele>
        <time>2009-07-10T11:06:39Z</time>
      </trkpt>
      <trkpt lat="44.40575" lon="3.74644">
        <ele>1272</ele>
        <time>2009-07-10T11:06:44Z</time>
      </trkpt>
      <trkpt lat="44.40588" lon="3.74607">
        <ele>1268</ele>
        <time>2009-07-10T11:06:48Z</time>
      </trkpt>
      <trkpt lat="44.40604" lon="3.74568">
        <ele>1265</ele>
        <time>2009-07-10T11:06:52Z</time>
      </trkpt>
      <trkpt lat="44.40608" lon="3.74545">
        <ele>1263</ele>
        <time>2009-07-10T11:06:54Z</time>
      </trkpt>
      <trkpt lat="44.40585" lon="3.74523">
        <ele>1263</ele>
        <time>2009-07-10T11:06:58Z</time>
      </trkpt>
      <trkpt lat="44.40567" lon="3.74534">
        <ele>1261</ele>
        <time>2009-07-10T11:07:00Z</time>
      </trkpt>
      <trkpt lat="44.40539" lon="3.74547">
        <ele>1257</ele>
        <time>2009-07-10T11:07:03Z</time>
      </trkpt>
      <trkpt lat="44.40509" lon="3.74542">
        <ele>1255</ele>
        <time>2009-07-10T11:07:06Z</time>
      </trkpt>
      <trkpt lat="44.40499" lon="3.74537">
        <ele>1254</ele>
        <time>2009-07-10T11:07:07Z</time>
      </trkpt>
      <trkpt lat="44.40469" lon="3.74518">
        <ele>1253</ele>
        <time>2009-07-10T11:07:10Z</time>
      </trkpt>
      <trkpt lat="44.40443" lon="3.7448">
        <ele>1248</ele>
        <time>2009-07-10T11:07:13Z</time>
      </trkpt>
      <trkpt lat="44.40431" lon="3.74451">
        <ele>1245</ele>
        <time>2009-07-10T11:07:15Z</time>
      </trkpt>
      <trkpt lat="44.40424" lon="3.74428">
        <ele>1246</ele>
        <time>2009-07-10T11:07:17Z</time>
      </trkpt>
      <trkpt lat="44.40407" lon="3.74426">
        <ele>1246</ele>
        <time>2009-07-10T11:07:22Z</time>
      </trkpt>
      <trkpt lat="44.40416" lon="3.7445">
        <ele>1244</ele>
        <time>2009-07-10T11:07:29Z</time>
      </trkpt>
      <trkpt lat="44.40418" lon="3.74452">
        <ele>1244</ele>
        <time>2009-07-10T11:07:42Z</time>
      </trkpt>
      <trkpt lat="44.40421" lon="3.74476">
        <ele>1243</ele>
        <time>2009-07-10T11:08:01Z</time>
      </trkpt>
      <trkpt lat="44.40419" lon="3.74483">
        <ele>1244</ele>
        <time>2009-07-10T11:08:13Z</time>
      </trkpt>
      <trkpt lat="44.40417" lon="3.74483">
        <ele>1243</ele>
        <time>2009-07-10T11:08:55Z</time>
      </trkpt>
      <trkpt lat="44.40411" lon="3.74497">
        <ele>1239</ele>
        <time>2009-07-10T11:09:01Z</time>
      </trkpt>
      <trkpt lat="44.40408" lon="3.74504">
        <ele>1238</ele>
        <time>2009-07-10T11:09:03Z</time>
      </trkpt>
      <trkpt lat="44.40407" lon="3.74508">
        <ele>1237</ele>
        <time>2009-07-10T11:09:04Z</time>
      </trkpt>
      <trkpt lat="44.40377" lon="3.74526">
        <ele>1235</ele>
        <time>2009-07-10T11:09:14Z</time>
      </trkpt>
      <trkpt lat="44.40366" lon="3.74532">
        <ele>1234</ele>
        <time>2009-07-10T11:09:17Z</time>
      </trkpt>
      <trkpt lat="44.40346" lon="3.74525">
        <ele>1233</ele>
        <time>2009-07-10T11:09:21Z</time>
      </trkpt>
      <trkpt lat="44.40323" lon="3.74498">
        <ele>1232</ele>
        <time>2009-07-10T11:09:26Z</time>
      </trkpt>
      <trkpt lat="44.40276" lon="3.74483">
        <ele>1229</ele>
        <time>2009-07-10T11:09:35Z</time>
      </trkpt>
      <trkpt lat="44.40269" lon="3.74479">
        <ele>1228</ele>
        <time>2009-07-10T11:09:36Z</time>
      </trkpt>
      <trkpt lat="44.40233" lon="3.74455">
        <ele>1224</ele>
        <time>2009-07-10T11:09:41Z</time>
      </trkpt>
      <trkpt lat="44.40203" lon="3.74435">
        <ele>1223</ele>
        <time>2009-07-10T11:09:45Z</time>
      </trkpt>
      <trkpt lat="44.40188" lon="3.74429">
        <ele>1222</ele>
        <time>2009-07-10T11:09:47Z</time>
      </trkpt>
      <trkpt lat="44.40162" lon="3.74431">
        <ele>1218</ele>
        <time>2009-07-10T11:09:50Z</time>
      </trkpt>
      <trkpt lat="44.40133" lon="3.7443">
        <ele>1215</ele>
        <time>2009-07-10T11:09:53Z</time>
      </trkpt>
      <trkpt lat="44.40123" lon="3.74429">
        <ele>1215</ele>
        <time>2009-07-10T11:09:54Z</time>
      </trkpt>
      <trkpt lat="44.40087" lon="3.7441">
        <ele>1214</ele>
        <time>2009-07-10T11:09:59Z</time>
      </trkpt>
      <trkpt lat="44.40082" lon="3.74393">
        <ele>1214</ele>
        <time>2009-07-10T11:10:01Z</time>
      </trkpt>
      <trkpt lat="44.40073" lon="3.7438">
        <ele>1213</ele>
        <time>2009-07-10T11:10:03Z</time>
      </trkpt>
      <trkpt lat="44.4006" lon="3.74376">
        <ele>1212</ele>
        <time>2009-07-10T11:10:05Z</time>
      </trkpt>
      <trkpt lat="44.40024" lon="3.74367">
        <ele>1212</ele>
        <time>2009-07-10T11:10:11Z</time>
      </trkpt>
      <trkpt lat="44.40018" lon="3.74372">
        <ele>1210</ele>
        <time>2009-07-10T11:10:14Z</time>
      </trkpt>
      <trkpt lat="44.40013" lon="3.7439">
        <ele>1210</ele>
        <time>2009-07-10T11:10:23Z</time>
      </trkpt>
      <trkpt lat="44.40009" lon="3.74406">
        <ele>1207</ele>
        <time>2009-07-10T11:10:27Z</time>
      </trkpt>
      <trkpt lat="44.40005" lon="3.74417">
        <ele>1206</ele>
        <time>2009-07-10T11:10:29Z</time>
      </trkpt>
      <trkpt lat="44.4" lon="3.74427">
        <ele>1204</ele>
        <time>2009-07-10T11:10:31Z</time>
      </trkpt>
      <trkpt lat="44.3998" lon="3.74439">
        <ele>1204</ele>
        <time>2009-07-10T11:10:36Z</time>
      </trkpt>
      <trkpt lat="44.39962" lon="3.74439">
        <ele>1204</ele>
        <time>2009-07-10T11:10:40Z</time>
      </trkpt>
      <trkpt lat="44.39941" lon="3.74445">
        <ele>1204</ele>
        <time>2009-07-10T11:10:45Z</time>
      </trkpt>
      <trkpt lat="44.39918" lon="3.74455">
        <ele>1199</ele>
        <time>2009-07-10T11:10:49Z</time>
      </trkpt>
      <trkpt lat="44.39904" lon="3.74458">
        <ele>1197</ele>
        <time>2009-07-10T11:10:51Z</time>
      </trkpt>
      <trkpt lat="44.39861" lon="3.74447">
        <ele>1200</ele>
        <time>2009-07-10T11:10:58Z</time>
      </trkpt>
      <trkpt lat="44.39845" lon="3.74442">
        <ele>1201</ele>
        <time>2009-07-10T11:11:02Z</time>
      </trkpt>
      <trkpt lat="44.39783" lon="3.7445">
        <ele>1196</ele>
        <time>2009-07-10T11:11:14Z</time>
      </trkpt>
      <trkpt lat="44.39762" lon="3.74485">
        <ele>1196</ele>
        <time>2009-07-10T11:11:22Z</time>
      </trkpt>
      <trkpt lat="44.39755" lon="3.745">
        <ele>1196</ele>
        <time>2009-07-10T11:11:25Z</time>
      </trkpt>
      <trkpt lat="44.39734" lon="3.74511">
        <ele>1195</ele>
        <time>2009-07-10T11:11:30Z</time>
      </trkpt>
      <trkpt lat="44.39709" lon="3.74511">
        <ele>1195</ele>
        <time>2009-07-10T11:11:35Z</time>
      </trkpt>
      <trkpt lat="44.39689" lon="3.74508">
        <ele>1195</ele>
        <time>2009-07-10T11:11:39Z</time>
      </trkpt>
      <trkpt lat="44.39669" lon="3.74512">
        <ele>1195</ele>
        <time>2009-07-10T11:11:43Z</time>
      </trkpt>
      <trkpt lat="44.39622" lon="3.74511">
        <ele>1194</ele>
        <time>2009-07-10T11:11:52Z</time>
      </trkpt>
      <trkpt lat="44.39563" lon="3.74525">
        <ele>1191</ele>
        <time>2009-07-10T11:12:01Z</time>
      </trkpt>
      <trkpt lat="44.395" lon="3.74536">
        <ele>1187</ele>
        <time>2009-07-10T11:12:09Z</time>
      </trkpt>
      <trkpt lat="44.39479" lon="3.7454">
        <ele>1188</ele>
        <time>2009-07-10T11:12:12Z</time>
      </trkpt>
      <trkpt lat="44.39459" lon="3.74549">
        <ele>1187</ele>
        <time>2009-07-10T11:12:15Z</time>
      </trkpt>
      <trkpt lat="44.39438" lon="3.74562">
        <ele>1185</ele>
        <time>2009-07-10T11:12:18Z</time>
      </trkpt>
      <trkpt lat="44.39431" lon="3.74568">
        <ele>1184</ele>
        <time>2009-07-10T11:12:19Z</time>
      </trkpt>
      <trkpt lat="44.39402" lon="3.74595">
        <ele>1182</ele>
        <time>2009-07-10T11:12:24Z</time>
      </trkpt>
      <trkpt lat="44.39367" lon="3.74614">
        <ele>1177</ele>
        <time>2009-07-10T11:12:30Z</time>
      </trkpt>
      <trkpt lat="44.3935" lon="3.74573">
        <ele>1174</ele>
        <time>2009-07-10T11:12:36Z</time>
      </trkpt>
      <trkpt lat="44.3935" lon="3.74567">
        <ele>1173</ele>
        <time>2009-07-10T11:12:37Z</time>
      </trkpt>
      <trkpt lat="44.39351" lon="3.74558">
        <ele>1174</ele>
        <time>2009-07-10T11:12:51Z</time>
      </trkpt>
      <trkpt lat="44.39352" lon="3.74551">
        <ele>1173</ele>
        <time>2009-07-10T11:13:20Z</time>
      </trkpt>
      <trkpt lat="44.3936" lon="3.74526">
        <ele>1172</ele>
        <time>2009-07-10T11:13:31Z</time>
      </trkpt>
      <trkpt lat="44.39366" lon="3.74513">
        <ele>1169</ele>
        <time>2009-07-10T11:13:34Z</time>
      </trkpt>
      <trkpt lat="44.39368" lon="3.74507">
        <ele>1168</ele>
        <time>2009-07-10T11:13:35Z</time>
      </trkpt>
      <trkpt lat="44.39377" lon="3.74486">
        <ele>1165</ele>
        <time>2009-07-10T11:13:38Z</time>
      </trkpt>
      <trkpt lat="44.39388" lon="3.7446">
        <ele>1162</ele>
        <time>2009-07-10T11:13:41Z</time>
      </trkpt>
      <trkpt lat="44.39377" lon="3.74407">
        <ele>1161</ele>
        <time>2009-07-10T11:13:47Z</time>
      </trkpt>
      <trkpt lat="44.39363" lon="3.74393">
        <ele>1163</ele>
        <time>2009-07-10T11:13:50Z</time>
      </trkpt>
      <trkpt lat="44.39353" lon="3.74374">
        <ele>1165</ele>
        <time>2009-07-10T11:13:54Z</time>
      </trkpt>
      <trkpt lat="44.39324" lon="3.74343">
        <ele>1167</ele>
        <time>2009-07-10T11:14:07Z</time>
      </trkpt>
      <trkpt lat="44.3928" lon="3.74348">
        <ele>1165</ele>
        <time>2009-07-10T11:14:20Z</time>
      </trkpt>
      <trkpt lat="44.39263" lon="3.7435">
        <ele>1164</ele>
        <time>2009-07-10T11:14:31Z</time>
      </trkpt>
      <trkpt lat="44.39261" lon="3.7435">
        <ele>1164</ele>
        <time>2009-07-10T11:14:53Z</time>
      </trkpt>
      <trkpt lat="44.39253" lon="3.7435">
        <ele>1163</ele>
        <time>2009-07-10T11:15:12Z</time>
      </trkpt>
      <trkpt lat="44.39231" lon="3.74353">
        <ele>1160</ele>
        <time>2009-07-10T11:15:19Z</time>
      </trkpt>
      <trkpt lat="44.39227" lon="3.74354">
        <ele>1159</ele>
        <time>2009-07-10T11:15:20Z</time>
      </trkpt>
      <trkpt lat="44.39206" lon="3.74346">
        <ele>1154</ele>
        <time>2009-07-10T11:15:24Z</time>
      </trkpt>
      <trkpt lat="44.39192" lon="3.74317">
        <ele>1156</ele>
        <time>2009-07-10T11:15:29Z</time>
      </trkpt>
      <trkpt lat="44.39185" lon="3.74307">
        <ele>1157</ele>
        <time>2009-07-10T11:15:32Z</time>
      </trkpt>
      <trkpt lat="44.39149" lon="3.743">
        <ele>1155</ele>
        <time>2009-07-10T11:15:42Z</time>
      </trkpt>
      <trkpt lat="44.39132" lon="3.74306">
        <ele>1155</ele>
        <time>2009-07-10T11:15:47Z</time>
      </trkpt>
      <trkpt lat="44.39125" lon="3.74313">
        <ele>1154</ele>
        <time>2009-07-10T11:15:49Z</time>
      </trkpt>
      <trkpt lat="44.39109" lon="3.74333">
        <ele>1151</ele>
        <time>2009-07-10T11:15:53Z</time>
      </trkpt>
      <trkpt lat="44.3909" lon="3.7435">
        <ele>1149</ele>
        <time>2009-07-10T11:15:57Z</time>
      </trkpt>
      <trkpt lat="44.39055" lon="3.74366">
        <ele>1149</ele>
        <time>2009-07-10T11:16:04Z</time>
      </trkpt>
      <trkpt lat="44.39037" lon="3.7438">
        <ele>1148</ele>
        <time>2009-07-10T11:16:08Z</time>
      </trkpt>
      <trkpt lat="44.39026" lon="3.74395">
        <ele>1148</ele>
        <time>2009-07-10T11:16:11Z</time>
      </trkpt>
      <trkpt lat="44.39001" lon="3.74423">
        <ele>1149</ele>
        <time>2009-07-10T11:16:18Z</time>
      </trkpt>
      <trkpt lat="44.3897" lon="3.74451">
        <ele>1152</ele>
        <time>2009-07-10T11:16:28Z</time>
      </trkpt>
      <trkpt lat="44.3891" lon="3.74478">
        <ele>1155</ele>
        <time>2009-07-10T11:16:44Z</time>
      </trkpt>
      <trkpt lat="44.38863" lon="3.74473">
        <ele>1154</ele>
        <time>2009-07-10T11:16:56Z</time>
      </trkpt>
      <trkpt lat="44.38856" lon="3.74471">
        <ele>1153</ele>
        <time>2009-07-10T11:16:58Z</time>
      </trkpt>
      <trkpt lat="44.3881" lon="3.74479">
        <ele>1148</ele>
        <time>2009-07-10T11:17:07Z</time>
      </trkpt>
      <trkpt lat="44.38803" lon="3.74481">
        <ele>1148</ele>
        <time>2009-07-10T11:17:08Z</time>
      </trkpt>
      <trkpt lat="44.38778" lon="3.74489">
        <ele>1146</ele>
        <time>2009-07-10T11:17:12Z</time>
      </trkpt>
      <trkpt lat="44.38742" lon="3.745">
        <ele>1145</ele>
        <time>2009-07-10T11:17:17Z</time>
      </trkpt>
      <trkpt lat="44.38712" lon="3.74522">
        <ele>1144</ele>
        <time>2009-07-10T11:17:22Z</time>
      </trkpt>
      <trkpt lat="44.38699" lon="3.74534">
        <ele>1144</ele>
        <time>2009-07-10T11:17:25Z</time>
      </trkpt>
      <trkpt lat="44.38684" lon="3.74542">
        <ele>1143</ele>
        <time>2009-07-10T11:17:28Z</time>
      </trkpt>
      <trkpt lat="44.38662" lon="3.74547">
        <ele>1143</ele>
        <time>2009-07-10T11:17:38Z</time>
      </trkpt>
      <trkpt lat="44.38658" lon="3.74547">
        <ele>1143</ele>
        <time>2009-07-10T11:18:09Z</time>
      </trkpt>
      <trkpt lat="44.38611" lon="3.7453">
        <ele>1141</ele>
        <time>2009-07-10T11:18:21Z</time>
      </trkpt>
      <trkpt lat="44.38606" lon="3.74528">
        <ele>1140</ele>
        <time>2009-07-10T11:18:22Z</time>
      </trkpt>
      <trkpt lat="44.38569" lon="3.74495">
        <ele>1136</ele>
        <time>2009-07-10T11:18:29Z</time>
      </trkpt>
      <trkpt lat="44.38563" lon="3.7449">
        <ele>1136</ele>
        <time>2009-07-10T11:18:30Z</time>
      </trkpt>
      <trkpt lat="44.38557" lon="3.74485">
        <ele>1136</ele>
        <time>2009-07-10T11:18:31Z</time>
      </trkpt>
      <trkpt lat="44.38534" lon="3.74466">
        <ele>1137</ele>
        <time>2009-07-10T11:18:37Z</time>
      </trkpt>
      <trkpt lat="44.38519" lon="3.74463">
        <ele>1137</ele>
        <time>2009-07-10T11:18:40Z</time>
      </trkpt>
      <trkpt lat="44.38488" lon="3.74473">
        <ele>1134</ele>
        <time>2009-07-10T11:18:46Z</time>
      </trkpt>
      <trkpt lat="44.38441" lon="3.74479">
        <ele>1134</ele>
        <time>2009-07-10T11:18:54Z</time>
      </trkpt>
      <trkpt lat="44.38432" lon="3.74476">
        <ele>1135</ele>
        <time>2009-07-10T11:18:56Z</time>
      </trkpt>
      <trkpt lat="44.38414" lon="3.74464">
        <ele>1135</ele>
        <time>2009-07-10T11:19:01Z</time>
      </trkpt>
      <trkpt lat="44.38388" lon="3.74456">
        <ele>1132</ele>
        <time>2009-07-10T11:19:06Z</time>
      </trkpt>
      <trkpt lat="44.38354" lon="3.74457">
        <ele>1131</ele>
        <time>2009-07-10T11:19:11Z</time>
      </trkpt>
      <trkpt lat="44.38335" lon="3.7445">
        <ele>1131</ele>
        <time>2009-07-10T11:19:14Z</time>
      </trkpt>
      <trkpt lat="44.38306" lon="3.74449">
        <ele>1129</ele>
        <time>2009-07-10T11:19:19Z</time>
      </trkpt>
      <trkpt lat="44.38293" lon="3.74463">
        <ele>1130</ele>
        <time>2009-07-10T11:19:22Z</time>
      </trkpt>
      <trkpt lat="44.38258" lon="3.74497">
        <ele>1129</ele>
        <time>2009-07-10T11:19:31Z</time>
      </trkpt>
      <trkpt lat="44.38241" lon="3.74506">
        <ele>1128</ele>
        <time>2009-07-10T11:19:35Z</time>
      </trkpt>
      <trkpt lat="44.3823" lon="3.74516">
        <ele>1129</ele>
        <time>2009-07-10T11:19:38Z</time>
      </trkpt>
      <trkpt lat="44.38203" lon="3.74518">
        <ele>1129</ele>
        <time>2009-07-10T11:19:45Z</time>
      </trkpt>
      <trkpt lat="44.38176" lon="3.74508">
        <ele>1129</ele>
        <time>2009-07-10T11:19:53Z</time>
      </trkpt>
      <trkpt lat="44.38155" lon="3.74497">
        <ele>1126</ele>
        <time>2009-07-10T11:19:57Z</time>
      </trkpt>
      <trkpt lat="44.38119" lon="3.7448">
        <ele>1126</ele>
        <time>2009-07-10T11:20:03Z</time>
      </trkpt>
      <trkpt lat="44.38086" lon="3.7447">
        <ele>1124</ele>
        <time>2009-07-10T11:20:10Z</time>
      </trkpt>
      <trkpt lat="44.38069" lon="3.74479">
        <ele>1122</ele>
        <time>2009-07-10T11:20:15Z</time>
      </trkpt>
      <trkpt lat="44.38052" lon="3.7447">
        <ele>1117</ele>
        <time>2009-07-10T11:20:22Z</time>
      </trkpt>
      <trkpt lat="44.38044" lon="3.7445">
        <ele>1113</ele>
        <time>2009-07-10T11:20:26Z</time>
      </trkpt>
      <trkpt lat="44.38035" lon="3.74446">
        <ele>1112</ele>
        <time>2009-07-10T11:20:28Z</time>
      </trkpt>
      <trkpt lat="44.38031" lon="3.74447">
        <ele>1111</ele>
        <time>2009-07-10T11:20:29Z</time>
      </trkpt>
      <trkpt lat="44.38021" lon="3.7445">
        <ele>1111</ele>
        <time>2009-07-10T11:20:33Z</time>
      </trkpt>
      <trkpt lat="44.38019" lon="3.74455">
        <ele>1111</ele>
        <time>2009-07-10T11:20:48Z</time>
      </trkpt>
      <trkpt lat="44.38012" lon="3.74483">
        <ele>1111</ele>
        <time>2009-07-10T11:21:03Z</time>
      </trkpt>
      <trkpt lat="44.38009" lon="3.74506">
        <ele>1109</ele>
        <time>2009-07-10T11:21:08Z</time>
      </trkpt>
      <trkpt lat="44.38022" lon="3.74569">
        <ele>1110</ele>
        <time>2009-07-10T11:21:19Z</time>
      </trkpt>
      <trkpt lat="44.38031" lon="3.74592">
        <ele>1108</ele>
        <time>2009-07-10T11:21:23Z</time>
      </trkpt>
      <trkpt lat="44.38039" lon="3.74611">
        <ele>1107</ele>
        <time>2009-07-10T11:21:26Z</time>
      </trkpt>
      <trkpt lat="44.3805" lon="3.7463">
        <ele>1105</ele>
        <time>2009-07-10T11:21:29Z</time>
      </trkpt>
      <trkpt lat="44.38072" lon="3.74655">
        <ele>1101</ele>
        <time>2009-07-10T11:21:33Z</time>
      </trkpt>
      <trkpt lat="44.38086" lon="3.74667">
        <ele>1100</ele>
        <time>2009-07-10T11:21:35Z</time>
      </trkpt>
      <trkpt lat="44.38093" lon="3.74674">
        <ele>1100</ele>
        <time>2009-07-10T11:21:36Z</time>
      </trkpt>
      <trkpt lat="44.38111" lon="3.74702">
        <ele>1098</ele>
        <time>2009-07-10T11:21:39Z</time>
      </trkpt>
      <trkpt lat="44.38127" lon="3.74732">
        <ele>1095</ele>
        <time>2009-07-10T11:21:42Z</time>
      </trkpt>
      <trkpt lat="44.3815" lon="3.74785">
        <ele>1092</ele>
        <time>2009-07-10T11:21:47Z</time>
      </trkpt>
      <trkpt lat="44.38154" lon="3.74855">
        <ele>1092</ele>
        <time>2009-07-10T11:21:53Z</time>
      </trkpt>
      <trkpt lat="44.38164" lon="3.74947">
        <ele>1084</ele>
        <time>2009-07-10T11:22:02Z</time>
      </trkpt>
      <trkpt lat="44.38179" lon="3.74957">
        <ele>1083</ele>
        <time>2009-07-10T11:22:05Z</time>
      </trkpt>
      <trkpt lat="44.38205" lon="3.74978">
        <ele>1082</ele>
        <time>2009-07-10T11:22:14Z</time>
      </trkpt>
      <trkpt lat="44.38189" lon="3.74978">
        <ele>1080</ele>
        <time>2009-07-10T11:22:21Z</time>
      </trkpt>
      <trkpt lat="44.38166" lon="3.74967">
        <ele>1077</ele>
        <time>2009-07-10T11:22:26Z</time>
      </trkpt>
      <trkpt lat="44.38144" lon="3.74964">
        <ele>1076</ele>
        <time>2009-07-10T11:22:32Z</time>
      </trkpt>
      <trkpt lat="44.38142" lon="3.74968">
        <ele>1076</ele>
        <time>2009-07-10T11:22:45Z</time>
      </trkpt>
      <trkpt lat="44.38143" lon="3.7497">
        <ele>1076</ele>
        <time>2009-07-10T11:23:05Z</time>
      </trkpt>
      <trkpt lat="44.3815" lon="3.74974">
        <ele>1075</ele>
        <time>2009-07-10T11:23:17Z</time>
      </trkpt>
      <trkpt lat="44.38178" lon="3.7499">
        <ele>1070</ele>
        <time>2009-07-10T11:23:28Z</time>
      </trkpt>
      <trkpt lat="44.3818" lon="3.74993">
        <ele>1070</ele>
        <time>2009-07-10T11:23:29Z</time>
      </trkpt>
      <trkpt lat="44.3819" lon="3.75014">
        <ele>1068</ele>
        <time>2009-07-10T11:23:35Z</time>
      </trkpt>
      <trkpt lat="44.38216" lon="3.75023">
        <ele>1064</ele>
        <time>2009-07-10T11:23:43Z</time>
      </trkpt>
      <trkpt lat="44.38238" lon="3.75032">
        <ele>1063</ele>
        <time>2009-07-10T11:23:49Z</time>
      </trkpt>
      <trkpt lat="44.38253" lon="3.75038">
        <ele>1061</ele>
        <time>2009-07-10T11:23:53Z</time>
      </trkpt>
      <trkpt lat="44.38268" lon="3.75041">
        <ele>1058</ele>
        <time>2009-07-10T11:23:57Z</time>
      </trkpt>
      <trkpt lat="44.38272" lon="3.75042">
        <ele>1058</ele>
        <time>2009-07-10T11:23:58Z</time>
      </trkpt>
      <trkpt lat="44.38289" lon="3.75048">
        <ele>1056</ele>
        <time>2009-07-10T11:24:02Z</time>
      </trkpt>
      <trkpt lat="44.38312" lon="3.75058">
        <ele>1053</ele>
        <time>2009-07-10T11:24:07Z</time>
      </trkpt>
      <trkpt lat="44.38323" lon="3.75063">
        <ele>1051</ele>
        <time>2009-07-10T11:24:10Z</time>
      </trkpt>
      <trkpt lat="44.38329" lon="3.75066">
        <ele>1050</ele>
        <time>2009-07-10T11:24:20Z</time>
      </trkpt>
      <trkpt lat="44.3833" lon="3.75067">
        <ele>1050</ele>
        <time>2009-07-10T11:24:35Z</time>
      </trkpt>
      <trkpt lat="44.38337" lon="3.75072">
        <ele>1048</ele>
        <time>2009-07-10T11:24:40Z</time>
      </trkpt>
      <trkpt lat="44.3834" lon="3.75074">
        <ele>1048</ele>
        <time>2009-07-10T11:24:41Z</time>
      </trkpt>
      <trkpt lat="44.38336" lon="3.75084">
        <ele>1046</ele>
        <time>2009-07-10T11:24:46Z</time>
      </trkpt>
      <trkpt lat="44.38332" lon="3.75091">
        <ele>1044</ele>
        <time>2009-07-10T11:24:51Z</time>
      </trkpt>
      <trkpt lat="44.3835" lon="3.75094">
        <ele>1041</ele>
        <time>2009-07-10T11:24:58Z</time>
      </trkpt>
      <trkpt lat="44.38364" lon="3.75094">
        <ele>1039</ele>
        <time>2009-07-10T11:25:01Z</time>
      </trkpt>
      <trkpt lat="44.38385" lon="3.75103">
        <ele>1037</ele>
        <time>2009-07-10T11:25:08Z</time>
      </trkpt>
      <trkpt lat="44.38385" lon="3.75108">
        <ele>1037</ele>
        <time>2009-07-10T11:25:10Z</time>
      </trkpt>
      <trkpt lat="44.38385" lon="3.75115">
        <ele>1036</ele>
        <time>2009-07-10T11:25:23Z</time>
      </trkpt>
      <trkpt lat="44.38389" lon="3.75113">
        <ele>1035</ele>
        <time>2009-07-10T11:26:13Z</time>
      </trkpt>
      <trkpt lat="44.38391" lon="3.75121">
        <ele>1035</ele>
        <time>2009-07-10T11:26:28Z</time>
      </trkpt>
      <trkpt lat="44.3839" lon="3.75127">
        <ele>1035</ele>
        <time>2009-07-10T11:26:53Z</time>
      </trkpt>
      <trkpt lat="44.38387" lon="3.7513">
        <ele>1035</ele>
        <time>2009-07-10T11:26:58Z</time>
      </trkpt>
      <trkpt lat="44.38377" lon="3.75132">
        <ele>1036</ele>
        <time>2009-07-10T11:27:11Z</time>
      </trkpt>
      <trkpt lat="44.38373" lon="3.7513">
        <ele>1037</ele>
        <time>2009-07-10T11:27:35Z</time>
      </trkpt>
      <trkpt lat="44.38369" lon="3.75132">
        <ele>1037</ele>
        <time>2009-07-10T11:27:39Z</time>
      </trkpt>
      <trkpt lat="44.38359" lon="3.7514">
        <ele>1037</ele>
        <time>2009-07-10T11:27:45Z</time>
      </trkpt>
      <trkpt lat="44.38336" lon="3.75164">
        <ele>1035</ele>
        <time>2009-07-10T11:27:56Z</time>
      </trkpt>
      <trkpt lat="44.38333" lon="3.75176">
        <ele>1036</ele>
        <time>2009-07-10T11:28:05Z</time>
      </trkpt>
      <trkpt lat="44.38327" lon="3.75192">
        <ele>1036</ele>
        <time>2009-07-10T11:28:19Z</time>
      </trkpt>
      <trkpt lat="44.38323" lon="3.75193">
        <ele>1036</ele>
        <time>2009-07-10T11:28:34Z</time>
      </trkpt>
      <trkpt lat="44.3832" lon="3.75195">
        <ele>1036</ele>
        <time>2009-07-10T11:28:41Z</time>
      </trkpt>
      <trkpt lat="44.38315" lon="3.75197">
        <ele>1036</ele>
        <time>2009-07-10T11:28:55Z</time>
      </trkpt>
      <trkpt lat="44.38297" lon="3.75199">
        <ele>1035</ele>
        <time>2009-07-10T11:29:03Z</time>
      </trkpt>
      <trkpt lat="44.38291" lon="3.75206">
        <ele>1037</ele>
        <time>2009-07-10T11:29:07Z</time>
      </trkpt>
      <trkpt lat="44.38287" lon="3.75211">
        <ele>1038</ele>
        <time>2009-07-10T11:29:10Z</time>
      </trkpt>
      <trkpt lat="44.38246" lon="3.75216">
        <ele>1036</ele>
        <time>2009-07-10T11:29:25Z</time>
      </trkpt>
      <trkpt lat="44.38219" lon="3.75217">
        <ele>1033</ele>
        <time>2009-07-10T11:29:32Z</time>
      </trkpt>
      <trkpt lat="44.38186" lon="3.75221">
        <ele>1033</ele>
        <time>2009-07-10T11:29:42Z</time>
      </trkpt>
      <trkpt lat="44.38159" lon="3.75224">
        <ele>1033</ele>
        <time>2009-07-10T11:29:50Z</time>
      </trkpt>
      <trkpt lat="44.38115" lon="3.75215">
        <ele>1031</ele>
        <time>2009-07-10T11:30:01Z</time>
      </trkpt>
      <trkpt lat="44.38078" lon="3.75213">
        <ele>1030</ele>
        <time>2009-07-10T11:30:11Z</time>
      </trkpt>
      <trkpt lat="44.38066" lon="3.75209">
        <ele>1030</ele>
        <time>2009-07-10T11:30:20Z</time>
      </trkpt>
      <trkpt lat="44.38065" lon="3.75206">
        <ele>1030</ele>
        <time>2009-07-10T11:30:34Z</time>
      </trkpt>
      <trkpt lat="44.38058" lon="3.75201">
        <ele>1030</ele>
        <time>2009-07-10T11:31:25Z</time>
      </trkpt>
      <trkpt lat="44.38032" lon="3.75205">
        <ele>1031</ele>
        <time>2009-07-10T11:31:37Z</time>
      </trkpt>
      <trkpt lat="44.38002" lon="3.75202">
        <ele>1032</ele>
        <time>2009-07-10T11:31:51Z</time>
      </trkpt>
      <trkpt lat="44.37936" lon="3.75182">
        <ele>1030</ele>
        <time>2009-07-10T11:32:09Z</time>
      </trkpt>
      <trkpt lat="44.3788" lon="3.75179">
        <ele>1031</ele>
        <time>2009-07-10T11:32:24Z</time>
      </trkpt>
      <trkpt lat="44.37832" lon="3.75185">
        <ele>1031</ele>
        <time>2009-07-10T11:32:38Z</time>
      </trkpt>
      <trkpt lat="44.37785" lon="3.75186">
        <ele>1031</ele>
        <time>2009-07-10T11:32:51Z</time>
      </trkpt>
      <trkpt lat="44.37727" lon="3.75193">
        <ele>1033</ele>
        <time>2009-07-10T11:33:08Z</time>
      </trkpt>
      <trkpt lat="44.37724" lon="3.75197">
        <ele>1032</ele>
        <time>2009-07-10T11:33:16Z</time>
      </trkpt>
      <trkpt lat="44.37725" lon="3.75198">
        <ele>1034</ele>
        <time>2009-07-10T11:34:39Z</time>
      </trkpt>
      <trkpt lat="44.37726" lon="3.75202">
        <ele>1034</ele>
        <time>2009-07-10T11:34:47Z</time>
      </trkpt>
      <trkpt lat="44.37745" lon="3.75205">
        <ele>1036</ele>
        <time>2009-07-10T11:34:58Z</time>
      </trkpt>
      <trkpt lat="44.37792" lon="3.75218">
        <ele>1039</ele>
        <time>2009-07-10T11:35:17Z</time>
      </trkpt>
      <trkpt lat="44.37841" lon="3.75235">
        <ele>1042</ele>
        <time>2009-07-10T11:35:37Z</time>
      </trkpt>
      <trkpt lat="44.3788" lon="3.75231">
        <ele>1044</ele>
        <time>2009-07-10T11:35:52Z</time>
      </trkpt>
      <trkpt lat="44.37927" lon="3.75233">
        <ele>1047</ele>
        <time>2009-07-10T11:36:10Z</time>
      </trkpt>
      <trkpt lat="44.37965" lon="3.75245">
        <ele>1051</ele>
        <time>2009-07-10T11:36:25Z</time>
      </trkpt>
      <trkpt lat="44.38017" lon="3.75272">
        <ele>1052</ele>
        <time>2009-07-10T11:36:46Z</time>
      </trkpt>
      <trkpt lat="44.38056" lon="3.75281">
        <ele>1054</ele>
        <time>2009-07-10T11:37:02Z</time>
      </trkpt>
      <trkpt lat="44.38058" lon="3.75282">
        <ele>1055</ele>
        <time>2009-07-10T11:37:03Z</time>
      </trkpt>
      <trkpt lat="44.38067" lon="3.75278">
        <ele>1056</ele>
        <time>2009-07-10T11:37:07Z</time>
      </trkpt>
      <trkpt lat="44.381" lon="3.75277">
        <ele>1059</ele>
        <time>2009-07-10T11:37:20Z</time>
      </trkpt>
      <trkpt lat="44.38102" lon="3.75277">
        <ele>1059</ele>
        <time>2009-07-10T11:37:21Z</time>
      </trkpt>
      <trkpt lat="44.38108" lon="3.75277">
        <ele>1060</ele>
        <time>2009-07-10T11:37:23Z</time>
      </trkpt>
      <trkpt lat="44.38135" lon="3.75284">
        <ele>1062</ele>
        <time>2009-07-10T11:37:34Z</time>
      </trkpt>
      <trkpt lat="44.38168" lon="3.75282">
        <ele>1062</ele>
        <time>2009-07-10T11:37:47Z</time>
      </trkpt>
      <trkpt lat="44.38211" lon="3.75278">
        <ele>1063</ele>
        <time>2009-07-10T11:38:04Z</time>
      </trkpt>
      <trkpt lat="44.38252" lon="3.75298">
        <ele>1067</ele>
        <time>2009-07-10T11:38:21Z</time>
      </trkpt>
      <trkpt lat="44.38255" lon="3.75312">
        <ele>1069</ele>
        <time>2009-07-10T11:38:25Z</time>
      </trkpt>
      <trkpt lat="44.38254" lon="3.75359">
        <ele>1071</ele>
        <time>2009-07-10T11:38:38Z</time>
      </trkpt>
      <trkpt lat="44.38248" lon="3.75399">
        <ele>1072</ele>
        <time>2009-07-10T11:38:49Z</time>
      </trkpt>
      <trkpt lat="44.3824" lon="3.75462">
        <ele>1075</ele>
        <time>2009-07-10T11:39:07Z</time>
      </trkpt>
      <trkpt lat="44.3824" lon="3.75472">
        <ele>1076</ele>
        <time>2009-07-10T11:39:11Z</time>
      </trkpt>
      <trkpt lat="44.38241" lon="3.75474">
        <ele>1076</ele>
        <time>2009-07-10T11:39:25Z</time>
      </trkpt>
      <trkpt lat="44.38242" lon="3.75473">
        <ele>1077</ele>
        <time>2009-07-10T11:39:43Z</time>
      </trkpt>
      <trkpt lat="44.38241" lon="3.7547">
        <ele>1076</ele>
        <time>2009-07-10T11:39:46Z</time>
      </trkpt>
      <trkpt lat="44.38236" lon="3.75453">
        <ele>1079</ele>
        <time>2009-07-10T11:40:00Z</time>
      </trkpt>
      <trkpt lat="44.38232" lon="3.75443">
        <ele>1082</ele>
        <time>2009-07-10T11:40:12Z</time>
      </trkpt>
      <trkpt lat="44.3823" lon="3.75438">
        <ele>1083</ele>
        <time>2009-07-10T11:40:27Z</time>
      </trkpt>
      <trkpt lat="44.38224" lon="3.75423">
        <ele>1086</ele>
        <time>2009-07-10T11:40:36Z</time>
      </trkpt>
      <trkpt lat="44.38221" lon="3.75408">
        <ele>1088</ele>
        <time>2009-07-10T11:40:43Z</time>
      </trkpt>
      <trkpt lat="44.38222" lon="3.75394">
        <ele>1091</ele>
        <time>2009-07-10T11:40:50Z</time>
      </trkpt>
      <trkpt lat="44.38219" lon="3.75376">
        <ele>1094</ele>
        <time>2009-07-10T11:41:00Z</time>
      </trkpt>
      <trkpt lat="44.38203" lon="3.75362">
        <ele>1096</ele>
        <time>2009-07-10T11:41:16Z</time>
      </trkpt>
      <trkpt lat="44.38199" lon="3.75377">
        <ele>1099</ele>
        <time>2009-07-10T11:41:25Z</time>
      </trkpt>
      <trkpt lat="44.38197" lon="3.75383">
        <ele>1100</ele>
        <time>2009-07-10T11:41:29Z</time>
      </trkpt>
      <trkpt lat="44.38192" lon="3.75387">
        <ele>1100</ele>
        <time>2009-07-10T11:41:33Z</time>
      </trkpt>
      <trkpt lat="44.38172" lon="3.75396">
        <ele>1104</ele>
        <time>2009-07-10T11:41:49Z</time>
      </trkpt>
      <trkpt lat="44.38158" lon="3.75413">
        <ele>1108</ele>
        <time>2009-07-10T11:42:03Z</time>
      </trkpt>
      <trkpt lat="44.38152" lon="3.75423">
        <ele>1111</ele>
        <time>2009-07-10T11:42:11Z</time>
      </trkpt>
      <trkpt lat="44.3815" lon="3.75437">
        <ele>1113</ele>
        <time>2009-07-10T11:42:24Z</time>
      </trkpt>
      <trkpt lat="44.38146" lon="3.75449">
        <ele>1115</ele>
        <time>2009-07-10T11:42:37Z</time>
      </trkpt>
      <trkpt lat="44.38137" lon="3.75462">
        <ele>1116</ele>
        <time>2009-07-10T11:42:53Z</time>
      </trkpt>
      <trkpt lat="44.38133" lon="3.75467">
        <ele>1119</ele>
        <time>2009-07-10T11:43:00Z</time>
      </trkpt>
      <trkpt lat="44.38129" lon="3.75483">
        <ele>1122</ele>
        <time>2009-07-10T11:43:18Z</time>
      </trkpt>
      <trkpt lat="44.38133" lon="3.75489">
        <ele>1122</ele>
        <time>2009-07-10T11:43:29Z</time>
      </trkpt>
      <trkpt lat="44.38133" lon="3.75502">
        <ele>1125</ele>
        <time>2009-07-10T11:43:40Z</time>
      </trkpt>
      <trkpt lat="44.38132" lon="3.75503">
        <ele>1125</ele>
        <time>2009-07-10T11:43:41Z</time>
      </trkpt>
      <trkpt lat="44.38134" lon="3.75512">
        <ele>1128</ele>
        <time>2009-07-10T11:43:50Z</time>
      </trkpt>
      <trkpt lat="44.38134" lon="3.75515">
        <ele>1128</ele>
        <time>2009-07-10T11:44:02Z</time>
      </trkpt>
      <trkpt lat="44.38135" lon="3.75528">
        <ele>1129</ele>
        <time>2009-07-10T11:44:39Z</time>
      </trkpt>
      <trkpt lat="44.38133" lon="3.7553">
        <ele>1129</ele>
        <time>2009-07-10T11:44:54Z</time>
      </trkpt>
      <trkpt lat="44.38133" lon="3.75533">
        <ele>1129</ele>
        <time>2009-07-10T11:45:28Z</time>
      </trkpt>
      <trkpt lat="44.38136" lon="3.75547">
        <ele>1131</ele>
        <time>2009-07-10T11:45:39Z</time>
      </trkpt>
      <trkpt lat="44.38139" lon="3.75557">
        <ele>1133</ele>
        <time>2009-07-10T11:45:48Z</time>
      </trkpt>
      <trkpt lat="44.38144" lon="3.75576">
        <ele>1136</ele>
        <time>2009-07-10T11:46:03Z</time>
      </trkpt>
      <trkpt lat="44.38143" lon="3.75584">
        <ele>1137</ele>
        <time>2009-07-10T11:46:09Z</time>
      </trkpt>
      <trkpt lat="44.38145" lon="3.756">
        <ele>1139</ele>
        <time>2009-07-10T11:46:21Z</time>
      </trkpt>
      <trkpt lat="44.38144" lon="3.7561">
        <ele>1141</ele>
        <time>2009-07-10T11:46:37Z</time>
      </trkpt>
      <trkpt lat="44.38143" lon="3.7561">
        <ele>1140</ele>
        <time>2009-07-10T11:46:51Z</time>
      </trkpt>
      <trkpt lat="44.38142" lon="3.7561">
        <ele>1141</ele>
        <time>2009-07-10T11:46:54Z</time>
      </trkpt>
      <trkpt lat="44.38133" lon="3.75598">
        <ele>1141</ele>
        <time>2009-07-10T11:47:02Z</time>
      </trkpt>
      <trkpt lat="44.38115" lon="3.75593">
        <ele>1142</ele>
        <time>2009-07-10T11:47:18Z</time>
      </trkpt>
      <trkpt lat="44.38107" lon="3.75593">
        <ele>1143</ele>
        <time>2009-07-10T11:47:28Z</time>
      </trkpt>
      <trkpt lat="44.38093" lon="3.75596">
        <ele>1146</ele>
        <time>2009-07-10T11:47:40Z</time>
      </trkpt>
      <trkpt lat="44.3809" lon="3.75598">
        <ele>1146</ele>
        <time>2009-07-10T11:47:42Z</time>
      </trkpt>
      <trkpt lat="44.38084" lon="3.75598">
        <ele>1146</ele>
        <time>2009-07-10T11:47:46Z</time>
      </trkpt>
      <trkpt lat="44.38084" lon="3.75613">
        <ele>1146</ele>
        <time>2009-07-10T11:47:56Z</time>
      </trkpt>
      <trkpt lat="44.38084" lon="3.75615">
        <ele>1146</ele>
        <time>2009-07-10T11:47:59Z</time>
      </trkpt>
      <trkpt lat="44.38077" lon="3.75618">
        <ele>1146</ele>
        <time>2009-07-10T11:48:06Z</time>
      </trkpt>
      <trkpt lat="44.38073" lon="3.75621">
        <ele>1147</ele>
        <time>2009-07-10T11:48:10Z</time>
      </trkpt>
      <trkpt lat="44.38069" lon="3.75628">
        <ele>1150</ele>
        <time>2009-07-10T11:48:20Z</time>
      </trkpt>
      <trkpt lat="44.38069" lon="3.7563">
        <ele>1150</ele>
        <time>2009-07-10T11:48:23Z</time>
      </trkpt>
      <trkpt lat="44.38066" lon="3.75645">
        <ele>1154</ele>
        <time>2009-07-10T11:48:39Z</time>
      </trkpt>
      <trkpt lat="44.3806" lon="3.75656">
        <ele>1156</ele>
        <time>2009-07-10T11:48:56Z</time>
      </trkpt>
      <trkpt lat="44.38059" lon="3.75673">
        <ele>1160</ele>
        <time>2009-07-10T11:49:13Z</time>
      </trkpt>
      <trkpt lat="44.38061" lon="3.75685">
        <ele>1162</ele>
        <time>2009-07-10T11:49:28Z</time>
      </trkpt>
      <trkpt lat="44.38062" lon="3.75699">
        <ele>1162</ele>
        <time>2009-07-10T11:49:45Z</time>
      </trkpt>
      <trkpt lat="44.3806" lon="3.75706">
        <ele>1165</ele>
        <time>2009-07-10T11:49:59Z</time>
      </trkpt>
      <trkpt lat="44.38061" lon="3.75709">
        <ele>1166</ele>
        <time>2009-07-10T11:50:02Z</time>
      </trkpt>
      <trkpt lat="44.3806" lon="3.75717">
        <ele>1169</ele>
        <time>2009-07-10T11:50:13Z</time>
      </trkpt>
      <trkpt lat="44.3806" lon="3.75719">
        <ele>1170</ele>
        <time>2009-07-10T11:50:15Z</time>
      </trkpt>
      <trkpt lat="44.38058" lon="3.75725">
        <ele>1172</ele>
        <time>2009-07-10T11:50:25Z</time>
      </trkpt>
      <trkpt lat="44.38053" lon="3.7573">
        <ele>1173</ele>
        <time>2009-07-10T11:50:37Z</time>
      </trkpt>
      <trkpt lat="44.38045" lon="3.75734">
        <ele>1175</ele>
        <time>2009-07-10T11:50:51Z</time>
      </trkpt>
      <trkpt lat="44.38042" lon="3.75738">
        <ele>1177</ele>
        <time>2009-07-10T11:51:06Z</time>
      </trkpt>
      <trkpt lat="44.3804" lon="3.75746">
        <ele>1178</ele>
        <time>2009-07-10T11:51:22Z</time>
      </trkpt>
      <trkpt lat="44.38041" lon="3.75749">
        <ele>1179</ele>
        <time>2009-07-10T11:51:28Z</time>
      </trkpt>
      <trkpt lat="44.38039" lon="3.75747">
        <ele>1178</ele>
        <time>2009-07-10T11:51:40Z</time>
      </trkpt>
      <trkpt lat="44.38039" lon="3.75745">
        <ele>1178</ele>
        <time>2009-07-10T11:51:54Z</time>
      </trkpt>
      <trkpt lat="44.38037" lon="3.75744">
        <ele>1180</ele>
        <time>2009-07-10T11:53:46Z</time>
      </trkpt>
      <trkpt lat="44.3803" lon="3.75742">
        <ele>1179</ele>
        <time>2009-07-10T11:53:58Z</time>
      </trkpt>
      <trkpt lat="44.38009" lon="3.75736">
        <ele>1180</ele>
        <time>2009-07-10T11:54:13Z</time>
      </trkpt>
      <trkpt lat="44.37995" lon="3.75731">
        <ele>1179</ele>
        <time>2009-07-10T11:54:24Z</time>
      </trkpt>
      <trkpt lat="44.37991" lon="3.75728">
        <ele>1179</ele>
        <time>2009-07-10T11:54:35Z</time>
      </trkpt>
      <trkpt lat="44.37991" lon="3.75729">
        <ele>1180</ele>
        <time>2009-07-10T11:54:47Z</time>
      </trkpt>
      <trkpt lat="44.37987" lon="3.75731">
        <ele>1180</ele>
        <time>2009-07-10T11:55:00Z</time>
      </trkpt>
      <trkpt lat="44.37978" lon="3.75735">
        <ele>1180</ele>
        <time>2009-07-10T11:55:11Z</time>
      </trkpt>
      <trkpt lat="44.37965" lon="3.75739">
        <ele>1180</ele>
        <time>2009-07-10T11:55:25Z</time>
      </trkpt>
      <trkpt lat="44.37965" lon="3.75739">
        <ele>1180</ele>
        <time>2009-07-10T11:55:27Z</time>
      </trkpt>
      <trkpt lat="44.37958" lon="3.75742">
        <ele>1180</ele>
        <time>2009-07-10T11:55:32Z</time>
      </trkpt>
      <trkpt lat="44.37934" lon="3.75736">
        <ele>1180</ele>
        <time>2009-07-10T11:55:44Z</time>
      </trkpt>
      <trkpt lat="44.37931" lon="3.75724">
        <ele>1180</ele>
        <time>2009-07-10T11:55:55Z</time>
      </trkpt>
      <trkpt lat="44.37926" lon="3.75714">
        <ele>1180</ele>
        <time>2009-07-10T11:56:07Z</time>
      </trkpt>
      <trkpt lat="44.3792" lon="3.75706">
        <ele>1181</ele>
        <time>2009-07-10T11:56:18Z</time>
      </trkpt>
      <trkpt lat="44.37915" lon="3.75685">
        <ele>1179</ele>
        <time>2009-07-10T11:56:27Z</time>
      </trkpt>
      <trkpt lat="44.37915" lon="3.75678">
        <ele>1178</ele>
        <time>2009-07-10T11:56:39Z</time>
      </trkpt>
      <trkpt lat="44.3791" lon="3.75671">
        <ele>1180</ele>
        <time>2009-07-10T11:56:50Z</time>
      </trkpt>
      <trkpt lat="44.37904" lon="3.75659">
        <ele>1179</ele>
        <time>2009-07-10T11:57:01Z</time>
      </trkpt>
      <trkpt lat="44.37898" lon="3.75651">
        <ele>1178</ele>
        <time>2009-07-10T11:57:12Z</time>
      </trkpt>
      <trkpt lat="44.37896" lon="3.7565">
        <ele>1178</ele>
        <time>2009-07-10T11:57:14Z</time>
      </trkpt>
      <trkpt lat="44.37891" lon="3.7565">
        <ele>1180</ele>
        <time>2009-07-10T11:57:22Z</time>
      </trkpt>
      <trkpt lat="44.37881" lon="3.75639">
        <ele>1179</ele>
        <time>2009-07-10T11:57:33Z</time>
      </trkpt>
      <trkpt lat="44.37879" lon="3.75637">
        <ele>1179</ele>
        <time>2009-07-10T11:57:44Z</time>
      </trkpt>
      <trkpt lat="44.3787" lon="3.75629">
        <ele>1178</ele>
        <time>2009-07-10T11:57:55Z</time>
      </trkpt>
      <trkpt lat="44.37866" lon="3.75627">
        <ele>1178</ele>
        <time>2009-07-10T11:58:04Z</time>
      </trkpt>
      <trkpt lat="44.37866" lon="3.75627">
        <ele>1179</ele>
        <time>2009-07-10T11:58:05Z</time>
      </trkpt>
      <trkpt lat="44.37864" lon="3.75626">
        <ele>1179</ele>
        <time>2009-07-10T11:58:07Z</time>
      </trkpt>
      <trkpt lat="44.3785" lon="3.75617">
        <ele>1179</ele>
        <time>2009-07-10T11:58:23Z</time>
      </trkpt>
      <trkpt lat="44.37848" lon="3.75617">
        <ele>1178</ele>
        <time>2009-07-10T11:58:25Z</time>
      </trkpt>
      <trkpt lat="44.37835" lon="3.75611">
        <ele>1179</ele>
        <time>2009-07-10T11:58:37Z</time>
      </trkpt>
      <trkpt lat="44.37817" lon="3.75604">
        <ele>1179</ele>
        <time>2009-07-10T11:58:46Z</time>
      </trkpt>
      <trkpt lat="44.37808" lon="3.75604">
        <ele>1179</ele>
        <time>2009-07-10T11:58:50Z</time>
      </trkpt>
      <trkpt lat="44.37786" lon="3.75605">
        <ele>1179</ele>
        <time>2009-07-10T11:59:03Z</time>
      </trkpt>
      <trkpt lat="44.3778" lon="3.75604">
        <ele>1179</ele>
        <time>2009-07-10T11:59:17Z</time>
      </trkpt>
      <trkpt lat="44.37779" lon="3.75605">
        <ele>1179</ele>
        <time>2009-07-10T11:59:19Z</time>
      </trkpt>
      <trkpt lat="44.37774" lon="3.7561">
        <ele>1180</ele>
        <time>2009-07-10T11:59:29Z</time>
      </trkpt>
      <trkpt lat="44.37773" lon="3.7561">
        <ele>1180</ele>
        <time>2009-07-10T11:59:30Z</time>
      </trkpt>
      <trkpt lat="44.37765" lon="3.75609">
        <ele>1180</ele>
        <time>2009-07-10T11:59:39Z</time>
      </trkpt>
      <trkpt lat="44.3776" lon="3.75608">
        <ele>1179</ele>
        <time>2009-07-10T11:59:46Z</time>
      </trkpt>
      <trkpt lat="44.37756" lon="3.75609">
        <ele>1179</ele>
        <time>2009-07-10T12:00:02Z</time>
      </trkpt>
      <trkpt lat="44.37755" lon="3.75609">
        <ele>1181</ele>
        <time>2009-07-10T12:00:04Z</time>
      </trkpt>
      <trkpt lat="44.37751" lon="3.75611">
        <ele>1181</ele>
        <time>2009-07-10T12:00:18Z</time>
      </trkpt>
      <trkpt lat="44.3775" lon="3.75613">
        <ele>1182</ele>
        <time>2009-07-10T12:00:21Z</time>
      </trkpt>
      <trkpt lat="44.3774" lon="3.75613">
        <ele>1182</ele>
        <time>2009-07-10T12:00:35Z</time>
      </trkpt>
      <trkpt lat="44.37734" lon="3.7561">
        <ele>1182</ele>
        <time>2009-07-10T12:00:46Z</time>
      </trkpt>
      <trkpt lat="44.37732" lon="3.75603">
        <ele>1179</ele>
        <time>2009-07-10T12:00:59Z</time>
      </trkpt>
      <trkpt lat="44.3773" lon="3.75595">
        <ele>1179</ele>
        <time>2009-07-10T12:01:13Z</time>
      </trkpt>
      <trkpt lat="44.37727" lon="3.75589">
        <ele>1179</ele>
        <time>2009-07-10T12:01:29Z</time>
      </trkpt>
      <trkpt lat="44.37727" lon="3.75589">
        <ele>1179</ele>
        <time>2009-07-10T12:02:05Z</time>
      </trkpt>
      <trkpt lat="44.37725" lon="3.75588">
        <ele>1178</ele>
        <time>2009-07-10T12:02:35Z</time>
      </trkpt>
      <trkpt lat="44.37717" lon="3.7558">
        <ele>1178</ele>
        <time>2009-07-10T12:02:41Z</time>
      </trkpt>
      <trkpt lat="44.37706" lon="3.7557">
        <ele>1179</ele>
        <time>2009-07-10T12:02:48Z</time>
      </trkpt>
      <trkpt lat="44.37681" lon="3.7556">
        <ele>1178</ele>
        <time>2009-07-10T12:03:01Z</time>
      </trkpt>
      <trkpt lat="44.37656" lon="3.75559">
        <ele>1178</ele>
        <time>2009-07-10T12:03:14Z</time>
      </trkpt>
      <trkpt lat="44.3764" lon="3.7556">
        <ele>1178</ele>
        <time>2009-07-10T12:03:26Z</time>
      </trkpt>
      <trkpt lat="44.37629" lon="3.75561">
        <ele>1178</ele>
        <time>2009-07-10T12:03:36Z</time>
      </trkpt>
      <trkpt lat="44.37618" lon="3.75562">
        <ele>1178</ele>
        <time>2009-07-10T12:03:47Z</time>
      </trkpt>
      <trkpt lat="44.37607" lon="3.75564">
        <ele>1178</ele>
        <time>2009-07-10T12:03:58Z</time>
      </trkpt>
      <trkpt lat="44.37603" lon="3.75564">
        <ele>1177</ele>
        <time>2009-07-10T12:04:08Z</time>
      </trkpt>
      <trkpt lat="44.37587" lon="3.75563">
        <ele>1177</ele>
        <time>2009-07-10T12:04:19Z</time>
      </trkpt>
      <trkpt lat="44.37578" lon="3.75565">
        <ele>1178</ele>
        <time>2009-07-10T12:04:24Z</time>
      </trkpt>
      <trkpt lat="44.37566" lon="3.75565">
        <ele>1177</ele>
        <time>2009-07-10T12:04:35Z</time>
      </trkpt>
      <trkpt lat="44.37562" lon="3.75564">
        <ele>1178</ele>
        <time>2009-07-10T12:04:40Z</time>
      </trkpt>
      <trkpt lat="44.37558" lon="3.75562">
        <ele>1178</ele>
        <time>2009-07-10T12:04:44Z</time>
      </trkpt>
      <trkpt lat="44.37539" lon="3.7556">
        <ele>1179</ele>
        <time>2009-07-10T12:05:00Z</time>
      </trkpt>
      <trkpt lat="44.37528" lon="3.7556">
        <ele>1179</ele>
        <time>2009-07-10T12:05:12Z</time>
      </trkpt>
      <trkpt lat="44.37527" lon="3.7556">
        <ele>1178</ele>
        <time>2009-07-10T12:05:13Z</time>
      </trkpt>
      <trkpt lat="44.37519" lon="3.75558">
        <ele>1178</ele>
        <time>2009-07-10T12:05:24Z</time>
      </trkpt>
      <trkpt lat="44.37514" lon="3.75555">
        <ele>1179</ele>
        <time>2009-07-10T12:05:35Z</time>
      </trkpt>
      <trkpt lat="44.37509" lon="3.75552">
        <ele>1179</ele>
        <time>2009-07-10T12:05:48Z</time>
      </trkpt>
      <trkpt lat="44.37506" lon="3.75556">
        <ele>1180</ele>
        <time>2009-07-10T12:06:01Z</time>
      </trkpt>
      <trkpt lat="44.375" lon="3.75557">
        <ele>1181</ele>
        <time>2009-07-10T12:06:15Z</time>
      </trkpt>
      <trkpt lat="44.37496" lon="3.75559">
        <ele>1182</ele>
        <time>2009-07-10T12:06:28Z</time>
      </trkpt>
      <trkpt lat="44.37491" lon="3.75556">
        <ele>1179</ele>
        <time>2009-07-10T12:06:41Z</time>
      </trkpt>
      <trkpt lat="44.37491" lon="3.75555">
        <ele>1179</ele>
        <time>2009-07-10T12:06:42Z</time>
      </trkpt>
      <trkpt lat="44.37487" lon="3.75552">
        <ele>1179</ele>
        <time>2009-07-10T12:06:57Z</time>
      </trkpt>
      <trkpt lat="44.37484" lon="3.75552">
        <ele>1180</ele>
        <time>2009-07-10T12:07:06Z</time>
      </trkpt>
      <trkpt lat="44.37482" lon="3.75554">
        <ele>1179</ele>
        <time>2009-07-10T12:07:08Z</time>
      </trkpt>
      <trkpt lat="44.37466" lon="3.75559">
        <ele>1179</ele>
        <time>2009-07-10T12:07:24Z</time>
      </trkpt>
      <trkpt lat="44.37461" lon="3.75561">
        <ele>1178</ele>
        <time>2009-07-10T12:07:34Z</time>
      </trkpt>
      <trkpt lat="44.37456" lon="3.75563">
        <ele>1177</ele>
        <time>2009-07-10T12:07:46Z</time>
      </trkpt>
      <trkpt lat="44.3745" lon="3.75564">
        <ele>1177</ele>
        <time>2009-07-10T12:07:55Z</time>
      </trkpt>
      <trkpt lat="44.37444" lon="3.75564">
        <ele>1176</ele>
        <time>2009-07-10T12:08:00Z</time>
      </trkpt>
      <trkpt lat="44.37432" lon="3.75567">
        <ele>1176</ele>
        <time>2009-07-10T12:08:12Z</time>
      </trkpt>
      <trkpt lat="44.37423" lon="3.75569">
        <ele>1178</ele>
        <time>2009-07-10T12:08:25Z</time>
      </trkpt>
      <trkpt lat="44.37419" lon="3.7557">
        <ele>1177</ele>
        <time>2009-07-10T12:08:45Z</time>
      </trkpt>
      <trkpt lat="44.37412" lon="3.7557">
        <ele>1176</ele>
        <time>2009-07-10T12:08:59Z</time>
      </trkpt>
      <trkpt lat="44.37408" lon="3.75573">
        <ele>1177</ele>
        <time>2009-07-10T12:09:09Z</time>
      </trkpt>
      <trkpt lat="44.37399" lon="3.75574">
        <ele>1176</ele>
        <time>2009-07-10T12:09:21Z</time>
      </trkpt>
      <trkpt lat="44.37392" lon="3.75579">
        <ele>1177</ele>
        <time>2009-07-10T12:09:33Z</time>
      </trkpt>
      <trkpt lat="44.3739" lon="3.75579">
        <ele>1178</ele>
        <time>2009-07-10T12:09:36Z</time>
      </trkpt>
      <trkpt lat="44.37381" lon="3.75583">
        <ele>1178</ele>
        <time>2009-07-10T12:09:51Z</time>
      </trkpt>
      <trkpt lat="44.37378" lon="3.75584">
        <ele>1177</ele>
        <time>2009-07-10T12:10:07Z</time>
      </trkpt>
      <trkpt lat="44.37378" lon="3.75585">
        <ele>1178</ele>
        <time>2009-07-10T12:10:13Z</time>
      </trkpt>
      <trkpt lat="44.37377" lon="3.75586">
        <ele>1178</ele>
        <time>2009-07-10T12:10:14Z</time>
      </trkpt>
      <trkpt lat="44.37372" lon="3.7559">
        <ele>1178</ele>
        <time>2009-07-10T12:10:22Z</time>
      </trkpt>
      <trkpt lat="44.3736" lon="3.75595">
        <ele>1177</ele>
        <time>2009-07-10T12:10:35Z</time>
      </trkpt>
      <trkpt lat="44.37358" lon="3.75599">
        <ele>1177</ele>
        <time>2009-07-10T12:10:39Z</time>
      </trkpt>
      <trkpt lat="44.37351" lon="3.75605">
        <ele>1176</ele>
        <time>2009-07-10T12:10:51Z</time>
      </trkpt>
      <trkpt lat="44.37347" lon="3.75609">
        <ele>1176</ele>
        <time>2009-07-10T12:11:03Z</time>
      </trkpt>
      <trkpt lat="44.37346" lon="3.75609">
        <ele>1176</ele>
        <time>2009-07-10T12:11:05Z</time>
      </trkpt>
      <trkpt lat="44.37343" lon="3.75609">
        <ele>1175</ele>
        <time>2009-07-10T12:11:09Z</time>
      </trkpt>
      <trkpt lat="44.3734" lon="3.75608">
        <ele>1175</ele>
        <time>2009-07-10T12:11:12Z</time>
      </trkpt>
      <trkpt lat="44.37326" lon="3.7561">
        <ele>1175</ele>
        <time>2009-07-10T12:11:25Z</time>
      </trkpt>
      <trkpt lat="44.37317" lon="3.75612">
        <ele>1176</ele>
        <time>2009-07-10T12:11:42Z</time>
      </trkpt>
      <trkpt lat="44.37314" lon="3.75612">
        <ele>1174</ele>
        <time>2009-07-10T12:11:55Z</time>
      </trkpt>
      <trkpt lat="44.37315" lon="3.7561">
        <ele>1176</ele>
        <time>2009-07-10T12:12:25Z</time>
      </trkpt>
      <trkpt lat="44.37317" lon="3.75611">
        <ele>1177</ele>
        <time>2009-07-10T12:12:29Z</time>
      </trkpt>
      <trkpt lat="44.37321" lon="3.75613">
        <ele>1176</ele>
        <time>2009-07-10T12:12:43Z</time>
      </trkpt>
      <trkpt lat="44.37325" lon="3.75619">
        <ele>1179</ele>
        <time>2009-07-10T12:12:56Z</time>
      </trkpt>
      <trkpt lat="44.37326" lon="3.75621">
        <ele>1180</ele>
        <time>2009-07-10T12:13:09Z</time>
      </trkpt>
      <trkpt lat="44.37325" lon="3.75626">
        <ele>1182</ele>
        <time>2009-07-10T12:13:21Z</time>
      </trkpt>
      <trkpt lat="44.37327" lon="3.75633">
        <ele>1185</ele>
        <time>2009-07-10T12:13:36Z</time>
      </trkpt>
      <trkpt lat="44.37324" lon="3.7564">
        <ele>1185</ele>
        <time>2009-07-10T12:13:49Z</time>
      </trkpt>
      <trkpt lat="44.37315" lon="3.75645">
        <ele>1187</ele>
        <time>2009-07-10T12:14:02Z</time>
      </trkpt>
      <trkpt lat="44.37309" lon="3.75649">
        <ele>1188</ele>
        <time>2009-07-10T12:14:16Z</time>
      </trkpt>
      <trkpt lat="44.37304" lon="3.75649">
        <ele>1185</ele>
        <time>2009-07-10T12:14:29Z</time>
      </trkpt>
      <trkpt lat="44.373" lon="3.75646">
        <ele>1184</ele>
        <time>2009-07-10T12:14:38Z</time>
      </trkpt>
      <trkpt lat="44.37292" lon="3.75645">
        <ele>1183</ele>
        <time>2009-07-10T12:14:51Z</time>
      </trkpt>
      <trkpt lat="44.37284" lon="3.7565">
        <ele>1184</ele>
        <time>2009-07-10T12:15:03Z</time>
      </trkpt>
      <trkpt lat="44.37274" lon="3.75652">
        <ele>1185</ele>
        <time>2009-07-10T12:15:17Z</time>
      </trkpt>
      <trkpt lat="44.3727" lon="3.75653">
        <ele>1185</ele>
        <time>2009-07-10T12:15:21Z</time>
      </trkpt>
      <trkpt lat="44.37265" lon="3.75652">
        <ele>1185</ele>
        <time>2009-07-10T12:15:30Z</time>
      </trkpt>
      <trkpt lat="44.37256" lon="3.75647">
        <ele>1184</ele>
        <time>2009-07-10T12:15:43Z</time>
      </trkpt>
      <trkpt lat="44.37249" lon="3.75641">
        <ele>1185</ele>
        <time>2009-07-10T12:16:02Z</time>
      </trkpt>
      <trkpt lat="44.37247" lon="3.75638">
        <ele>1185</ele>
        <time>2009-07-10T12:16:04Z</time>
      </trkpt>
      <trkpt lat="44.37237" lon="3.75634">
        <ele>1185</ele>
        <time>2009-07-10T12:16:19Z</time>
      </trkpt>
      <trkpt lat="44.37234" lon="3.75635">
        <ele>1186</ele>
        <time>2009-07-10T12:16:30Z</time>
      </trkpt>
      <trkpt lat="44.3723" lon="3.75635">
        <ele>1185</ele>
        <time>2009-07-10T12:16:43Z</time>
      </trkpt>
      <trkpt lat="44.37228" lon="3.75633">
        <ele>1185</ele>
        <time>2009-07-10T12:17:00Z</time>
      </trkpt>
      <trkpt lat="44.37226" lon="3.75632">
        <ele>1185</ele>
        <time>2009-07-10T12:17:15Z</time>
      </trkpt>
      <trkpt lat="44.37224" lon="3.7563">
        <ele>1184</ele>
        <time>2009-07-10T12:17:22Z</time>
      </trkpt>
      <trkpt lat="44.37225" lon="3.7563">
        <ele>1184</ele>
        <time>2009-07-10T12:17:42Z</time>
      </trkpt>
      <trkpt lat="44.37225" lon="3.7563">
        <ele>1185</ele>
        <time>2009-07-10T12:17:47Z</time>
      </trkpt>
      <trkpt lat="44.37222" lon="3.75623">
        <ele>1181</ele>
        <time>2009-07-10T12:18:00Z</time>
      </trkpt>
      <trkpt lat="44.37221" lon="3.75618">
        <ele>1180</ele>
        <time>2009-07-10T12:18:14Z</time>
      </trkpt>
      <trkpt lat="44.37219" lon="3.75614">
        <ele>1176</ele>
        <time>2009-07-10T12:18:26Z</time>
      </trkpt>
      <trkpt lat="44.37219" lon="3.75609">
        <ele>1176</ele>
        <time>2009-07-10T12:18:34Z</time>
      </trkpt>
      <trkpt lat="44.37217" lon="3.75605">
        <ele>1175</ele>
        <time>2009-07-10T12:18:44Z</time>
      </trkpt>
      <trkpt lat="44.37207" lon="3.75604">
        <ele>1176</ele>
        <time>2009-07-10T12:18:55Z</time>
      </trkpt>
      <trkpt lat="44.37199" lon="3.75603">
        <ele>1175</ele>
        <time>2009-07-10T12:19:08Z</time>
      </trkpt>
      <trkpt lat="44.37194" lon="3.75603">
        <ele>1176</ele>
        <time>2009-07-10T12:19:16Z</time>
      </trkpt>
      <trkpt lat="44.37186" lon="3.75605">
        <ele>1177</ele>
        <time>2009-07-10T12:19:30Z</time>
      </trkpt>
      <trkpt lat="44.37171" lon="3.75603">
        <ele>1177</ele>
        <time>2009-07-10T12:19:50Z</time>
      </trkpt>
      <trkpt lat="44.37161" lon="3.75599">
        <ele>1176</ele>
        <time>2009-07-10T12:20:03Z</time>
      </trkpt>
      <trkpt lat="44.37159" lon="3.75599">
        <ele>1176</ele>
        <time>2009-07-10T12:20:05Z</time>
      </trkpt>
      <trkpt lat="44.37149" lon="3.75593">
        <ele>1175</ele>
        <time>2009-07-10T12:20:21Z</time>
      </trkpt>
      <trkpt lat="44.37148" lon="3.75594">
        <ele>1175</ele>
        <time>2009-07-10T12:20:31Z</time>
      </trkpt>
      <trkpt lat="44.37121" lon="3.7559">
        <ele>1177</ele>
        <time>2009-07-10T12:20:46Z</time>
      </trkpt>
      <trkpt lat="44.37111" lon="3.75589">
        <ele>1177</ele>
        <time>2009-07-10T12:20:52Z</time>
      </trkpt>
      <trkpt lat="44.37101" lon="3.75587">
        <ele>1177</ele>
        <time>2009-07-10T12:21:05Z</time>
      </trkpt>
      <trkpt lat="44.37096" lon="3.75589">
        <ele>1175</ele>
        <time>2009-07-10T12:21:18Z</time>
      </trkpt>
      <trkpt lat="44.3709" lon="3.75591">
        <ele>1176</ele>
        <time>2009-07-10T12:21:32Z</time>
      </trkpt>
      <trkpt lat="44.37081" lon="3.75592">
        <ele>1175</ele>
        <time>2009-07-10T12:21:39Z</time>
      </trkpt>
      <trkpt lat="44.37059" lon="3.75594">
        <ele>1177</ele>
        <time>2009-07-10T12:21:53Z</time>
      </trkpt>
      <trkpt lat="44.37056" lon="3.75597">
        <ele>1176</ele>
        <time>2009-07-10T12:22:07Z</time>
      </trkpt>
      <trkpt lat="44.37056" lon="3.75597">
        <ele>1176</ele>
        <time>2009-07-10T12:22:08Z</time>
      </trkpt>
      <trkpt lat="44.37052" lon="3.756">
        <ele>1176</ele>
        <time>2009-07-10T12:22:12Z</time>
      </trkpt>
      <trkpt lat="44.37042" lon="3.75605">
        <ele>1177</ele>
        <time>2009-07-10T12:22:26Z</time>
      </trkpt>
      <trkpt lat="44.37039" lon="3.75605">
        <ele>1175</ele>
        <time>2009-07-10T12:22:32Z</time>
      </trkpt>
      <trkpt lat="44.37031" lon="3.75606">
        <ele>1175</ele>
        <time>2009-07-10T12:22:41Z</time>
      </trkpt>
      <trkpt lat="44.3702" lon="3.7561">
        <ele>1175</ele>
        <time>2009-07-10T12:22:54Z</time>
      </trkpt>
      <trkpt lat="44.37004" lon="3.75615">
        <ele>1175</ele>
        <time>2009-07-10T12:23:08Z</time>
      </trkpt>
      <trkpt lat="44.37001" lon="3.75616">
        <ele>1175</ele>
        <time>2009-07-10T12:23:11Z</time>
      </trkpt>
      <trkpt lat="44.36995" lon="3.75618">
        <ele>1175</ele>
        <time>2009-07-10T12:23:16Z</time>
      </trkpt>
      <trkpt lat="44.36979" lon="3.75627">
        <ele>1175</ele>
        <time>2009-07-10T12:23:33Z</time>
      </trkpt>
      <trkpt lat="44.36966" lon="3.75639">
        <ele>1175</ele>
        <time>2009-07-10T12:23:44Z</time>
      </trkpt>
      <trkpt lat="44.36959" lon="3.75647">
        <ele>1176</ele>
        <time>2009-07-10T12:23:53Z</time>
      </trkpt>
      <trkpt lat="44.36958" lon="3.75641">
        <ele>1176</ele>
        <time>2009-07-10T12:24:10Z</time>
      </trkpt>
      <trkpt lat="44.36961" lon="3.75644">
        <ele>1175</ele>
        <time>2009-07-10T12:24:25Z</time>
      </trkpt>
      <trkpt lat="44.36963" lon="3.75645">
        <ele>1176</ele>
        <time>2009-07-10T12:25:31Z</time>
      </trkpt>
      <trkpt lat="44.36958" lon="3.75668">
        <ele>1177</ele>
        <time>2009-07-10T12:25:46Z</time>
      </trkpt>
      <trkpt lat="44.36962" lon="3.75693">
        <ele>1180</ele>
        <time>2009-07-10T12:25:57Z</time>
      </trkpt>
      <trkpt lat="44.36967" lon="3.75709">
        <ele>1182</ele>
        <time>2009-07-10T12:26:11Z</time>
      </trkpt>
      <trkpt lat="44.36968" lon="3.75711">
        <ele>1182</ele>
        <time>2009-07-10T12:26:20Z</time>
      </trkpt>
      <trkpt lat="44.36976" lon="3.75705">
        <ele>1184</ele>
        <time>2009-07-10T12:26:35Z</time>
      </trkpt>
      <trkpt lat="44.36981" lon="3.75697">
        <ele>1187</ele>
        <time>2009-07-10T12:26:45Z</time>
      </trkpt>
      <trkpt lat="44.3698" lon="3.75698">
        <ele>1188</ele>
        <time>2009-07-10T12:26:55Z</time>
      </trkpt>
      <trkpt lat="44.36976" lon="3.75706">
        <ele>1185</ele>
        <time>2009-07-10T12:26:59Z</time>
      </trkpt>
      <trkpt lat="44.36973" lon="3.75711">
        <ele>1183</ele>
        <time>2009-07-10T12:27:01Z</time>
      </trkpt>
      <trkpt lat="44.36965" lon="3.7571">
        <ele>1181</ele>
        <time>2009-07-10T12:27:06Z</time>
      </trkpt>
      <trkpt lat="44.36962" lon="3.75695">
        <ele>1176</ele>
        <time>2009-07-10T12:27:11Z</time>
      </trkpt>
      <trkpt lat="44.36961" lon="3.75693">
        <ele>1183</ele>
        <time>2009-07-10T12:27:12Z</time>
      </trkpt>
      <trkpt lat="44.3696" lon="3.75691">
        <ele>1179</ele>
        <time>2009-07-10T12:27:13Z</time>
      </trkpt>
      <trkpt lat="44.36956" lon="3.7567">
        <ele>1177</ele>
        <time>2009-07-10T12:27:19Z</time>
      </trkpt>
      <trkpt lat="44.36961" lon="3.75647">
        <ele>1177</ele>
        <time>2009-07-10T12:27:24Z</time>
      </trkpt>
      <trkpt lat="44.3696" lon="3.75645">
        <ele>1174</ele>
        <time>2009-07-10T12:27:35Z</time>
      </trkpt>
      <trkpt lat="44.3696" lon="3.75645">
        <ele>1178</ele>
        <time>2009-07-10T12:27:36Z</time>
      </trkpt>
      <trkpt lat="44.3696" lon="3.75644">
        <ele>1174</ele>
        <time>2009-07-10T12:27:39Z</time>
      </trkpt>
      <trkpt lat="44.3696" lon="3.75644">
        <ele>1176</ele>
        <time>2009-07-10T12:27:40Z</time>
      </trkpt>
      <trkpt lat="44.36959" lon="3.75644">
        <ele>1176</ele>
        <time>2009-07-10T12:27:48Z</time>
      </trkpt>
      <trkpt lat="44.36959" lon="3.75644">
        <ele>1178</ele>
        <time>2009-07-10T12:27:51Z</time>
      </trkpt>
      <trkpt lat="44.36959" lon="3.75644">
        <ele>1176</ele>
        <time>2009-07-10T12:27:55Z</time>
      </trkpt>
      <trkpt lat="44.36959" lon="3.75647">
        <ele>1176</ele>
        <time>2009-07-10T12:28:35Z</time>
      </trkpt>
      <trkpt lat="44.36951" lon="3.75671">
        <ele>1176</ele>
        <time>2009-07-10T12:28:46Z</time>
      </trkpt>
      <trkpt lat="44.3695" lon="3.7568">
        <ele>1177</ele>
        <time>2009-07-10T12:28:59Z</time>
      </trkpt>
      <trkpt lat="44.36951" lon="3.75698">
        <ele>1176</ele>
        <time>2009-07-10T12:29:13Z</time>
      </trkpt>
      <trkpt lat="44.36952" lon="3.75716">
        <ele>1176</ele>
        <time>2009-07-10T12:29:23Z</time>
      </trkpt>
      <trkpt lat="44.36951" lon="3.7572">
        <ele>1176</ele>
        <time>2009-07-10T12:29:35Z</time>
      </trkpt>
      <trkpt lat="44.3695" lon="3.75728">
        <ele>1176</ele>
        <time>2009-07-10T12:29:46Z</time>
      </trkpt>
      <trkpt lat="44.36951" lon="3.75729">
        <ele>1176</ele>
        <time>2009-07-10T12:29:49Z</time>
      </trkpt>
      <trkpt lat="44.36951" lon="3.75732">
        <ele>1175</ele>
        <time>2009-07-10T12:29:51Z</time>
      </trkpt>
      <trkpt lat="44.3695" lon="3.75749">
        <ele>1174</ele>
        <time>2009-07-10T12:30:05Z</time>
      </trkpt>
      <trkpt lat="44.36949" lon="3.75751">
        <ele>1176</ele>
        <time>2009-07-10T12:30:38Z</time>
      </trkpt>
      <trkpt lat="44.36949" lon="3.75751">
        <ele>1172</ele>
        <time>2009-07-10T12:31:28Z</time>
      </trkpt>
      <trkpt lat="44.36949" lon="3.75751">
        <ele>1178</ele>
        <time>2009-07-10T12:31:31Z</time>
      </trkpt>
      <trkpt lat="44.36949" lon="3.75751">
        <ele>1174</ele>
        <time>2009-07-10T12:31:34Z</time>
      </trkpt>
      <trkpt lat="44.36949" lon="3.7575">
        <ele>1178</ele>
        <time>2009-07-10T12:31:36Z</time>
      </trkpt>
      <trkpt lat="44.36949" lon="3.7575">
        <ele>1172</ele>
        <time>2009-07-10T12:31:37Z</time>
      </trkpt>
      <trkpt lat="44.36949" lon="3.7575">
        <ele>1178</ele>
        <time>2009-07-10T12:31:38Z</time>
      </trkpt>
      <trkpt lat="44.36949" lon="3.7575">
        <ele>1173</ele>
        <time>2009-07-10T12:31:39Z</time>
      </trkpt>
      <trkpt lat="44.36949" lon="3.7575">
        <ele>1176</ele>
        <time>2009-07-10T12:31:40Z</time>
      </trkpt>
      <trkpt lat="44.36949" lon="3.7575">
        <ele>1173</ele>
        <time>2009-07-10T12:31:44Z</time>
      </trkpt>
      <trkpt lat="44.36949" lon="3.75751">
        <ele>1177</ele>
        <time>2009-07-10T12:31:48Z</time>
      </trkpt>
      <trkpt lat="44.3695" lon="3.75749">
        <ele>1175</ele>
        <time>2009-07-10T12:31:56Z</time>
      </trkpt>
      <trkpt lat="44.36951" lon="3.75733">
        <ele>1177</ele>
        <time>2009-07-10T12:32:06Z</time>
      </trkpt>
      <trkpt lat="44.36951" lon="3.75722">
        <ele>1176</ele>
        <time>2009-07-10T12:32:19Z</time>
      </trkpt>
      <trkpt lat="44.36951" lon="3.75715">
        <ele>1177</ele>
        <time>2009-07-10T12:32:33Z</time>
      </trkpt>
      <trkpt lat="44.36951" lon="3.75696">
        <ele>1177</ele>
        <time>2009-07-10T12:32:46Z</time>
      </trkpt>
      <trkpt lat="44.36952" lon="3.75665">
        <ele>1176</ele>
        <time>2009-07-10T12:32:56Z</time>
      </trkpt>
      <trkpt lat="44.36955" lon="3.75655">
        <ele>1175</ele>
        <time>2009-07-10T12:33:06Z</time>
      </trkpt>
      <trkpt lat="44.36955" lon="3.75656">
        <ele>1179</ele>
        <time>2009-07-10T12:33:18Z</time>
      </trkpt>
      <trkpt lat="44.36955" lon="3.75656">
        <ele>1176</ele>
        <time>2009-07-10T12:33:19Z</time>
      </trkpt>
      <trkpt lat="44.36955" lon="3.75656">
        <ele>1180</ele>
        <time>2009-07-10T12:33:20Z</time>
      </trkpt>
      <trkpt lat="44.36955" lon="3.75656">
        <ele>1177</ele>
        <time>2009-07-10T12:33:21Z</time>
      </trkpt>
      <trkpt lat="44.36955" lon="3.75656">
        <ele>1180</ele>
        <time>2009-07-10T12:33:24Z</time>
      </trkpt>
      <trkpt lat="44.36955" lon="3.75656">
        <ele>1176</ele>
        <time>2009-07-10T12:33:25Z</time>
      </trkpt>
      <trkpt lat="44.36956" lon="3.75654">
        <ele>1176</ele>
        <time>2009-07-10T12:33:48Z</time>
      </trkpt>
      <trkpt lat="44.36958" lon="3.75651">
        <ele>1175</ele>
        <time>2009-07-10T12:33:51Z</time>
      </trkpt>
      <trkpt lat="44.36957" lon="3.75649">
        <ele>1175</ele>
        <time>2009-07-10T12:33:56Z</time>
      </trkpt>
      <trkpt lat="44.36955" lon="3.75645">
        <ele>1175</ele>
        <time>2009-07-10T12:33:58Z</time>
      </trkpt>
      <trkpt lat="44.36947" lon="3.75644">
        <ele>1173</ele>
        <time>2009-07-10T12:34:02Z</time>
      </trkpt>
      <trkpt lat="44.36931" lon="3.75672">
        <ele>1170</ele>
        <time>2009-07-10T12:34:13Z</time>
      </trkpt>
      <trkpt lat="44.36931" lon="3.75679">
        <ele>1170</ele>
        <time>2009-07-10T12:34:26Z</time>
      </trkpt>
      <trkpt lat="44.36932" lon="3.7569">
        <ele>1168</ele>
        <time>2009-07-10T12:34:29Z</time>
      </trkpt>
      <trkpt lat="44.36933" lon="3.757">
        <ele>1166</ele>
        <time>2009-07-10T12:34:31Z</time>
      </trkpt>
      <trkpt lat="44.36931" lon="3.75725">
        <ele>1166</ele>
        <time>2009-07-10T12:34:37Z</time>
      </trkpt>
      <trkpt lat="44.36922" lon="3.75743">
        <ele>1162</ele>
        <time>2009-07-10T12:34:42Z</time>
      </trkpt>
      <trkpt lat="44.36918" lon="3.75752">
        <ele>1161</ele>
        <time>2009-07-10T12:34:44Z</time>
      </trkpt>
      <trkpt lat="44.36913" lon="3.75771">
        <ele>1161</ele>
        <time>2009-07-10T12:34:48Z</time>
      </trkpt>
      <trkpt lat="44.36917" lon="3.7579">
        <ele>1159</ele>
        <time>2009-07-10T12:34:52Z</time>
      </trkpt>
      <trkpt lat="44.36913" lon="3.75814">
        <ele>1155</ele>
        <time>2009-07-10T12:34:56Z</time>
      </trkpt>
      <trkpt lat="44.3691" lon="3.75818">
        <ele>1154</ele>
        <time>2009-07-10T12:34:57Z</time>
      </trkpt>
      <trkpt lat="44.36896" lon="3.75839">
        <ele>1151</ele>
        <time>2009-07-10T12:35:07Z</time>
      </trkpt>
      <trkpt lat="44.36888" lon="3.75864">
        <ele>1149</ele>
        <time>2009-07-10T12:35:16Z</time>
      </trkpt>
      <trkpt lat="44.3688" lon="3.75907">
        <ele>1149</ele>
        <time>2009-07-10T12:35:29Z</time>
      </trkpt>
      <trkpt lat="44.36874" lon="3.75918">
        <ele>1146</ele>
        <time>2009-07-10T12:35:32Z</time>
      </trkpt>
      <trkpt lat="44.36872" lon="3.75922">
        <ele>1146</ele>
        <time>2009-07-10T12:35:33Z</time>
      </trkpt>
      <trkpt lat="44.36871" lon="3.75932">
        <ele>1146</ele>
        <time>2009-07-10T12:35:35Z</time>
      </trkpt>
      <trkpt lat="44.36888" lon="3.75965">
        <ele>1148</ele>
        <time>2009-07-10T12:35:46Z</time>
      </trkpt>
      <trkpt lat="44.3688" lon="3.76028">
        <ele>1148</ele>
        <time>2009-07-10T12:35:59Z</time>
      </trkpt>
      <trkpt lat="44.36876" lon="3.76109">
        <ele>1145</ele>
        <time>2009-07-10T12:36:13Z</time>
      </trkpt>
      <trkpt lat="44.36889" lon="3.76162">
        <ele>1142</ele>
        <time>2009-07-10T12:36:20Z</time>
      </trkpt>
      <trkpt lat="44.36892" lon="3.76171">
        <ele>1142</ele>
        <time>2009-07-10T12:36:21Z</time>
      </trkpt>
      <trkpt lat="44.36901" lon="3.76214">
        <ele>1141</ele>
        <time>2009-07-10T12:36:26Z</time>
      </trkpt>
      <trkpt lat="44.369" lon="3.76232">
        <ele>1137</ele>
        <time>2009-07-10T12:36:28Z</time>
      </trkpt>
      <trkpt lat="44.36883" lon="3.76261">
        <ele>1136</ele>
        <time>2009-07-10T12:36:32Z</time>
      </trkpt>
      <trkpt lat="44.36879" lon="3.7628">
        <ele>1134</ele>
        <time>2009-07-10T12:36:34Z</time>
      </trkpt>
      <trkpt lat="44.36873" lon="3.7631">
        <ele>1132</ele>
        <time>2009-07-10T12:36:37Z</time>
      </trkpt>
      <trkpt lat="44.36857" lon="3.7636">
        <ele>1134</ele>
        <time>2009-07-10T12:36:42Z</time>
      </trkpt>
      <trkpt lat="44.36845" lon="3.76419">
        <ele>1138</ele>
        <time>2009-07-10T12:36:54Z</time>
      </trkpt>
      <trkpt lat="44.36821" lon="3.76464">
        <ele>1142</ele>
        <time>2009-07-10T12:37:08Z</time>
      </trkpt>
      <trkpt lat="44.368" lon="3.76489">
        <ele>1145</ele>
        <time>2009-07-10T12:37:19Z</time>
      </trkpt>
      <trkpt lat="44.36793" lon="3.76542">
        <ele>1148</ele>
        <time>2009-07-10T12:37:35Z</time>
      </trkpt>
      <trkpt lat="44.36813" lon="3.76574">
        <ele>1151</ele>
        <time>2009-07-10T12:37:47Z</time>
      </trkpt>
      <trkpt lat="44.36839" lon="3.76606">
        <ele>1154</ele>
        <time>2009-07-10T12:38:02Z</time>
      </trkpt>
      <trkpt lat="44.36866" lon="3.76656">
        <ele>1157</ele>
        <time>2009-07-10T12:38:22Z</time>
      </trkpt>
      <trkpt lat="44.36866" lon="3.76679">
        <ele>1159</ele>
        <time>2009-07-10T12:38:29Z</time>
      </trkpt>
      <trkpt lat="44.36864" lon="3.76688">
        <ele>1160</ele>
        <time>2009-07-10T12:38:32Z</time>
      </trkpt>
      <trkpt lat="44.36856" lon="3.76714">
        <ele>1161</ele>
        <time>2009-07-10T12:38:41Z</time>
      </trkpt>
      <trkpt lat="44.36834" lon="3.76756">
        <ele>1164</ele>
        <time>2009-07-10T12:38:57Z</time>
      </trkpt>
      <trkpt lat="44.36828" lon="3.76819">
        <ele>1167</ele>
        <time>2009-07-10T12:39:17Z</time>
      </trkpt>
      <trkpt lat="44.36821" lon="3.76856">
        <ele>1170</ele>
        <time>2009-07-10T12:39:29Z</time>
      </trkpt>
      <trkpt lat="44.36811" lon="3.7691">
        <ele>1173</ele>
        <time>2009-07-10T12:39:47Z</time>
      </trkpt>
      <trkpt lat="44.36813" lon="3.76966">
        <ele>1177</ele>
        <time>2009-07-10T12:40:05Z</time>
      </trkpt>
      <trkpt lat="44.36813" lon="3.76969">
        <ele>1177</ele>
        <time>2009-07-10T12:40:06Z</time>
      </trkpt>
      <trkpt lat="44.36812" lon="3.76989">
        <ele>1179</ele>
        <time>2009-07-10T12:40:12Z</time>
      </trkpt>
      <trkpt lat="44.36822" lon="3.7705">
        <ele>1182</ele>
        <time>2009-07-10T12:40:31Z</time>
      </trkpt>
      <trkpt lat="44.36813" lon="3.77083">
        <ele>1185</ele>
        <time>2009-07-10T12:40:41Z</time>
      </trkpt>
      <trkpt lat="44.36801" lon="3.77132">
        <ele>1189</ele>
        <time>2009-07-10T12:40:55Z</time>
      </trkpt>
      <trkpt lat="44.36816" lon="3.77179">
        <ele>1192</ele>
        <time>2009-07-10T12:41:10Z</time>
      </trkpt>
      <trkpt lat="44.36851" lon="3.77206">
        <ele>1194</ele>
        <time>2009-07-10T12:41:26Z</time>
      </trkpt>
      <trkpt lat="44.36877" lon="3.77226">
        <ele>1196</ele>
        <time>2009-07-10T12:41:39Z</time>
      </trkpt>
      <trkpt lat="44.36893" lon="3.77236">
        <ele>1200</ele>
        <time>2009-07-10T12:41:46Z</time>
      </trkpt>
      <trkpt lat="44.36901" lon="3.77242">
        <ele>1201</ele>
        <time>2009-07-10T12:41:50Z</time>
      </trkpt>
      <trkpt lat="44.36925" lon="3.77258">
        <ele>1203</ele>
        <time>2009-07-10T12:42:02Z</time>
      </trkpt>
      <trkpt lat="44.36947" lon="3.77276">
        <ele>1205</ele>
        <time>2009-07-10T12:42:13Z</time>
      </trkpt>
      <trkpt lat="44.36975" lon="3.77294">
        <ele>1207</ele>
        <time>2009-07-10T12:42:26Z</time>
      </trkpt>
      <trkpt lat="44.37008" lon="3.77299">
        <ele>1210</ele>
        <time>2009-07-10T12:42:39Z</time>
      </trkpt>
      <trkpt lat="44.37044" lon="3.77294">
        <ele>1213</ele>
        <time>2009-07-10T12:42:53Z</time>
      </trkpt>
      <trkpt lat="44.37085" lon="3.77299">
        <ele>1216</ele>
        <time>2009-07-10T12:43:09Z</time>
      </trkpt>
      <trkpt lat="44.37116" lon="3.77303">
        <ele>1219</ele>
        <time>2009-07-10T12:43:21Z</time>
      </trkpt>
      <trkpt lat="44.37145" lon="3.77305">
        <ele>1221</ele>
        <time>2009-07-10T12:43:33Z</time>
      </trkpt>
      <trkpt lat="44.37191" lon="3.77318">
        <ele>1224</ele>
        <time>2009-07-10T12:43:52Z</time>
      </trkpt>
      <trkpt lat="44.37234" lon="3.77336">
        <ele>1228</ele>
        <time>2009-07-10T12:44:10Z</time>
      </trkpt>
      <trkpt lat="44.37241" lon="3.77339">
        <ele>1230</ele>
        <time>2009-07-10T12:44:13Z</time>
      </trkpt>
      <trkpt lat="44.37286" lon="3.77365">
        <ele>1233</ele>
        <time>2009-07-10T12:44:33Z</time>
      </trkpt>
      <trkpt lat="44.37312" lon="3.77389">
        <ele>1236</ele>
        <time>2009-07-10T12:44:46Z</time>
      </trkpt>
      <trkpt lat="44.37336" lon="3.7741">
        <ele>1239</ele>
        <time>2009-07-10T12:44:58Z</time>
      </trkpt>
      <trkpt lat="44.37376" lon="3.77454">
        <ele>1242</ele>
        <time>2009-07-10T12:45:19Z</time>
      </trkpt>
      <trkpt lat="44.37394" lon="3.77522">
        <ele>1245</ele>
        <time>2009-07-10T12:45:39Z</time>
      </trkpt>
      <trkpt lat="44.3739" lon="3.7758">
        <ele>1248</ele>
        <time>2009-07-10T12:45:54Z</time>
      </trkpt>
      <trkpt lat="44.37383" lon="3.77634">
        <ele>1251</ele>
        <time>2009-07-10T12:46:08Z</time>
      </trkpt>
      <trkpt lat="44.3739" lon="3.7765">
        <ele>1252</ele>
        <time>2009-07-10T12:46:15Z</time>
      </trkpt>
      <trkpt lat="44.37389" lon="3.77649">
        <ele>1251</ele>
        <time>2009-07-10T12:46:26Z</time>
      </trkpt>
      <trkpt lat="44.37389" lon="3.77644">
        <ele>1251</ele>
        <time>2009-07-10T12:46:43Z</time>
      </trkpt>
      <trkpt lat="44.37387" lon="3.77646">
        <ele>1251</ele>
        <time>2009-07-10T12:46:49Z</time>
      </trkpt>
      <trkpt lat="44.37391" lon="3.77662">
        <ele>1251</ele>
        <time>2009-07-10T12:47:05Z</time>
      </trkpt>
      <trkpt lat="44.37392" lon="3.77664">
        <ele>1251</ele>
        <time>2009-07-10T12:47:23Z</time>
      </trkpt>
      <trkpt lat="44.37393" lon="3.77664">
        <ele>1252</ele>
        <time>2009-07-10T12:47:25Z</time>
      </trkpt>
      <trkpt lat="44.37395" lon="3.77664">
        <ele>1252</ele>
        <time>2009-07-10T12:47:27Z</time>
      </trkpt>
      <trkpt lat="44.374" lon="3.7766">
        <ele>1252</ele>
        <time>2009-07-10T12:47:43Z</time>
      </trkpt>
      <trkpt lat="44.37403" lon="3.77674">
        <ele>1252</ele>
        <time>2009-07-10T12:49:42Z</time>
      </trkpt>
      <trkpt lat="44.37397" lon="3.77662">
        <ele>1252</ele>
        <time>2009-07-10T12:50:32Z</time>
      </trkpt>
      <trkpt lat="44.37398" lon="3.7766">
        <ele>1252</ele>
        <time>2009-07-10T12:51:12Z</time>
      </trkpt>
      <trkpt lat="44.37395" lon="3.77662">
        <ele>1255</ele>
        <time>2009-07-10T12:52:10Z</time>
      </trkpt>
      <trkpt lat="44.37396" lon="3.77665">
        <ele>1253</ele>
        <time>2009-07-10T12:53:10Z</time>
      </trkpt>
      <trkpt lat="44.37395" lon="3.77665">
        <ele>1254</ele>
        <time>2009-07-10T12:53:35Z</time>
      </trkpt>
      <trkpt lat="44.37397" lon="3.7766">
        <ele>1254</ele>
        <time>2009-07-10T12:56:27Z</time>
      </trkpt>
      <trkpt lat="44.37398" lon="3.77658">
        <ele>1254</ele>
        <time>2009-07-10T12:57:42Z</time>
      </trkpt>
      <trkpt lat="44.37399" lon="3.77659">
        <ele>1253</ele>
        <time>2009-07-10T12:58:22Z</time>
      </trkpt>
      <trkpt lat="44.37396" lon="3.77662">
        <ele>1254</ele>
        <time>2009-07-10T12:59:55Z</time>
      </trkpt>
      <trkpt lat="44.37398" lon="3.77662">
        <ele>1253</ele>
        <time>2009-07-10T13:01:31Z</time>
      </trkpt>
      <trkpt lat="44.37404" lon="3.77669">
        <ele>1254</ele>
        <time>2009-07-10T13:03:28Z</time>
      </trkpt>
      <trkpt lat="44.37398" lon="3.77668">
        <ele>1257</ele>
        <time>2009-07-10T13:08:10Z</time>
      </trkpt>
      <trkpt lat="44.37403" lon="3.77666">
        <ele>1257</ele>
        <time>2009-07-10T13:14:40Z</time>
      </trkpt>
      <trkpt lat="44.37398" lon="3.77662">
        <ele>1257</ele>
        <time>2009-07-10T13:19:29Z</time>
      </trkpt>
      <trkpt lat="44.37397" lon="3.77662">
        <ele>1258</ele>
        <time>2009-07-10T13:25:59Z</time>
      </trkpt>
      <trkpt lat="44.37398" lon="3.7766">
        <ele>1257</ele>
        <time>2009-07-10T13:26:58Z</time>
      </trkpt>
      <trkpt lat="44.37399" lon="3.77664">
        <ele>1257</ele>
        <time>2009-07-10T13:29:15Z</time>
      </trkpt>
      <trkpt lat="44.37397" lon="3.77665">
        <ele>1257</ele>
        <time>2009-07-10T13:30:48Z</time>
      </trkpt>
    </trkseg>
  </trk>
</gpx>